Darstellungsparameter: Aktuell verwendete Einstellungen:
Skalierung der Graphiken ... ?
xyx+y,   Skalierungsfaktor:      Skalierung: Modus: x, Faktor: 1
Darstellungszeitraum ... ?
Vom - - bis: - -   Zeitraum: 29.09.2020 - 28.03.2021
Min/Max/Avg-Anzeige ... ?
Zeige MMA aktuell
Zeige MMA Monat
Zeige MMA alles
Zeige --A aktuell
Zeige --A Monat
Zeige --A alles
Keine MMA-Anzeige
MMA:
Average (ber die Originaldaten)
MMA-Basis: 23.02.2003 - 29.09.2020
Quicknavigation für Darstellung... ?
Tage:      1T, 2T, 3T, 5T -1T -2T -3T -5T +1T +2T +3T +5T
Wochen: 1W, 2W, 3W -1W -2W -3W +1W +2W +3W
Monate: 1M, 3M, 6M -1M -3M -6M +1M +3M +6M
Jahre:    1J, 3J, 5J, 10J -1J -3J -5J -10J +1J +3J +5J +10J
Nutze für die Darstellung ... ?
Originaldaten oder ...
Mittelwerte Minima Maxima auf...
Stundenbasis Tagesbasis Wochenbasis
Monatsbasis Jahresbasis      Datenbasis: Mittelwerte auf Stundenbasis
Darstellen als:
Statistik (Auto) Statistik J:M      Darstellung:
Zur Graphik,    zurück zur Übersicht aller Sensoren.
 
Tabellarische Datenbersicht: ?
 
Sensor: Nr:Datum:Temp:Abs-Feuchte:Windchill:Wind:
Aussen-T/F 1 29-09-2020 00:00:00 10.975 C 9.19 g/m*3 10.98 C 0.26667 km/h
2 29-09-2020 01:00:00 11.025 C 9.22 g/m*3 11.03 C 0.4 km/h
3 29-09-2020 02:00:00 11.09167 C 9.26 g/m*3 11.09 C 0 km/h
4 29-09-2020 03:00:00 11.13333 C 9.29 g/m*3 11.13 C 0 km/h
5 29-09-2020 04:00:00 11.2 C 9.36 g/m*3 11.2 C 0 km/h
6 29-09-2020 05:00:00 11.3 C 9.49 g/m*3 11.3 C 0 km/h
7 29-09-2020 06:00:00 11.4 C 9.55 g/m*3 11.4 C 0 km/h
8 29-09-2020 07:00:00 11.59167 C 9.74 g/m*3 11.59 C 0 km/h
9 29-09-2020 08:00:00 11.81667 C 9.96 g/m*3 11.82 C 0 km/h
10 29-09-2020 09:00:00 12.2 C 10.28 g/m*3 12.2 C 1.6 km/h
11 29-09-2020 10:00:00 12.65 C 10.61 g/m*3 12.65 C 3.46667 km/h
12 29-09-2020 11:00:00 13.18333 C 10.92 g/m*3 13.18 C 3.2 km/h
13 29-09-2020 12:00:00 13.725 C 11.23 g/m*3 13.73 C 5.06667 km/h
14 29-09-2020 13:00:00 14.1 C 11.38 g/m*3 14.1 C 6.01667 km/h
15 29-09-2020 14:00:00 14.30833 C 11.62 g/m*3 14.31 C 6.43333 km/h
16 29-09-2020 15:00:00 14.26667 C 11.54 g/m*3 14.27 C 7.93333 km/h
17 29-09-2020 16:00:00 13.43333 C 10.98 g/m*3 13.43 C 5.21667 km/h
18 29-09-2020 17:00:00 13.15833 C 10.88 g/m*3 13.16 C 2.14167 km/h
19 29-09-2020 18:00:00 13.21667 C 10.92 g/m*3 13.22 C 1.86667 km/h
20 29-09-2020 19:00:00 12.425 C 10.4 g/m*3 12.43 C 4.54167 km/h
21 29-09-2020 20:00:00 11.55 C 9.84 g/m*3 11.55 C 0.13333 km/h
22 29-09-2020 21:00:00 10.70833 C 9.34 g/m*3 10.71 C 0 km/h
23 29-09-2020 22:00:00 10.24167 C 9.15 g/m*3 10.24 C 0 km/h
24 29-09-2020 23:00:00 10.5 C 9.34 g/m*3 10.5 C 0 km/h
25 30-09-2020 00:00:00 10.88333 C 9.64 g/m*3 10.88 C 0 km/h
Sensor: Nr:Datum:Temp:Abs-Feuchte:Windchill:Wind:
Aussen-T/F 26 30-09-2020 01:00:00 11.05833 C 9.74 g/m*3 11.06 C 0 km/h
27 30-09-2020 02:00:00 11.2 C 9.83 g/m*3 11.2 C 0 km/h
28 30-09-2020 03:00:00 11.49167 C 10.01 g/m*3 11.49 C 0 km/h
29 30-09-2020 04:00:00 11.75833 C 10.18 g/m*3 11.76 C 0 km/h
30 30-09-2020 05:00:00 11.90833 C 10.28 g/m*3 11.91 C 0 km/h
31 30-09-2020 06:00:00 12.11667 C 10.41 g/m*3 12.12 C 0 km/h
32 30-09-2020 07:00:00 12.23333 C 10.49 g/m*3 12.23 C 0 km/h
33 30-09-2020 08:00:00 12.65 C 10.76 g/m*3 12.65 C 0 km/h
34 30-09-2020 09:00:00 13.59167 C 11.44 g/m*3 13.59 C 0 km/h
35 30-09-2020 10:00:00 14.675 C 12.26 g/m*3 14.68 C 2.13333 km/h
36 30-09-2020 11:00:00 15.65833 C 12.76 g/m*3 15.66 C 4.81667 km/h
37 30-09-2020 12:00:00 16.64167 C 12.95 g/m*3 16.64 C 3.21667 km/h
38 30-09-2020 13:00:00 16.89167 C 12.81 g/m*3 16.89 C 1.6 km/h
39 30-09-2020 14:00:00 17.64167 C 12.94 g/m*3 17.64 C 3.46667 km/h
40 30-09-2020 15:00:00 18.15 C 12.88 g/m*3 18.15 C 4.66667 km/h
41 30-09-2020 16:00:00 17.9 C 12.66 g/m*3 17.9 C 3.86667 km/h
42 30-09-2020 17:00:00 18.00833 C 12.6 g/m*3 18.01 C 3.46667 km/h
43 30-09-2020 18:00:00 17.05 C 12.31 g/m*3 17.05 C 1.73333 km/h
44 30-09-2020 19:00:00 15.55833 C 12.03 g/m*3 15.56 C 0.13333 km/h
45 30-09-2020 20:00:00 14.54167 C 11.43 g/m*3 14.54 C 1.6 km/h
46 30-09-2020 21:00:00 13.25833 C 10.69 g/m*3 13.26 C 1.2 km/h
47 30-09-2020 22:00:00 12.175 C 10.12 g/m*3 12.18 C 2.13333 km/h
48 30-09-2020 23:00:00 11.55 C 9.84 g/m*3 11.55 C 1.73333 km/h
49 01-10-2020 00:00:00 11.06667 C 9.57 g/m*3 11.07 C 0.26667 km/h
50 01-10-2020 01:00:00 10.68333 C 9.4 g/m*3 10.68 C 0.13333 km/h
Sensor: Nr:Datum:Temp:Abs-Feuchte:Windchill:Wind:
Aussen-T/F 51 01-10-2020 02:00:00 10.15833 C 9.11 g/m*3 10.16 C 0.4 km/h
52 01-10-2020 03:00:00 9.85833 C 8.94 g/m*3 9.86 C 0.13333 km/h
53 01-10-2020 04:00:00 9.91667 C 9 g/m*3 9.92 C 0 km/h
54 01-10-2020 05:00:00 10.48333 C 9.39 g/m*3 10.48 C 0 km/h
55 01-10-2020 06:00:00 9.81667 C 8.98 g/m*3 9.82 C 0.26667 km/h
56 01-10-2020 07:00:00 9.51667 C 8.81 g/m*3 9.52 C 0 km/h
57 01-10-2020 08:00:00 10.05833 C 9.15 g/m*3 10.06 C 0 km/h
58 01-10-2020 09:00:00 10.80833 C 9.59 g/m*3 10.81 C 0 km/h
59 01-10-2020 10:00:00 12.25 C 10.57 g/m*3 12.25 C 2.94167 km/h
60 01-10-2020 11:00:00 14.08333 C 11.38 g/m*3 14.08 C 2.8 km/h
61 01-10-2020 12:00:00 16.04167 C 11.72 g/m*3 16.04 C 4.26667 km/h
62 01-10-2020 13:00:00 16.95833 C 11.68 g/m*3 16.96 C 5.35 km/h
63 01-10-2020 14:00:00 16.90833 C 11.52 g/m*3 16.91 C 2.13333 km/h
64 01-10-2020 15:00:00 15.9 C 11.92 g/m*3 15.9 C 1.6 km/h
65 01-10-2020 16:00:00 15.275 C 11.89 g/m*3 15.28 C 1.33333 km/h
66 01-10-2020 17:00:00 15.23333 C 12.06 g/m*3 15.23 C 0.66667 km/h
67 01-10-2020 18:00:00 16.05 C 12.38 g/m*3 16.05 C 2.94167 km/h
68 01-10-2020 19:00:00 13.75 C 10.77 g/m*3 13.75 C 4.26667 km/h
69 01-10-2020 20:00:00 12.34167 C 10.18 g/m*3 12.34 C 3.46667 km/h
70 01-10-2020 21:00:00 12.33333 C 10.35 g/m*3 12.33 C 4.01667 km/h
71 01-10-2020 22:00:00 11.475 C 9.8 g/m*3 11.48 C 1.6 km/h
72 01-10-2020 23:00:00 10.825 C 9.48 g/m*3 10.83 C 4.41667 km/h
73 02-10-2020 00:00:00 10.5 C 9.29 g/m*3 10.5 C 2.13333 km/h
74 02-10-2020 01:00:00 9.85833 C 8.94 g/m*3 9.86 C 0 km/h
75 02-10-2020 02:00:00 9.21667 C 8.58 g/m*3 9.22 C 0 km/h
Sensor: Nr:Datum:Temp:Abs-Feuchte:Windchill:Wind:
Aussen-T/F 76 02-10-2020 03:00:00 8.675 C 8.29 g/m*3 8.68 C 0 km/h
77 02-10-2020 04:00:00 8 C 7.94 g/m*3 8 C 0 km/h
78 02-10-2020 05:00:00 7.8 C 7.86 g/m*3 7.8 C 0 km/h
79 02-10-2020 06:00:00 8.13333 C 8.09 g/m*3 8.13 C 0 km/h
80 02-10-2020 07:00:00 8.46667 C 8.26 g/m*3 8.47 C 0 km/h
81 02-10-2020 08:00:00 9.19167 C 8.66 g/m*3 9.19 C 0 km/h
82 02-10-2020 09:00:00 10.56667 C 9.51 g/m*3 10.57 C 3.20833 km/h
83 02-10-2020 10:00:00 11.975 C 10.37 g/m*3 11.98 C 1.46667 km/h
84 02-10-2020 11:00:00 12.54167 C 10.69 g/m*3 12.54 C 3.34167 km/h
85 02-10-2020 12:00:00 14.15833 C 11.22 g/m*3 14.16 C 10.35833 km/h
86 02-10-2020 13:00:00 16.11667 C 11.62 g/m*3 16.12 C 7.125 km/h
87 02-10-2020 14:00:00 17.65 C 12.01 g/m*3 17.65 C 8.325 km/h
88 02-10-2020 15:00:00 18.44167 C 12.31 g/m*3 18.44 C 5.08333 km/h
89 02-10-2020 16:00:00 18.85 C 12.4 g/m*3 18.85 C 6.45 km/h
90 02-10-2020 17:00:00 18.54167 C 12.15 g/m*3 18.54 C 6.70833 km/h
91 02-10-2020 18:00:00 17.40833 C 12.01 g/m*3 17.41 C 6.98333 km/h
92 02-10-2020 19:00:00 17.44167 C 11.96 g/m*3 17.44 C 6.3 km/h
93 02-10-2020 20:00:00 17.15833 C 11.83 g/m*3 17.16 C 8.45 km/h
94 02-10-2020 21:00:00 17.43333 C 11.78 g/m*3 17.43 C 4.55 km/h
95 02-10-2020 22:00:00 16.725 C 11.56 g/m*3 16.73 C 4.40833 km/h
96 02-10-2020 23:00:00 17.10833 C 11.29 g/m*3 17.11 C 10.875 km/h
97 03-10-2020 00:00:00 17.35833 C 11.19 g/m*3 17.36 C 7.65833 km/h
98 03-10-2020 01:00:00 17.16667 C 11.11 g/m*3 17.17 C 8.2 km/h
99 03-10-2020 02:00:00 15.73333 C 10.9 g/m*3 15.73 C 3.33333 km/h
100 03-10-2020 03:00:00 14.275 C 10.92 g/m*3 14.28 C 2.66667 km/h
Sensor: Nr:Datum:Temp:Abs-Feuchte:Windchill:Wind:
Aussen-T/F 101 03-10-2020 04:00:00 14.19167 C 11.04 g/m*3 14.19 C 0 km/h
102 03-10-2020 05:00:00 13.73333 C 10.79 g/m*3 13.73 C 0 km/h
103 03-10-2020 06:00:00 13.3 C 10.69 g/m*3 13.3 C 0 km/h
104 03-10-2020 07:00:00 13.45 C 10.91 g/m*3 13.45 C 2.675 km/h
105 03-10-2020 08:00:00 13.85 C 11.19 g/m*3 13.85 C 5.61667 km/h
106 03-10-2020 09:00:00 13.83333 C 11 g/m*3 13.83 C 7.78333 km/h
107 03-10-2020 10:00:00 13.69167 C 10.6 g/m*3 13.69 C 11.7 km/h
108 03-10-2020 11:00:00 13.53333 C 10.34 g/m*3 13.53 C 12.49167 km/h
109 03-10-2020 12:00:00 13.08333 C 9.95 g/m*3 13.08 C 13.425 km/h
110 03-10-2020 13:00:00 12.95833 C 9.74 g/m*3 12.96 C 10.85833 km/h
111 03-10-2020 14:00:00 12.025 C 9.72 g/m*3 12.03 C 3.475 km/h
112 03-10-2020 15:00:00 11.94167 C 9.8 g/m*3 11.94 C 1.73333 km/h
113 03-10-2020 16:00:00 12.38333 C 9.75 g/m*3 12.38 C 1.86667 km/h
114 03-10-2020 17:00:00 14.28333 C 10.3 g/m*3 14.28 C 2.8 km/h
115 03-10-2020 18:00:00 14.45 C 10.22 g/m*3 14.45 C 3.86667 km/h
116 03-10-2020 19:00:00 11.88333 C 9.51 g/m*3 11.88 C 2 km/h
117 03-10-2020 20:00:00 11.4 C 9.23 g/m*3 11.4 C 2.26667 km/h
118 03-10-2020 21:00:00 10.81667 C 9.13 g/m*3 10.82 C 0.8 km/h
119 03-10-2020 22:00:00 10.35833 C 8.99 g/m*3 10.36 C 2.66667 km/h
120 03-10-2020 23:00:00 11.19167 C 9.28 g/m*3 11.19 C 4.95 km/h
121 04-10-2020 00:00:00 10.66667 C 8.95 g/m*3 10.67 C 2.66667 km/h
122 04-10-2020 01:00:00 10.63333 C 9.13 g/m*3 10.63 C 1.2 km/h
123 04-10-2020 02:00:00 10.38333 C 9.05 g/m*3 10.38 C 2.26667 km/h
124 04-10-2020 03:00:00 9.925 C 8.83 g/m*3 9.93 C 1.6 km/h
125 04-10-2020 04:00:00 9.96667 C 8.99 g/m*3 9.97 C 2.66667 km/h
Sensor: Nr:Datum:Temp:Abs-Feuchte:Windchill:Wind:
Aussen-T/F 126 04-10-2020 05:00:00 10.38333 C 9.19 g/m*3 10.38 C 4.95 km/h
127 04-10-2020 06:00:00 10.70833 C 9.34 g/m*3 10.71 C 4.95 km/h
128 04-10-2020 07:00:00 10.53333 C 9.19 g/m*3 10.53 C 4.14167 km/h
129 04-10-2020 08:00:00 10.43333 C 9.2 g/m*3 10.43 C 2 km/h
130 04-10-2020 09:00:00 10.93333 C 9.33 g/m*3 10.79 C 5.075 km/h
131 04-10-2020 10:00:00 11.56667 C 9.27 g/m*3 11.57 C 6.575 km/h
132 04-10-2020 11:00:00 12.54167 C 8.98 g/m*3 12.54 C 16.9 km/h
133 04-10-2020 12:00:00 13.175 C 8.75 g/m*3 13.18 C 12.63333 km/h
134 04-10-2020 13:00:00 13.49167 C 8.29 g/m*3 13.49 C 12.36667 km/h
135 04-10-2020 14:00:00 14.15 C 8.51 g/m*3 14.15 C 12.1 km/h
136 04-10-2020 15:00:00 14.96667 C 8.66 g/m*3 14.97 C 8.86667 km/h
137 04-10-2020 16:00:00 15.38333 C 8.65 g/m*3 15.38 C 6.85 km/h
138 04-10-2020 17:00:00 15.00833 C 9.16 g/m*3 15.01 C 2.26667 km/h
139 04-10-2020 18:00:00 14.2 C 9.61 g/m*3 14.2 C 1.86667 km/h
140 04-10-2020 19:00:00 12.56667 C 9.45 g/m*3 12.57 C 4.69167 km/h
141 04-10-2020 20:00:00 11.63333 C 9.5 g/m*3 11.63 C 0.93333 km/h
142 04-10-2020 21:00:00 11.05 C 9.39 g/m*3 11.05 C 2.00833 km/h
143 04-10-2020 22:00:00 9.9 C 8.77 g/m*3 9.9 C 1.33333 km/h
144 04-10-2020 23:00:00 8.96667 C 8.34 g/m*3 8.97 C 0 km/h
145 05-10-2020 00:00:00 8.61667 C 8.2 g/m*3 8.62 C 3.21667 km/h
146 05-10-2020 01:00:00 8.59167 C 8.23 g/m*3 8.59 C 2.53333 km/h
147 05-10-2020 02:00:00 9.175 C 8.58 g/m*3 9.18 C 3.06667 km/h
148 05-10-2020 03:00:00 9.11667 C 8.56 g/m*3 9.12 C 1.33333 km/h
149 05-10-2020 04:00:00 8.94167 C 8.48 g/m*3 8.94 C 2.66667 km/h
150 05-10-2020 05:00:00 8.59167 C 8.28 g/m*3 8.59 C 3.33333 km/h
Sensor: Nr:Datum:Temp:Abs-Feuchte:Windchill:Wind:
Aussen-T/F 151 05-10-2020 06:00:00 8.51667 C 8.29 g/m*3 8.52 C 3.33333 km/h
152 05-10-2020 07:00:00 8.76667 C 8.42 g/m*3 8.77 C 1.86667 km/h
153 05-10-2020 08:00:00 9.23333 C 8.68 g/m*3 9.23 C 2.8 km/h
154 05-10-2020 09:00:00 10.125 C 9.19 g/m*3 10.13 C 2.93333 km/h
155 05-10-2020 10:00:00 10.275 C 9.15 g/m*3 10.04 C 5.09167 km/h
156 05-10-2020 11:00:00 11.60833 C 9.15 g/m*3 11.61 C 8.46667 km/h
157 05-10-2020 12:00:00 12.90833 C 9.27 g/m*3 12.91 C 8.325 km/h
158 05-10-2020 13:00:00 12.875 C 9.49 g/m*3 12.88 C 6.16667 km/h
159 05-10-2020 14:00:00 13.1 C 10.07 g/m*3 13.1 C 4.29167 km/h
160 05-10-2020 15:00:00 14.04167 C 10.13 g/m*3 14.04 C 9.54167 km/h
161 05-10-2020 16:00:00 14.275 C 9.97 g/m*3 14.28 C 10.09167 km/h
162 05-10-2020 17:00:00 13.65833 C 9.73 g/m*3 13.66 C 10.20833 km/h
163 05-10-2020 18:00:00 13.375 C 9.75 g/m*3 13.38 C 3.34167 km/h
164 05-10-2020 19:00:00 12.825 C 9.76 g/m*3 12.83 C 1.46667 km/h
165 05-10-2020 20:00:00 12.09167 C 9.61 g/m*3 12.09 C 3.475 km/h
166 05-10-2020 21:00:00 11.90833 C 9.74 g/m*3 11.91 C 0.8 km/h
167 05-10-2020 22:00:00 11.59167 C 9.68 g/m*3 11.59 C 0.53333 km/h
168 05-10-2020 23:00:00 11.53333 C 9.82 g/m*3 11.53 C 1.46667 km/h
169 06-10-2020 00:00:00 11.79167 C 10.04 g/m*3 11.79 C 0.66667 km/h
170 06-10-2020 01:00:00 11.8 C 10.1 g/m*3 11.8 C 2.14167 km/h
171 06-10-2020 02:00:00 11.8 C 10.1 g/m*3 11.8 C 2.68333 km/h
172 06-10-2020 03:00:00 11.93333 C 10.21 g/m*3 11.93 C 4.825 km/h
173 06-10-2020 04:00:00 12.275 C 10.32 g/m*3 12.28 C 16.23333 km/h
174 06-10-2020 05:00:00 12.11667 C 9.89 g/m*3 12.12 C 22.8 km/h
175 06-10-2020 06:00:00 11.8 C 9.39 g/m*3 11.8 C 16.63333 km/h
Sensor: Nr:Datum:Temp:Abs-Feuchte:Windchill:Wind:
Aussen-T/F 176 06-10-2020 07:00:00 11.70833 C 9.24 g/m*3 11.71 C 11.55833 km/h
177 06-10-2020 08:00:00 11.95 C 9.26 g/m*3 11.95 C 8.73333 km/h
178 06-10-2020 09:00:00 12.60833 C 9.52 g/m*3 12.61 C 5.075 km/h
179 06-10-2020 10:00:00 13.3 C 9.8 g/m*3 13.3 C 6.99167 km/h
180 06-10-2020 11:00:00 13.88333 C 10.12 g/m*3 13.88 C 11.3 km/h
181 06-10-2020 12:00:00 14.80833 C 10.6 g/m*3 14.81 C 11.41667 km/h
182 06-10-2020 13:00:00 15.05 C 10.65 g/m*3 15.05 C 8.06667 km/h
183 06-10-2020 14:00:00 15.05 C 11.18 g/m*3 15.05 C 9.8 km/h
184 06-10-2020 15:00:00 15.35833 C 10.91 g/m*3 15.36 C 14.76667 km/h
185 06-10-2020 16:00:00 15.425 C 10.74 g/m*3 15.43 C 12.09167 km/h
186 06-10-2020 17:00:00 14.78333 C 10.68 g/m*3 14.78 C 10.225 km/h
187 06-10-2020 18:00:00 13.36667 C 10.46 g/m*3 13.37 C 8.88333 km/h
188 06-10-2020 19:00:00 12.94167 C 10.1 g/m*3 12.94 C 9.525 km/h
189 06-10-2020 20:00:00 12.86667 C 9.99 g/m*3 12.87 C 7.375 km/h
190 06-10-2020 21:00:00 12.675 C 9.86 g/m*3 12.68 C 6.575 km/h
191 06-10-2020 22:00:00 12.775 C 9.81 g/m*3 12.78 C 12.5 km/h
192 06-10-2020 23:00:00 12.66667 C 9.66 g/m*3 12.67 C 12.5 km/h
193 07-10-2020 00:00:00 12.25 C 9.53 g/m*3 12.25 C 9.40833 km/h
194 07-10-2020 01:00:00 12.325 C 9.62 g/m*3 12.33 C 9.4 km/h
195 07-10-2020 02:00:00 11.90833 C 9.62 g/m*3 11.91 C 11.825 km/h
196 07-10-2020 03:00:00 11.85 C 9.54 g/m*3 11.85 C 11.83333 km/h
197 07-10-2020 04:00:00 12.2 C 9.48 g/m*3 12.2 C 11.95833 km/h
198 07-10-2020 05:00:00 12.15 C 9.43 g/m*3 12.15 C 10.23333 km/h
199 07-10-2020 06:00:00 11.99167 C 9.43 g/m*3 11.99 C 12.225 km/h
200 07-10-2020 07:00:00 12.10833 C 9.51 g/m*3 12.11 C 13.025 km/h
Sensor: Nr:Datum:Temp:Abs-Feuchte:Windchill:Wind:
Aussen-T/F 201 07-10-2020 08:00:00 12.50833 C 9.5 g/m*3 12.51 C 12.63333 km/h
202 07-10-2020 09:00:00 12.76667 C 9.57 g/m*3 12.77 C 11.025 km/h
203 07-10-2020 10:00:00 13.24167 C 9.65 g/m*3 13.24 C 12.76667 km/h
204 07-10-2020 11:00:00 13.8 C 9.33 g/m*3 13.8 C 13.29167 km/h
205 07-10-2020 12:00:00 14.725 C 9.39 g/m*3 14.73 C 15.3 km/h
206 07-10-2020 13:00:00 15.09167 C 9.57 g/m*3 15.09 C 13.69167 km/h
207 07-10-2020 14:00:00 15.075 C 9.75 g/m*3 15.08 C 13.825 km/h
208 07-10-2020 15:00:00 14.225 C 9.97 g/m*3 14.23 C 11.55833 km/h
209 07-10-2020 16:00:00 14.81667 C 10.01 g/m*3 14.82 C 8.98333 km/h
210 07-10-2020 17:00:00 14.86667 C 9.6 g/m*3 14.87 C 9.53333 km/h
211 07-10-2020 18:00:00 14.50833 C 9.35 g/m*3 14.51 C 7.65833 km/h
212 07-10-2020 19:00:00 14 C 8.63 g/m*3 14 C 11.03333 km/h
213 07-10-2020 20:00:00 13.55 C 8.63 g/m*3 13.55 C 8.46667 km/h
214 07-10-2020 21:00:00 12.85 C 8.81 g/m*3 12.85 C 5.76667 km/h
215 07-10-2020 22:00:00 12.24167 C 8.92 g/m*3 12.24 C 4.66667 km/h
216 07-10-2020 23:00:00 11.61667 C 8.84 g/m*3 11.62 C 2.53333 km/h
217 08-10-2020 00:00:00 10.375 C 8.49 g/m*3 10.38 C 3.74167 km/h
218 08-10-2020 01:00:00 9.44167 C 8.23 g/m*3 9.44 C 1.6 km/h
219 08-10-2020 02:00:00 8.89167 C 8.07 g/m*3 8.89 C 0.53333 km/h
220 08-10-2020 03:00:00 8.325 C 7.88 g/m*3 8.32 C 0.53333 km/h
221 08-10-2020 04:00:00 8.46667 C 8.07 g/m*3 8.47 C 0 km/h
222 08-10-2020 05:00:00 9.06667 C 8.42 g/m*3 9.07 C 0.26667 km/h
223 08-10-2020 06:00:00 9.66667 C 8.82 g/m*3 9.67 C 0 km/h
224 08-10-2020 07:00:00 10.01667 C 9.03 g/m*3 10.02 C 0 km/h
225 08-10-2020 08:00:00 10.76667 C 9.52 g/m*3 10.77 C 0.8 km/h
Sensor: Nr:Datum:Temp:Abs-Feuchte:Windchill:Wind:
Aussen-T/F 226 08-10-2020 09:00:00 11.83333 C 10.23 g/m*3 11.83 C 4.29167 km/h
227 08-10-2020 10:00:00 12.59167 C 10.7 g/m*3 12.59 C 3.49167 km/h
228 08-10-2020 11:00:00 13.85 C 11.23 g/m*3 13.85 C 9.13333 km/h
229 08-10-2020 12:00:00 15.33333 C 11.28 g/m*3 15.33 C 19.05 km/h
230 08-10-2020 13:00:00 15.825 C 11.28 g/m*3 15.83 C 25.075 km/h
231 08-10-2020 14:00:00 16.15 C 11.38 g/m*3 16.15 C 17.7 km/h
232 08-10-2020 15:00:00 16.425 C 11.37 g/m*3 16.43 C 18.23333 km/h
233 08-10-2020 16:00:00 16.39167 C 11.49 g/m*3 16.39 C 17.43333 km/h
234 08-10-2020 17:00:00 16.53333 C 11.47 g/m*3 16.53 C 11.80833 km/h
235 08-10-2020 18:00:00 16.525 C 11.45 g/m*3 16.52 C 11.55 km/h
236 08-10-2020 19:00:00 16.30833 C 11.41 g/m*3 16.31 C 16.775 km/h
237 08-10-2020 20:00:00 16.29167 C 11.57 g/m*3 16.29 C 20.1 km/h
238 08-10-2020 21:00:00 16.23333 C 11.72 g/m*3 16.23 C 17.43333 km/h
239 08-10-2020 22:00:00 16.46667 C 11.78 g/m*3 16.47 C 19.96667 km/h
240 08-10-2020 23:00:00 16.28333 C 11.82 g/m*3 16.28 C 18.775 km/h
241 09-10-2020 00:00:00 16.18333 C 11.76 g/m*3 16.18 C 19.84167 km/h
242 09-10-2020 01:00:00 15.38333 C 11.41 g/m*3 15.38 C 11.55833 km/h
243 09-10-2020 02:00:00 13.83333 C 10.99 g/m*3 13.83 C 1.86667 km/h
244 09-10-2020 03:00:00 13.35 C 10.89 g/m*3 13.35 C 1.06667 km/h
245 09-10-2020 04:00:00 12.825 C 10.63 g/m*3 12.83 C 2.13333 km/h
246 09-10-2020 05:00:00 12.66667 C 10.55 g/m*3 12.67 C 0 km/h
247 09-10-2020 06:00:00 12.6 C 10.55 g/m*3 12.6 C 0 km/h
248 09-10-2020 07:00:00 12.58333 C 10.61 g/m*3 12.58 C 0 km/h
249 09-10-2020 08:00:00 12.65833 C 10.66 g/m*3 12.66 C 0 km/h
250 09-10-2020 09:00:00 12.875 C 10.8 g/m*3 12.88 C 1.6 km/h
Sensor: Nr:Datum:Temp:Abs-Feuchte:Windchill:Wind:
Aussen-T/F 251 09-10-2020 10:00:00 12.96667 C 10.94 g/m*3 12.97 C 0.8 km/h
252 09-10-2020 11:00:00 13.375 C 11.26 g/m*3 13.38 C 0 km/h
253 09-10-2020 12:00:00 14.125 C 11.79 g/m*3 14.13 C 1.46667 km/h
254 09-10-2020 13:00:00 14.775 C 12.26 g/m*3 14.78 C 4.425 km/h
255 09-10-2020 14:00:00 14.9 C 12.18 g/m*3 14.9 C 7.24167 km/h
256 09-10-2020 15:00:00 14.69167 C 11.93 g/m*3 14.69 C 5.48333 km/h
257 09-10-2020 16:00:00 13.64167 C 11.17 g/m*3 13.64 C 2.14167 km/h
258 09-10-2020 17:00:00 13.1 C 10.89 g/m*3 13.1 C 4.825 km/h
259 09-10-2020 18:00:00 12.20833 C 10.26 g/m*3 12.21 C 4.26667 km/h
260 09-10-2020 19:00:00 11.14167 C 9.61 g/m*3 11.14 C 4.28333 km/h
261 09-10-2020 20:00:00 10.31667 C 9.18 g/m*3 10.32 C 0 km/h
262 09-10-2020 21:00:00 10.425 C 9.27 g/m*3 10.43 C 0 km/h
263 09-10-2020 22:00:00 10.275 C 9.22 g/m*3 10.28 C 0 km/h
264 09-10-2020 23:00:00 10.875 C 9.63 g/m*3 10.88 C 0 km/h
265 10-10-2020 00:00:00 10.89167 C 9.64 g/m*3 10.89 C 0.53333 km/h
266 10-10-2020 01:00:00 10 C 9.08 g/m*3 10 C 4.275 km/h
267 10-10-2020 02:00:00 9.60833 C 8.89 g/m*3 9.61 C 2.26667 km/h
268 10-10-2020 03:00:00 9.61667 C 8.9 g/m*3 9.62 C 2.8 km/h
269 10-10-2020 04:00:00 9.86667 C 9.04 g/m*3 9.87 C 2.93333 km/h
270 10-10-2020 05:00:00 9.81667 C 9.01 g/m*3 9.82 C 0.53333 km/h
271 10-10-2020 06:00:00 9.51667 C 8.84 g/m*3 9.52 C 0.13333 km/h
272 10-10-2020 07:00:00 8.925 C 8.51 g/m*3 8.93 C 3.06667 km/h
273 10-10-2020 08:00:00 8.375 C 8.22 g/m*3 8.38 C 3.2 km/h
274 10-10-2020 09:00:00 8.275 C 8.16 g/m*3 8.28 C 1.73333 km/h
275 10-10-2020 10:00:00 8.18333 C 8.11 g/m*3 8.18 C 4.675 km/h
Sensor: Nr:Datum:Temp:Abs-Feuchte:Windchill:Wind:
Aussen-T/F 276 10-10-2020 11:00:00 9.075 C 8.42 g/m*3 8.16 C 6.96667 km/h
277 10-10-2020 12:00:00 10.99167 C 7.93 g/m*3 9.43 C 12.625 km/h
278 10-10-2020 13:00:00 12.24167 C 7.51 g/m*3 12.24 C 12.89167 km/h
279 10-10-2020 14:00:00 12.5 C 7.31 g/m*3 12.5 C 9.825 km/h
280 10-10-2020 15:00:00 12.65 C 7.23 g/m*3 12.65 C 9.95 km/h
281 10-10-2020 16:00:00 12.675 C 7.24 g/m*3 12.68 C 9.675 km/h
282 10-10-2020 17:00:00 12.44167 C 7.47 g/m*3 12.44 C 6.98333 km/h
283 10-10-2020 18:00:00 11.80833 C 7.84 g/m*3 11.81 C 5.86667 km/h
284 10-10-2020 19:00:00 8.66667 C 7.17 g/m*3 7.78 C 6.56667 km/h
285 10-10-2020 20:00:00 7.39167 C 6.89 g/m*3 6.76 C 5.09167 km/h
286 10-10-2020 21:00:00 6.65 C 6.86 g/m*3 6.65 C 3.475 km/h
287 10-10-2020 22:00:00 8.26667 C 7.31 g/m*3 7.22 C 6.96667 km/h
288 10-10-2020 23:00:00 9.64167 C 7.37 g/m*3 8.54 C 8.2 km/h
289 11-10-2020 00:00:00 9.45 C 7.39 g/m*3 8.26 C 8.475 km/h
290 11-10-2020 01:00:00 9.64167 C 7.55 g/m*3 8.63 C 7.775 km/h
291 11-10-2020 02:00:00 9.425 C 7.64 g/m*3 9.04 C 5.20833 km/h
292 11-10-2020 03:00:00 9.35 C 7.76 g/m*3 9.35 C 3.2 km/h
293 11-10-2020 04:00:00 9.15833 C 7.81 g/m*3 9.16 C 3.88333 km/h
294 11-10-2020 05:00:00 8.96667 C 7.83 g/m*3 8.97 C 2.26667 km/h
295 11-10-2020 06:00:00 8.76667 C 7.8 g/m*3 8.77 C 0 km/h
296 11-10-2020 07:00:00 8.60833 C 7.9 g/m*3 8.61 C 1.6 km/h
297 11-10-2020 08:00:00 8.20833 C 7.82 g/m*3 8.21 C 1.33333 km/h
298 11-10-2020 09:00:00 8.54167 C 8.05 g/m*3 8.54 C 2.13333 km/h
299 11-10-2020 10:00:00 9.21667 C 8.22 g/m*3 9.22 C 1.86667 km/h
300 11-10-2020 11:00:00 9.475 C 8.13 g/m*3 9.48 C 0.93333 km/h
Sensor: Nr:Datum:Temp:Abs-Feuchte:Windchill:Wind:
Aussen-T/F 301 11-10-2020 12:00:00 10.50833 C 8.26 g/m*3 10.51 C 4.15 km/h
302 11-10-2020 13:00:00 11.54167 C 8.03 g/m*3 11.54 C 3.75 km/h
303 11-10-2020 14:00:00 12.44167 C 7.57 g/m*3 12.44 C 4.69167 km/h
304 11-10-2020 15:00:00 13.09167 C 7.2 g/m*3 13.09 C 8.19167 km/h
305 11-10-2020 16:00:00 12.90833 C 7.3 g/m*3 12.91 C 9.41667 km/h
306 11-10-2020 17:00:00 12.575 C 7.63 g/m*3 12.58 C 3.075 km/h
307 11-10-2020 18:00:00 11.86667 C 8.34 g/m*3 11.87 C 2.4 km/h
308 11-10-2020 19:00:00 9.91667 C 7.73 g/m*3 9.92 C 3.46667 km/h
309 11-10-2020 20:00:00 10.20833 C 8.01 g/m*3 9.81 C 5.63333 km/h
310 11-10-2020 21:00:00 9.51667 C 8.19 g/m*3 9.52 C 4.54167 km/h
311 11-10-2020 22:00:00 9.14167 C 8.24 g/m*3 9.14 C 1.46667 km/h
312 11-10-2020 23:00:00 9.14167 C 8.33 g/m*3 9.14 C 1.6 km/h
313 12-10-2020 00:00:00 9.13333 C 8.36 g/m*3 9.13 C 2 km/h
314 12-10-2020 01:00:00 9.01667 C 8.33 g/m*3 9.02 C 1.86667 km/h
315 12-10-2020 02:00:00 9.08333 C 8.42 g/m*3 9.08 C 0.4 km/h
316 12-10-2020 03:00:00 8.95 C 8.35 g/m*3 8.95 C 0.13333 km/h
317 12-10-2020 04:00:00 8.9 C 8.32 g/m*3 8.9 C 0.26667 km/h
318 12-10-2020 05:00:00 8.89167 C 8.32 g/m*3 8.89 C 0.8 km/h
319 12-10-2020 06:00:00 8.69167 C 8.21 g/m*3 8.69 C 1.6 km/h
320 12-10-2020 07:00:00 8.71667 C 8.25 g/m*3 8.72 C 1.06667 km/h
321 12-10-2020 08:00:00 8.80833 C 8.28 g/m*3 8.81 C 0.66667 km/h
322 12-10-2020 09:00:00 9.16667 C 8.49 g/m*3 9.17 C 0.8 km/h
323 12-10-2020 10:00:00 9.64167 C 8.69 g/m*3 9.64 C 4.53333 km/h
324 12-10-2020 11:00:00 10.68333 C 8.95 g/m*3 10.68 C 3.06667 km/h
325 12-10-2020 12:00:00 11.63333 C 8.99 g/m*3 11.63 C 3.33333 km/h
Sensor: Nr:Datum:Temp:Abs-Feuchte:Windchill:Wind:
Aussen-T/F 326 12-10-2020 13:00:00 12.28333 C 8.9 g/m*3 12.28 C 6.30833 km/h
327 12-10-2020 14:00:00 12.24167 C 8.99 g/m*3 12.24 C 6.575 km/h
328 12-10-2020 15:00:00 12.19167 C 8.83 g/m*3 12.19 C 8.31667 km/h
329 12-10-2020 16:00:00 11.06667 C 9 g/m*3 11.07 C 2.53333 km/h
330 12-10-2020 17:00:00 11.79167 C 9.1 g/m*3 11.79 C 1.6 km/h
331 12-10-2020 18:00:00 10.66667 C 8.43 g/m*3 10.67 C 4.54167 km/h
332 12-10-2020 19:00:00 8.3 C 7.55 g/m*3 8.3 C 2 km/h
333 12-10-2020 20:00:00 7.10833 C 7.19 g/m*3 7.11 C 0 km/h
334 12-10-2020 21:00:00 6.55 C 7.05 g/m*3 6.55 C 0.53333 km/h
335 12-10-2020 22:00:00 6.33333 C 7.02 g/m*3 6.33 C 0.13333 km/h
336 12-10-2020 23:00:00 5.94167 C 6.86 g/m*3 5.94 C 0 km/h
337 13-10-2020 00:00:00 5.3 C 6.58 g/m*3 5.3 C 0 km/h
338 13-10-2020 01:00:00 5.075 C 6.52 g/m*3 5.08 C 0 km/h
339 13-10-2020 02:00:00 5.70833 C 6.84 g/m*3 5.71 C 0.13333 km/h
340 13-10-2020 03:00:00 6.2 C 7.06 g/m*3 6.2 C 0.4 km/h
341 13-10-2020 04:00:00 6.15833 C 7.04 g/m*3 6.16 C 0 km/h
342 13-10-2020 05:00:00 6.25833 C 7.09 g/m*3 6.26 C 0 km/h
343 13-10-2020 06:00:00 6.35 C 7.2 g/m*3 6.35 C 0 km/h
344 13-10-2020 07:00:00 6.325 C 7.19 g/m*3 6.33 C 0 km/h
345 13-10-2020 08:00:00 6.61667 C 7.33 g/m*3 6.62 C 0.13333 km/h
346 13-10-2020 09:00:00 7.05833 C 7.54 g/m*3 7.06 C 0.13333 km/h
347 13-10-2020 10:00:00 7.41667 C 7.65 g/m*3 6.7 C 5.35833 km/h
348 13-10-2020 11:00:00 8.08333 C 7.8 g/m*3 8.08 C 4.275 km/h
349 13-10-2020 12:00:00 9.225 C 8.09 g/m*3 9.23 C 4.00833 km/h
350 13-10-2020 13:00:00 10.16667 C 8.17 g/m*3 10.17 C 4.14167 km/h
Sensor: Nr:Datum:Temp:Abs-Feuchte:Windchill:Wind:
Aussen-T/F 351 13-10-2020 14:00:00 10.6 C 8.17 g/m*3 10.2 C 5.86667 km/h
352 13-10-2020 15:00:00 10.91667 C 8.12 g/m*3 10.92 C 3.88333 km/h
353 13-10-2020 16:00:00 10.59167 C 8.12 g/m*3 10.59 C 1.73333 km/h
354 13-10-2020 17:00:00 10.325 C 8.25 g/m*3 10.33 C 0.93333 km/h
355 13-10-2020 18:00:00 8.75 C 7.65 g/m*3 8.75 C 2.8 km/h
356 13-10-2020 19:00:00 7.19167 C 7.18 g/m*3 7.19 C 1.2 km/h
357 13-10-2020 20:00:00 6.40833 C 6.98 g/m*3 6.41 C 0.66667 km/h
358 13-10-2020 21:00:00 5.89167 C 6.8 g/m*3 5.89 C 1.73333 km/h
359 13-10-2020 22:00:00 5.36667 C 6.61 g/m*3 5.37 C 2.66667 km/h
360 13-10-2020 23:00:00 4.98333 C 6.45 g/m*3 4.98 C 0.13333 km/h
361 14-10-2020 00:00:00 5.275 C 6.64 g/m*3 5.28 C 0 km/h
362 14-10-2020 01:00:00 5.03333 C 6.53 g/m*3 5.03 C 0 km/h
363 14-10-2020 02:00:00 4.83333 C 6.45 g/m*3 4.83 C 0 km/h
364 14-10-2020 03:00:00 4.25 C 6.21 g/m*3 4.25 C 0 km/h
365 14-10-2020 04:00:00 3.675 C 5.97 g/m*3 3.68 C 0 km/h
366 14-10-2020 05:00:00 4.25 C 6.21 g/m*3 4.25 C 0 km/h
367 14-10-2020 06:00:00 4.56667 C 6.4 g/m*3 4.57 C 0 km/h
368 14-10-2020 07:00:00 4.8 C 6.5 g/m*3 4.8 C 0.13333 km/h
369 14-10-2020 08:00:00 4.95833 C 6.57 g/m*3 4.96 C 0 km/h
370 14-10-2020 09:00:00 5.925 C 7.01 g/m*3 5.93 C 0.13333 km/h
371 14-10-2020 10:00:00 7.06667 C 7.55 g/m*3 7.07 C 0.53333 km/h
372 14-10-2020 11:00:00 8.1 C 8.03 g/m*3 8.1 C 0.93333 km/h
373 14-10-2020 12:00:00 9.13333 C 8.22 g/m*3 9.13 C 4.14167 km/h
374 14-10-2020 13:00:00 10.51667 C 8.46 g/m*3 10.52 C 4.95 km/h
375 14-10-2020 14:00:00 11.51667 C 8.52 g/m*3 11.52 C 8.325 km/h
Sensor: Nr:Datum:Temp:Abs-Feuchte:Windchill:Wind:
Aussen-T/F 376 14-10-2020 15:00:00 11.80833 C 8.12 g/m*3 11.81 C 9.95833 km/h
377 14-10-2020 16:00:00 11.70833 C 7.58 g/m*3 11.71 C 10.225 km/h
378 14-10-2020 17:00:00 11.26667 C 7.79 g/m*3 11.27 C 8.875 km/h
379 14-10-2020 18:00:00 10.80833 C 7.7 g/m*3 9.74 C 9.14167 km/h
380 14-10-2020 19:00:00 10.35 C 7.75 g/m*3 10.35 C 4.675 km/h
381 14-10-2020 20:00:00 9.84167 C 7.65 g/m*3 8.78 C 8.2 km/h
382 14-10-2020 21:00:00 9.225 C 7.74 g/m*3 9.23 C 4.28333 km/h
383 14-10-2020 22:00:00 8.825 C 7.74 g/m*3 8.82 C 3.475 km/h
384 14-10-2020 23:00:00 8.40833 C 7.8 g/m*3 8.41 C 0.93333 km/h
385 15-10-2020 00:00:00 8.15833 C 7.83 g/m*3 8.16 C 0.8 km/h
386 15-10-2020 01:00:00 8.08333 C 7.86 g/m*3 8.08 C 1.2 km/h
387 15-10-2020 02:00:00 7.975 C 7.84 g/m*3 7.98 C 0.93333 km/h
388 15-10-2020 03:00:00 7.94167 C 7.84 g/m*3 7.94 C 1.2 km/h
389 15-10-2020 04:00:00 7.91667 C 7.89 g/m*3 7.92 C 0.93333 km/h
390 15-10-2020 05:00:00 7.9 C 7.89 g/m*3 7.9 C 0.93333 km/h
391 15-10-2020 06:00:00 7.81667 C 7.84 g/m*3 7.82 C 1.06667 km/h
392 15-10-2020 07:00:00 7.83333 C 7.85 g/m*3 7.83 C 0.8 km/h
393 15-10-2020 08:00:00 7.90833 C 7.89 g/m*3 7.91 C 0.53333 km/h
394 15-10-2020 09:00:00 8.15 C 8.03 g/m*3 8.15 C 0.26667 km/h
395 15-10-2020 10:00:00 8.4 C 8.21 g/m*3 8.4 C 0.26667 km/h
396 15-10-2020 11:00:00 8.7 C 8.32 g/m*3 8.7 C 1.33333 km/h
397 15-10-2020 12:00:00 9.24167 C 8.51 g/m*3 9.24 C 3.21667 km/h
398 15-10-2020 13:00:00 9.96667 C 8.52 g/m*3 9.01 C 7.79167 km/h
399 15-10-2020 14:00:00 10.375 C 8.48 g/m*3 9.25 C 9.03333 km/h
400 15-10-2020 15:00:00 10.61667 C 8.44 g/m*3 9.03 C 12.225 km/h
Sensor: Nr:Datum:Temp:Abs-Feuchte:Windchill:Wind:
Aussen-T/F 401 15-10-2020 16:00:00 10.7 C 8.42 g/m*3 9.71 C 8.61667 km/h
402 15-10-2020 17:00:00 10.71667 C 8.45 g/m*3 10 C 7.25 km/h
403 15-10-2020 18:00:00 10.625 C 8.45 g/m*3 10.63 C 4.14167 km/h
404 15-10-2020 19:00:00 10.075 C 8.51 g/m*3 10.07 C 0.93333 km/h
405 15-10-2020 20:00:00 9.93333 C 8.29 g/m*3 9.93 C 2.94167 km/h
406 15-10-2020 21:00:00 9.86667 C 8.27 g/m*3 9.87 C 2.13333 km/h
407 15-10-2020 22:00:00 9.78333 C 8.29 g/m*3 9.78 C 0.66667 km/h
408 15-10-2020 23:00:00 9.58333 C 8.36 g/m*3 9.58 C 0.13333 km/h
409 16-10-2020 00:00:00 9.34167 C 8.33 g/m*3 9.34 C 0.26667 km/h
410 16-10-2020 01:00:00 9.3 C 8.36 g/m*3 9.3 C 0.53333 km/h
411 16-10-2020 02:00:00 9.30833 C 8.32 g/m*3 9.31 C 0.53333 km/h
412 16-10-2020 03:00:00 9.325 C 8.22 g/m*3 9.32 C 1.86667 km/h
413 16-10-2020 04:00:00 9.24167 C 8.16 g/m*3 9.24 C 1.875 km/h
414 16-10-2020 05:00:00 8.925 C 8.12 g/m*3 8.93 C 0.4 km/h
415 16-10-2020 06:00:00 8.63333 C 8.03 g/m*3 8.63 C 1.2 km/h
416 16-10-2020 07:00:00 8.425 C 7.99 g/m*3 8.43 C 0.8 km/h
417 16-10-2020 08:00:00 8.4 C 7.97 g/m*3 8.4 C 0 km/h
418 16-10-2020 09:00:00 8.49167 C 8.07 g/m*3 8.49 C 1.46667 km/h
419 16-10-2020 10:00:00 8.86667 C 8.26 g/m*3 8.87 C 0.13333 km/h
420 16-10-2020 11:00:00 9.24167 C 8.41 g/m*3 9.24 C 0 km/h
421 16-10-2020 12:00:00 9.725 C 8.49 g/m*3 9.73 C 0.4 km/h
422 16-10-2020 13:00:00 10.24167 C 8.68 g/m*3 10.24 C 0.66667 km/h
423 16-10-2020 14:00:00 10.60833 C 8.69 g/m*3 10.61 C 3.75833 km/h
424 16-10-2020 15:00:00 11.04167 C 8.79 g/m*3 11.04 C 2.53333 km/h
425 16-10-2020 16:00:00 11 C 8.63 g/m*3 11 C 4.68333 km/h
Sensor: Nr:Datum:Temp:Abs-Feuchte:Windchill:Wind:
Aussen-T/F 426 16-10-2020 17:00:00 10.69167 C 8.7 g/m*3 10.69 C 3.86667 km/h
427 16-10-2020 18:00:00 10.06667 C 8.59 g/m*3 10.07 C 4.95 km/h
428 16-10-2020 19:00:00 9.275 C 8.37 g/m*3 9.28 C 1.73333 km/h
429 16-10-2020 20:00:00 8.81667 C 8.21 g/m*3 8.82 C 0.66667 km/h
430 16-10-2020 21:00:00 8.29167 C 8 g/m*3 8.29 C 4.8 km/h
431 16-10-2020 22:00:00 7.93333 C 7.84 g/m*3 7.93 C 3.06667 km/h
432 16-10-2020 23:00:00 7.05 C 7.39 g/m*3 7.05 C 3.6 km/h
433 17-10-2020 00:00:00 6.06667 C 6.93 g/m*3 6.07 C 2.53333 km/h
434 17-10-2020 01:00:00 5.34167 C 6.61 g/m*3 5.34 C 0.4 km/h
435 17-10-2020 02:00:00 4.51667 C 6.28 g/m*3 4.52 C 0 km/h
436 17-10-2020 03:00:00 4.18333 C 6.18 g/m*3 4.18 C 0 km/h
437 17-10-2020 04:00:00 3.575 C 5.93 g/m*3 3.58 C 0 km/h
438 17-10-2020 05:00:00 3.125 C 5.76 g/m*3 3.13 C 0 km/h
439 17-10-2020 06:00:00 3.23333 C 5.8 g/m*3 3.23 C 0 km/h
440 17-10-2020 07:00:00 3.34167 C 5.86 g/m*3 3.34 C 0 km/h
441 17-10-2020 08:00:00 3.80833 C 6.09 g/m*3 3.81 C 0.13333 km/h
442 17-10-2020 09:00:00 4.825 C 6.52 g/m*3 4.83 C 2.4 km/h
443 17-10-2020 10:00:00 5.68333 C 6.9 g/m*3 5.68 C 0.93333 km/h
444 17-10-2020 11:00:00 6.275 C 7.17 g/m*3 6.28 C 0 km/h
445 17-10-2020 12:00:00 7.025 C 7.53 g/m*3 7.03 C 0 km/h
446 17-10-2020 13:00:00 7.54167 C 7.74 g/m*3 7.54 C 0.4 km/h
447 17-10-2020 14:00:00 8.65833 C 7.99 g/m*3 8.66 C 0.13333 km/h
448 17-10-2020 15:00:00 9.66667 C 7.91 g/m*3 9.67 C 1.33333 km/h
449 17-10-2020 16:00:00 9.725 C 7.46 g/m*3 9.73 C 3.48333 km/h
450 17-10-2020 17:00:00 9.36667 C 7.57 g/m*3 9.37 C 0.53333 km/h
Sensor: Nr:Datum:Temp:Abs-Feuchte:Windchill:Wind:
Aussen-T/F 451 17-10-2020 18:00:00 8.68333 C 7.62 g/m*3 8.68 C 1.46667 km/h
452 17-10-2020 19:00:00 7.84167 C 7.41 g/m*3 7.84 C 1.86667 km/h
453 17-10-2020 20:00:00 7.39167 C 7.29 g/m*3 7.39 C 2.4 km/h
454 17-10-2020 21:00:00 6.61667 C 6.98 g/m*3 6.62 C 2 km/h
455 17-10-2020 22:00:00 6.30833 C 6.96 g/m*3 6.31 C 0 km/h
456 17-10-2020 23:00:00 5.90833 C 6.82 g/m*3 5.91 C 0 km/h
457 18-10-2020 00:00:00 5.975 C 6.88 g/m*3 5.98 C 0 km/h
458 18-10-2020 01:00:00 6.15 C 7.01 g/m*3 6.15 C 0.26667 km/h
459 18-10-2020 02:00:00 6.24167 C 7.08 g/m*3 6.24 C 1.86667 km/h
460 18-10-2020 03:00:00 6.31667 C 7.11 g/m*3 6.32 C 2.13333 km/h
461 18-10-2020 04:00:00 6.4 C 7.12 g/m*3 6.4 C 2 km/h
462 18-10-2020 05:00:00 6.29167 C 7.07 g/m*3 6.29 C 1.06667 km/h
463 18-10-2020 06:00:00 6.375 C 7.14 g/m*3 6.38 C 0.8 km/h
464 18-10-2020 07:00:00 6.43333 C 7.17 g/m*3 6.43 C 0.8 km/h
465 18-10-2020 08:00:00 6.48333 C 7.19 g/m*3 6.48 C 1.2 km/h
466 18-10-2020 09:00:00 6.93333 C 7.31 g/m*3 6.93 C 4.93333 km/h
467 18-10-2020 10:00:00 7.49167 C 7.43 g/m*3 6.62 C 5.88333 km/h
468 18-10-2020 11:00:00 7.95833 C 7.44 g/m*3 6.89 C 6.84167 km/h
469 18-10-2020 12:00:00 8.89167 C 7.73 g/m*3 8.01 C 6.71667 km/h
470 18-10-2020 13:00:00 10.125 C 8 g/m*3 9.28 C 7.39167 km/h
471 18-10-2020 14:00:00 10.475 C 7.94 g/m*3 9.58 C 7.925 km/h
472 18-10-2020 15:00:00 10.79167 C 8.01 g/m*3 10.31 C 6.29167 km/h
473 18-10-2020 16:00:00 10.79167 C 8.08 g/m*3 10.79 C 4.01667 km/h
474 18-10-2020 17:00:00 10.68333 C 8.15 g/m*3 10.68 C 2.55 km/h
475 18-10-2020 18:00:00 9.91667 C 8.04 g/m*3 9.92 C 2.93333 km/h
Sensor: Nr:Datum:Temp:Abs-Feuchte:Windchill:Wind:
Aussen-T/F 476 18-10-2020 19:00:00 9.28333 C 7.91 g/m*3 9.28 C 2 km/h
477 18-10-2020 20:00:00 9.20833 C 7.95 g/m*3 9.21 C 2.26667 km/h
478 18-10-2020 21:00:00 9.225 C 7.97 g/m*3 9.23 C 1.2 km/h
479 18-10-2020 22:00:00 9.05 C 8.01 g/m*3 9.05 C 1.06667 km/h
480 18-10-2020 23:00:00 9.05833 C 8 g/m*3 9.06 C 1.73333 km/h
481 19-10-2020 00:00:00 8.875 C 7.99 g/m*3 8.88 C 0.13333 km/h
482 19-10-2020 01:00:00 8.66667 C 7.96 g/m*3 8.67 C 0.93333 km/h
483 19-10-2020 02:00:00 8.65833 C 7.96 g/m*3 8.66 C 0.4 km/h
484 19-10-2020 03:00:00 8.34167 C 7.86 g/m*3 8.34 C 0.26667 km/h
485 19-10-2020 04:00:00 8.23333 C 7.89 g/m*3 8.23 C 0.93333 km/h
486 19-10-2020 05:00:00 8.18333 C 7.86 g/m*3 8.18 C 0.8 km/h
487 19-10-2020 06:00:00 7.70833 C 7.63 g/m*3 7.71 C 1.2 km/h
488 19-10-2020 07:00:00 7.40833 C 7.54 g/m*3 7.41 C 0 km/h
489 19-10-2020 08:00:00 7.45833 C 7.6 g/m*3 7.46 C 0 km/h
490 19-10-2020 09:00:00 8.09167 C 7.96 g/m*3 8.09 C 0 km/h
491 19-10-2020 10:00:00 7.83333 C 7.77 g/m*3 7.83 C 1.33333 km/h
492 19-10-2020 11:00:00 8.6 C 8.23 g/m*3 8.6 C 2.26667 km/h
493 19-10-2020 12:00:00 9.83333 C 8.86 g/m*3 9.83 C 0 km/h
494 19-10-2020 13:00:00 10.53333 C 9.14 g/m*3 10.53 C 1.33333 km/h
495 19-10-2020 14:00:00 11.93333 C 9.61 g/m*3 11.93 C 0 km/h
496 19-10-2020 15:00:00 12.95833 C 9.05 g/m*3 12.96 C 0.53333 km/h
497 19-10-2020 16:00:00 12.53333 C 9.06 g/m*3 12.53 C 3.6 km/h
498 19-10-2020 17:00:00 10.94167 C 8.24 g/m*3 10.55 C 6.00833 km/h
499 19-10-2020 18:00:00 8.60833 C 7.52 g/m*3 8.61 C 4.93333 km/h
500 19-10-2020 19:00:00 7.38333 C 7.2 g/m*3 6.72 C 5.2 km/h
Sensor: Nr:Datum:Temp:Abs-Feuchte:Windchill:Wind:
Aussen-T/F 501 19-10-2020 20:00:00 6.75 C 6.96 g/m*3 5.73 C 6.00833 km/h
502 19-10-2020 21:00:00 6.44167 C 6.87 g/m*3 5.69 C 5.06667 km/h
503 19-10-2020 22:00:00 5.76667 C 6.62 g/m*3 5.77 C 0.26667 km/h
504 19-10-2020 23:00:00 5.28333 C 6.49 g/m*3 5.28 C 1.46667 km/h
505 20-10-2020 00:00:00 5.20833 C 6.52 g/m*3 5.21 C 2.93333 km/h
506 20-10-2020 01:00:00 5.15833 C 6.48 g/m*3 5.16 C 3.06667 km/h
507 20-10-2020 02:00:00 5.14167 C 6.41 g/m*3 5.14 C 2.26667 km/h
508 20-10-2020 03:00:00 4.9 C 6.37 g/m*3 4.9 C 2.66667 km/h
509 20-10-2020 04:00:00 4.63333 C 6.29 g/m*3 4.63 C 2.93333 km/h
510 20-10-2020 05:00:00 4.98333 C 6.49 g/m*3 4.98 C 1.2 km/h
511 20-10-2020 06:00:00 5.6 C 6.78 g/m*3 5.6 C 0.87273 km/h
512 20-10-2020 07:00:00 5.825 C 6.87 g/m*3 5.83 C 0.4 km/h
513 20-10-2020 08:00:00 5.93333 C 6.89 g/m*3 5.93 C 0.53333 km/h
514 20-10-2020 09:00:00 6.66667 C 7.28 g/m*3 6.67 C 0.8 km/h
515 20-10-2020 10:00:00 8.1 C 7.93 g/m*3 8.1 C 0.93333 km/h
516 20-10-2020 11:00:00 9.83333 C 8.72 g/m*3 9.83 C 0.13333 km/h
517 20-10-2020 12:00:00 11.45 C 9.45 g/m*3 11.45 C 0 km/h
518 20-10-2020 13:00:00 11.775 C 9.65 g/m*3 11.78 C 0.4 km/h
519 20-10-2020 14:00:00 11.89167 C 9.74 g/m*3 11.89 C 0.4 km/h
520 20-10-2020 15:00:00 12.55833 C 10.03 g/m*3 12.56 C 0.13333 km/h
521 20-10-2020 16:00:00 12.44167 C 9.98 g/m*3 12.44 C 0.4 km/h
522 20-10-2020 17:00:00 12.075 C 9.84 g/m*3 12.08 C 0.8 km/h
523 20-10-2020 18:00:00 11.76667 C 9.74 g/m*3 11.77 C 0.93333 km/h
524 20-10-2020 19:00:00 11.7 C 9.81 g/m*3 11.7 C 2.66667 km/h
525 20-10-2020 20:00:00 11.9 C 9.92 g/m*3 11.9 C 2 km/h
Sensor: Nr:Datum:Temp:Abs-Feuchte:Windchill:Wind:
Aussen-T/F 526 20-10-2020 21:00:00 11.76667 C 9.74 g/m*3 11.77 C 1.33333 km/h
527 20-10-2020 22:00:00 11.6 C 9.67 g/m*3 11.6 C 1.86667 km/h
528 20-10-2020 23:00:00 11.78333 C 9.78 g/m*3 11.78 C 0.8 km/h
529 21-10-2020 00:00:00 11.84167 C 9.84 g/m*3 11.84 C 0 km/h
530 21-10-2020 01:00:00 11.69167 C 9.87 g/m*3 11.69 C 0 km/h
531 21-10-2020 02:00:00 11.40833 C 9.76 g/m*3 11.41 C 1.73333 km/h
532 21-10-2020 03:00:00 11.3 C 9.69 g/m*3 11.3 C 2.53333 km/h
533 21-10-2020 04:00:00 11.36667 C 9.72 g/m*3 11.37 C 2.66667 km/h
534 21-10-2020 05:00:00 11.79167 C 9.79 g/m*3 11.79 C 2.93333 km/h
535 21-10-2020 06:00:00 11.95833 C 9.85 g/m*3 11.96 C 3.6 km/h
536 21-10-2020 07:00:00 12.10833 C 9.88 g/m*3 12.11 C 2 km/h
537 21-10-2020 08:00:00 12.11667 C 10.06 g/m*3 12.12 C 1.86667 km/h
538 21-10-2020 09:00:00 12.125 C 10.15 g/m*3 12.13 C 0 km/h
539 21-10-2020 10:00:00 12.59167 C 10.45 g/m*3 12.59 C 0 km/h
540 21-10-2020 11:00:00 14.15833 C 10.68 g/m*3 14.16 C 0.93333 km/h
541 21-10-2020 12:00:00 16.85833 C 10.63 g/m*3 16.86 C 2.81667 km/h
542 21-10-2020 13:00:00 18.94167 C 9.78 g/m*3 18.94 C 5.08333 km/h
543 21-10-2020 14:00:00 19.85833 C 10.7 g/m*3 19.86 C 5.35833 km/h
544 21-10-2020 15:00:00 21.1 C 10.32 g/m*3 21.1 C 11.13333 km/h
545 21-10-2020 16:00:00 20.99167 C 10.41 g/m*3 20.99 C 9.54167 km/h
546 21-10-2020 17:00:00 20.175 C 10.97 g/m*3 20.18 C 5.21667 km/h
547 21-10-2020 18:00:00 18.21667 C 11.1 g/m*3 18.22 C 4.15 km/h
548 21-10-2020 19:00:00 16.75 C 10.88 g/m*3 16.75 C 4.95 km/h
549 21-10-2020 20:00:00 17.23333 C 11.31 g/m*3 17.23 C 5.89167 km/h
550 21-10-2020 21:00:00 16.08333 C 11.33 g/m*3 16.08 C 3.6 km/h
Sensor: Nr:Datum:Temp:Abs-Feuchte:Windchill:Wind:
Aussen-T/F 551 21-10-2020 22:00:00 15.63333 C 11.58 g/m*3 15.63 C 3.73333 km/h
552 21-10-2020 23:00:00 15.76667 C 11.55 g/m*3 15.77 C 2.8 km/h
553 22-10-2020 00:00:00 15.55 C 11.52 g/m*3 15.55 C 0.4 km/h
554 22-10-2020 01:00:00 14.975 C 11.41 g/m*3 14.98 C 0.4 km/h
555 22-10-2020 02:00:00 14.6 C 11.32 g/m*3 14.6 C 0 km/h
556 22-10-2020 03:00:00 14.275 C 11.3 g/m*3 14.28 C 0.13333 km/h
557 22-10-2020 04:00:00 14.3 C 11.43 g/m*3 14.3 C 1.73333 km/h
558 22-10-2020 05:00:00 14.33333 C 11.44 g/m*3 14.33 C 0.93333 km/h
559 22-10-2020 06:00:00 14.30833 C 11.35 g/m*3 14.31 C 1.46667 km/h
560 22-10-2020 07:00:00 14.14167 C 11.32 g/m*3 14.14 C 0.4 km/h
561 22-10-2020 08:00:00 13.95833 C 11.17 g/m*3 13.96 C 0.66667 km/h
562 22-10-2020 09:00:00 14.85833 C 11.71 g/m*3 14.86 C 0.66667 km/h
563 22-10-2020 10:00:00 15.275 C 11.84 g/m*3 15.28 C 0.93333 km/h
564 22-10-2020 11:00:00 16.60833 C 11.93 g/m*3 16.61 C 7.24167 km/h
565 22-10-2020 12:00:00 17.36667 C 11.93 g/m*3 17.37 C 6.31667 km/h
566 22-10-2020 13:00:00 18.7 C 11.94 g/m*3 18.7 C 9.25833 km/h
567 22-10-2020 14:00:00 19.69167 C 12.01 g/m*3 19.69 C 10.74167 km/h
568 22-10-2020 15:00:00 20.15 C 12.22 g/m*3 20.15 C 10.225 km/h
569 22-10-2020 16:00:00 20.34167 C 12.64 g/m*3 20.34 C 6.3 km/h
570 22-10-2020 17:00:00 19.05833 C 12.85 g/m*3 19.06 C 4.13333 km/h
571 22-10-2020 18:00:00 17.45833 C 12.42 g/m*3 17.46 C 4.53333 km/h
572 22-10-2020 19:00:00 16.05833 C 11.96 g/m*3 16.06 C 4.26667 km/h
573 22-10-2020 20:00:00 15.66667 C 11.84 g/m*3 15.67 C 4.26667 km/h
574 22-10-2020 21:00:00 15.60833 C 11.85 g/m*3 15.61 C 1.33333 km/h
575 22-10-2020 22:00:00 15.6 C 11.97 g/m*3 15.6 C 1.2 km/h
Sensor: Nr:Datum:Temp:Abs-Feuchte:Windchill:Wind:
Aussen-T/F 576 22-10-2020 23:00:00 15.6 C 12.04 g/m*3 15.6 C 0 km/h
577 23-10-2020 00:00:00 15.38333 C 11.95 g/m*3 15.38 C 0 km/h
578 23-10-2020 01:00:00 15.35833 C 11.98 g/m*3 15.36 C 0.13333 km/h
579 23-10-2020 02:00:00 15.525 C 12.03 g/m*3 15.53 C 0.26667 km/h
580 23-10-2020 03:00:00 15.6 C 12.1 g/m*3 15.6 C 0.53333 km/h
581 23-10-2020 04:00:00 15.80833 C 12.03 g/m*3 15.81 C 2.26667 km/h
582 23-10-2020 05:00:00 16.05833 C 12.03 g/m*3 16.06 C 2.00833 km/h
583 23-10-2020 06:00:00 15.78333 C 11.89 g/m*3 15.78 C 0.66667 km/h
584 23-10-2020 07:00:00 15.11667 C 11.84 g/m*3 15.12 C 0.8 km/h
585 23-10-2020 08:00:00 14.76667 C 11.84 g/m*3 14.77 C 0 km/h
586 23-10-2020 09:00:00 14.65 C 11.89 g/m*3 14.65 C 0 km/h
587 23-10-2020 10:00:00 14.75833 C 12.02 g/m*3 14.76 C 0 km/h
588 23-10-2020 11:00:00 15.25833 C 12.5 g/m*3 15.26 C 0 km/h
589 23-10-2020 12:00:00 15.49167 C 12.67 g/m*3 15.49 C 0.66667 km/h
590 23-10-2020 13:00:00 15.85 C 12.85 g/m*3 15.85 C 1.06667 km/h
591 23-10-2020 14:00:00 16.23333 C 12.99 g/m*3 16.23 C 1.46667 km/h
592 23-10-2020 15:00:00 16.58333 C 12.81 g/m*3 16.58 C 3.06667 km/h
593 23-10-2020 16:00:00 16.55833 C 12.67 g/m*3 16.56 C 2.14167 km/h
594 23-10-2020 17:00:00 15.79167 C 12.36 g/m*3 15.79 C 2.80833 km/h
595 23-10-2020 18:00:00 15.09167 C 11.96 g/m*3 15.09 C 3.06667 km/h
596 23-10-2020 19:00:00 14.19167 C 11.35 g/m*3 14.19 C 4.40833 km/h
597 23-10-2020 20:00:00 13.38333 C 10.92 g/m*3 13.38 C 2.13333 km/h
598 23-10-2020 21:00:00 12.83333 C 10.66 g/m*3 12.83 C 3.08333 km/h
599 23-10-2020 22:00:00 13.175 C 10.96 g/m*3 13.18 C 3.21667 km/h
600 23-10-2020 23:00:00 12.40833 C 10.44 g/m*3 12.41 C 3.89167 km/h
Sensor: Nr:Datum:Temp:Abs-Feuchte:Windchill:Wind:
Aussen-T/F 601 24-10-2020 00:00:00 12.76667 C 10.7 g/m*3 12.77 C 8.06667 km/h
602 24-10-2020 01:00:00 12.65833 C 10.52 g/m*3 12.66 C 6.96667 km/h
603 24-10-2020 02:00:00 12.375 C 10.25 g/m*3 12.38 C 1.6 km/h
604 24-10-2020 03:00:00 11.5 C 9.78 g/m*3 11.5 C 0.53333 km/h
605 24-10-2020 04:00:00 11.04167 C 9.59 g/m*3 11.04 C 0 km/h
606 24-10-2020 05:00:00 11.03333 C 9.63 g/m*3 11.03 C 1.06667 km/h
607 24-10-2020 06:00:00 11.14167 C 9.7 g/m*3 11.14 C 1.33333 km/h
608 24-10-2020 07:00:00 11.65833 C 10.12 g/m*3 11.66 C 2.28333 km/h
609 24-10-2020 08:00:00 11.96667 C 10.2 g/m*3 11.97 C 9 km/h
610 24-10-2020 09:00:00 13 C 10.14 g/m*3 13 C 18.64167 km/h
611 24-10-2020 10:00:00 13.44167 C 9.98 g/m*3 13.44 C 14.9 km/h
612 24-10-2020 11:00:00 13.36667 C 9.08 g/m*3 13.37 C 18.23333 km/h
613 24-10-2020 12:00:00 14.45 C 9.54 g/m*3 14.45 C 10.075 km/h
614 24-10-2020 13:00:00 15.28333 C 9.87 g/m*3 15.28 C 7.925 km/h
615 24-10-2020 14:00:00 15.28333 C 10.03 g/m*3 15.28 C 7.23333 km/h
616 24-10-2020 15:00:00 15.45833 C 10.15 g/m*3 15.46 C 6.56667 km/h
617 24-10-2020 16:00:00 15.275 C 10.26 g/m*3 15.28 C 4.14167 km/h
618 24-10-2020 17:00:00 15.025 C 10.32 g/m*3 15.03 C 2.94167 km/h
619 24-10-2020 18:00:00 14.575 C 10.27 g/m*3 14.58 C 3.06667 km/h
620 24-10-2020 19:00:00 14.26667 C 10.31 g/m*3 14.27 C 3.20833 km/h
621 24-10-2020 20:00:00 14.26667 C 10.36 g/m*3 14.27 C 5.08333 km/h
622 24-10-2020 21:00:00 14.10833 C 10.43 g/m*3 14.11 C 3.06667 km/h
623 24-10-2020 22:00:00 13.94167 C 10.43 g/m*3 13.94 C 3.75 km/h
624 24-10-2020 23:00:00 13.90833 C 10.4 g/m*3 13.91 C 3.88333 km/h
625 25-10-2020 00:00:00 14.18333 C 10.4 g/m*3 14.18 C 4.54167 km/h
Sensor: Nr:Datum:Temp:Abs-Feuchte:Windchill:Wind:
Aussen-T/F 626 25-10-2020 01:00:00 14.3 C 10.34 g/m*3 14.3 C 2.53333 km/h
627 25-10-2020 02:00:00 14.43333 C 10.17 g/m*3 14.43 C 4.15 km/h
628 25-10-2020 04:00:00 13.42174 C 9.68 g/m*3 13.42 C 4.19565 km/h
629 25-10-2020 05:00:00 12.83077 C 9.47 g/m*3 12.83 C 2.09231 km/h
630 25-10-2020 06:00:00 11.9 C 9.24 g/m*3 11.9 C 0.66667 km/h
631 25-10-2020 07:00:00 11.76667 C 9.29 g/m*3 11.77 C 2.80833 km/h
632 25-10-2020 08:00:00 13.05 C 9.43 g/m*3 13.05 C 2.66667 km/h
633 25-10-2020 09:00:00 13.775 C 9.61 g/m*3 13.78 C 2.66667 km/h
634 25-10-2020 10:00:00 14.6 C 9.69 g/m*3 14.6 C 4.13333 km/h
635 25-10-2020 11:00:00 15.275 C 9.84 g/m*3 15.28 C 4.14167 km/h
636 25-10-2020 12:00:00 15.55833 C 10.1 g/m*3 15.56 C 3.06667 km/h
637 25-10-2020 13:00:00 15.95 C 10.32 g/m*3 15.95 C 5.49167 km/h
638 25-10-2020 14:00:00 15.7 C 10.63 g/m*3 15.7 C 3.48333 km/h
639 25-10-2020 15:00:00 14.025 C 10.84 g/m*3 14.03 C 0.4 km/h
640 25-10-2020 16:00:00 13.275 C 10.67 g/m*3 13.28 C 1.2 km/h
641 25-10-2020 17:00:00 12.40833 C 10.21 g/m*3 12.41 C 2.8 km/h
642 25-10-2020 18:00:00 11.725 C 9.85 g/m*3 11.73 C 3.075 km/h
643 25-10-2020 19:00:00 11.30833 C 9.59 g/m*3 11.31 C 3.35833 km/h
644 25-10-2020 20:00:00 11.03333 C 9.5 g/m*3 11.03 C 2.66667 km/h
645 25-10-2020 21:00:00 10.76667 C 9.37 g/m*3 10.77 C 0.93333 km/h
646 25-10-2020 22:00:00 10.61667 C 9.32 g/m*3 10.62 C 0.53333 km/h
647 25-10-2020 23:00:00 10.675 C 9.41 g/m*3 10.68 C 0.4 km/h
648 26-10-2020 00:00:00 10.7 C 9.43 g/m*3 10.7 C 1.2 km/h
649 26-10-2020 01:00:00 10.66667 C 9.41 g/m*3 10.67 C 0.26667 km/h
650 26-10-2020 02:00:00 10.65833 C 9.34 g/m*3 10.66 C 1.33333 km/h
Sensor: Nr:Datum:Temp:Abs-Feuchte:Windchill:Wind:
Aussen-T/F 651 26-10-2020 03:00:00 10.65833 C 9.31 g/m*3 10.66 C 0.8 km/h
652 26-10-2020 04:00:00 10.63333 C 9.35 g/m*3 10.63 C 0.26667 km/h
653 26-10-2020 05:00:00 10.675 C 9.41 g/m*3 10.68 C 0.53333 km/h
654 26-10-2020 06:00:00 10.41667 C 9.26 g/m*3 10.42 C 0.93333 km/h
655 26-10-2020 07:00:00 9.99167 C 9.02 g/m*3 9.99 C 4.55 km/h
656 26-10-2020 08:00:00 9.8 C 8.89 g/m*3 9.8 C 4.40833 km/h
657 26-10-2020 09:00:00 10.01667 C 8.82 g/m*3 10.02 C 4.29167 km/h
658 26-10-2020 10:00:00 10.86667 C 8.76 g/m*3 10.15 C 7.39167 km/h
659 26-10-2020 11:00:00 11.60833 C 8.7 g/m*3 11.61 C 6.98333 km/h
660 26-10-2020 12:00:00 11.76667 C 8.42 g/m*3 11.77 C 9.94167 km/h
661 26-10-2020 13:00:00 12.00833 C 8.16 g/m*3 12.01 C 9.28333 km/h
662 26-10-2020 14:00:00 12.18333 C 7.96 g/m*3 12.18 C 7.4 km/h
663 26-10-2020 15:00:00 12.23333 C 7.89 g/m*3 12.23 C 5.625 km/h
664 26-10-2020 16:00:00 12.05 C 8.09 g/m*3 12.05 C 3.875 km/h
665 26-10-2020 17:00:00 10.44167 C 7.9 g/m*3 10.44 C 2.4 km/h
666 26-10-2020 18:00:00 8.625 C 7.45 g/m*3 8.63 C 4.13333 km/h
667 26-10-2020 19:00:00 7.68333 C 7.29 g/m*3 7.68 C 2.26667 km/h
668 26-10-2020 20:00:00 7.625 C 7.33 g/m*3 7.63 C 2 km/h
669 26-10-2020 21:00:00 8.125 C 7.4 g/m*3 8.13 C 3.075 km/h
670 26-10-2020 22:00:00 7.775 C 7.35 g/m*3 7.78 C 2 km/h
671 26-10-2020 23:00:00 7.66667 C 7.38 g/m*3 7.67 C 2.54167 km/h
672 27-10-2020 00:00:00 7.83333 C 7.48 g/m*3 7.83 C 4.01667 km/h
673 27-10-2020 01:00:00 8.39167 C 7.73 g/m*3 8.39 C 2.40833 km/h
674 27-10-2020 02:00:00 9.33333 C 7.87 g/m*3 9.33 C 3.46667 km/h
675 27-10-2020 03:00:00 8.90833 C 7.8 g/m*3 8.91 C 3.475 km/h
Sensor: Nr:Datum:Temp:Abs-Feuchte:Windchill:Wind:
Aussen-T/F 676 27-10-2020 04:00:00 8.84167 C 7.85 g/m*3 8.84 C 2.4 km/h
677 27-10-2020 05:00:00 8.64167 C 7.83 g/m*3 8.64 C 2.4 km/h
678 27-10-2020 06:00:00 7.81667 C 7.51 g/m*3 7.82 C 2.13333 km/h
679 27-10-2020 07:00:00 7.75 C 7.61 g/m*3 7.75 C 1.06667 km/h
680 27-10-2020 08:00:00 9.04167 C 8.2 g/m*3 9.04 C 1.6 km/h
681 27-10-2020 09:00:00 10.38333 C 8.42 g/m*3 10.38 C 2.26667 km/h
682 27-10-2020 10:00:00 11.39167 C 8.56 g/m*3 11.39 C 9.00833 km/h
683 27-10-2020 11:00:00 11.89167 C 8.49 g/m*3 11.89 C 11.675 km/h
684 27-10-2020 12:00:00 12.25 C 8.36 g/m*3 12.25 C 13.15833 km/h
685 27-10-2020 13:00:00 12.625 C 8.29 g/m*3 12.63 C 11.7 km/h
686 27-10-2020 14:00:00 12.85833 C 8.16 g/m*3 12.86 C 9.675 km/h
687 27-10-2020 15:00:00 12.675 C 7.85 g/m*3 12.68 C 9.15 km/h
688 27-10-2020 16:00:00 12.21667 C 7.85 g/m*3 12.22 C 5.49167 km/h
689 27-10-2020 17:00:00 11.21667 C 7.86 g/m*3 11.22 C 1.6 km/h
690 27-10-2020 18:00:00 10.66667 C 7.78 g/m*3 10.67 C 2.675 km/h
691 27-10-2020 19:00:00 11.25833 C 7.78 g/m*3 11.26 C 5.625 km/h
692 27-10-2020 20:00:00 11.3 C 7.91 g/m*3 11.3 C 5.36667 km/h
693 27-10-2020 21:00:00 11.05 C 8.07 g/m*3 11.05 C 2.4 km/h
694 27-10-2020 22:00:00 11.05833 C 8.23 g/m*3 11.06 C 1.46667 km/h
695 27-10-2020 23:00:00 11.28333 C 8.48 g/m*3 11.28 C 1.6 km/h
696 28-10-2020 00:00:00 11.61667 C 8.74 g/m*3 11.62 C 3.06667 km/h
697 28-10-2020 01:00:00 11.7 C 8.91 g/m*3 11.7 C 2.66667 km/h
698 28-10-2020 02:00:00 11.81667 C 9.11 g/m*3 11.82 C 2.4 km/h
699 28-10-2020 03:00:00 11.84167 C 9.34 g/m*3 11.84 C 0.53333 km/h
700 28-10-2020 04:00:00 11.75833 C 9.5 g/m*3 11.76 C 0.53333 km/h
Sensor: Nr:Datum:Temp:Abs-Feuchte:Windchill:Wind:
Aussen-T/F 701 28-10-2020 05:00:00 11.7 C 9.71 g/m*3 11.7 C 0 km/h
702 28-10-2020 06:00:00 11.51667 C 9.72 g/m*3 11.52 C 0.8 km/h
703 28-10-2020 07:00:00 11.26667 C 9.63 g/m*3 11.27 C 1.33333 km/h
704 28-10-2020 08:00:00 11.51667 C 9.87 g/m*3 11.52 C 0.26667 km/h
705 28-10-2020 09:00:00 12.30833 C 10.39 g/m*3 12.31 C 0.26667 km/h
706 28-10-2020 10:00:00 12.64167 C 10.47 g/m*3 12.64 C 2.8 km/h
707 28-10-2020 11:00:00 13.325 C 10.63 g/m*3 13.33 C 8.18333 km/h
708 28-10-2020 12:00:00 14.25833 C 10.08 g/m*3 14.26 C 12.76667 km/h
709 28-10-2020 13:00:00 14.11667 C 8.96 g/m*3 14.12 C 17.03333 km/h
710 28-10-2020 14:00:00 13.99167 C 8.57 g/m*3 13.99 C 16.76667 km/h
711 28-10-2020 15:00:00 13.50833 C 8.34 g/m*3 13.51 C 11.41667 km/h
712 28-10-2020 16:00:00 13.43333 C 8.48 g/m*3 13.43 C 11.55 km/h
713 28-10-2020 17:00:00 12.94167 C 8.48 g/m*3 12.94 C 6.56667 km/h
714 28-10-2020 18:00:00 12.61667 C 8.44 g/m*3 12.62 C 5.61667 km/h
715 28-10-2020 19:00:00 12.65 C 8.42 g/m*3 12.65 C 7.10833 km/h
716 28-10-2020 20:00:00 13.08333 C 8.54 g/m*3 13.08 C 10.60833 km/h
717 28-10-2020 21:00:00 12.94167 C 8.7 g/m*3 12.94 C 8.05833 km/h
718 28-10-2020 22:00:00 12.825 C 8.91 g/m*3 12.83 C 8.70833 km/h
719 28-10-2020 23:00:00 12.99167 C 9.11 g/m*3 12.99 C 17.44167 km/h
720 29-10-2020 00:00:00 12.46667 C 9.24 g/m*3 12.47 C 15.03333 km/h
721 29-10-2020 01:00:00 10.63333 C 8.8 g/m*3 8.92 C 13.15 km/h
722 29-10-2020 02:00:00 9.80833 C 8.58 g/m*3 9.07 C 6.71667 km/h
723 29-10-2020 03:00:00 10.175 C 8.84 g/m*3 8.97 C 9.275 km/h
724 29-10-2020 04:00:00 10.05833 C 8.72 g/m*3 8.9 C 8.86667 km/h
725 29-10-2020 05:00:00 9.88333 C 8.57 g/m*3 8.5 C 9.94167 km/h
Sensor: Nr:Datum:Temp:Abs-Feuchte:Windchill:Wind:
Aussen-T/F 726 29-10-2020 06:00:00 9.95833 C 8.4 g/m*3 8.61 C 9.80833 km/h
727 29-10-2020 07:00:00 9.24167 C 7.92 g/m*3 8.48 C 6.43333 km/h
728 29-10-2020 08:00:00 9.05833 C 7.89 g/m*3 8.04 C 7.375 km/h
729 29-10-2020 09:00:00 9.75833 C 8.11 g/m*3 9.15 C 6.16667 km/h
730 29-10-2020 10:00:00 11.16667 C 8.62 g/m*3 11.17 C 6.175 km/h
731 29-10-2020 11:00:00 11.58333 C 8.77 g/m*3 11.58 C 6.96667 km/h
732 29-10-2020 12:00:00 10.7 C 8.87 g/m*3 10.27 C 6.01667 km/h
733 29-10-2020 13:00:00 10.94167 C 9.31 g/m*3 10.94 C 3.475 km/h
734 29-10-2020 14:00:00 11.61667 C 9.76 g/m*3 11.62 C 5.61667 km/h
735 29-10-2020 15:00:00 11.33333 C 9.64 g/m*3 11.33 C 4.94167 km/h
736 29-10-2020 16:00:00 11.15 C 9.57 g/m*3 11.15 C 6.575 km/h
737 29-10-2020 17:00:00 10.76667 C 9.37 g/m*3 10.77 C 4.55 km/h
738 29-10-2020 18:00:00 10.59167 C 9.27 g/m*3 10.59 C 0.66667 km/h
739 29-10-2020 19:00:00 10.475 C 9.29 g/m*3 10.48 C 0.13333 km/h
740 29-10-2020 20:00:00 10.64167 C 9.39 g/m*3 10.64 C 4.7 km/h
741 29-10-2020 21:00:00 10.88333 C 9.54 g/m*3 10.32 C 6.70833 km/h
742 29-10-2020 22:00:00 11.225 C 9.75 g/m*3 11.23 C 7.10833 km/h
743 29-10-2020 23:00:00 11.56667 C 9.96 g/m*3 11.57 C 5.90833 km/h
744 30-10-2020 00:00:00 11.89167 C 10.16 g/m*3 11.89 C 4.81667 km/h
745 30-10-2020 01:00:00 12.16667 C 10.34 g/m*3 12.17 C 5.35 km/h
746 30-10-2020 02:00:00 12.39167 C 10.5 g/m*3 12.39 C 5.63333 km/h
747 30-10-2020 03:00:00 12.75 C 10.68 g/m*3 12.75 C 7.375 km/h
748 30-10-2020 04:00:00 12.74167 C 10.63 g/m*3 12.74 C 3.48333 km/h
749 30-10-2020 05:00:00 12.68333 C 10.65 g/m*3 12.68 C 4.14167 km/h
750 30-10-2020 06:00:00 12.9 C 10.71 g/m*3 12.9 C 3.74167 km/h
Sensor: Nr:Datum:Temp:Abs-Feuchte:Windchill:Wind:
Aussen-T/F 751 30-10-2020 07:00:00 13.10833 C 10.67 g/m*3 13.11 C 7.11667 km/h
752 30-10-2020 08:00:00 13.3 C 10.71 g/m*3 13.3 C 4.83333 km/h
753 30-10-2020 09:00:00 13.79167 C 10.86 g/m*3 13.79 C 9.01667 km/h
754 30-10-2020 10:00:00 14.525 C 11.09 g/m*3 14.53 C 13.03333 km/h
755 30-10-2020 11:00:00 15.03333 C 11.21 g/m*3 15.03 C 16.23333 km/h
756 30-10-2020 12:00:00 15.14167 C 11.25 g/m*3 15.14 C 13.3 km/h
757 30-10-2020 13:00:00 15.33333 C 11.34 g/m*3 15.33 C 13.03333 km/h
758 30-10-2020 14:00:00 15.30833 C 11.28 g/m*3 15.31 C 6.43333 km/h
759 30-10-2020 15:00:00 15.35833 C 11.15 g/m*3 15.36 C 9 km/h
760 30-10-2020 16:00:00 14.94167 C 11.04 g/m*3 14.94 C 8.05833 km/h
761 30-10-2020 17:00:00 14.29167 C 11.01 g/m*3 14.29 C 5.21667 km/h
762 30-10-2020 18:00:00 13.98333 C 10.97 g/m*3 13.98 C 2 km/h
763 30-10-2020 19:00:00 14.05833 C 10.83 g/m*3 14.06 C 5.76667 km/h
764 30-10-2020 20:00:00 14.26667 C 10.72 g/m*3 14.27 C 10.625 km/h
765 30-10-2020 21:00:00 14.175 C 10.65 g/m*3 14.18 C 9.95833 km/h
766 30-10-2020 22:00:00 13.76667 C 10.42 g/m*3 13.77 C 9.68333 km/h
767 30-10-2020 23:00:00 13.69167 C 10.34 g/m*3 13.69 C 10.21667 km/h
768 31-10-2020 00:00:00 13.70833 C 10.2 g/m*3 13.71 C 9.69167 km/h
769 31-10-2020 01:00:00 13.625 C 10.22 g/m*3 13.63 C 6.69167 km/h
770 31-10-2020 02:00:00 13.58333 C 10.17 g/m*3 13.58 C 6.03333 km/h
771 31-10-2020 03:00:00 13.43333 C 10.13 g/m*3 13.43 C 1.6 km/h
772 31-10-2020 04:00:00 12.75833 C 10.03 g/m*3 12.76 C 0.13333 km/h
773 31-10-2020 05:00:00 12.375 C 9.95 g/m*3 12.38 C 0 km/h
774 31-10-2020 06:00:00 12.15833 C 9.9 g/m*3 12.16 C 0 km/h
775 31-10-2020 07:00:00 12.04167 C 9.88 g/m*3 12.04 C 0 km/h
Sensor: Nr:Datum:Temp:Abs-Feuchte:Windchill:Wind:
Aussen-T/F 776 31-10-2020 08:00:00 12.31667 C 10.08 g/m*3 12.32 C 0.4 km/h
777 31-10-2020 09:00:00 13.25833 C 9.79 g/m*3 13.26 C 3.075 km/h
778 31-10-2020 10:00:00 13.79167 C 9.48 g/m*3 13.79 C 4.69167 km/h
779 31-10-2020 11:00:00 13.66667 C 9.66 g/m*3 13.67 C 3.60833 km/h
780 31-10-2020 12:00:00 14.28333 C 9.8 g/m*3 14.28 C 5.61667 km/h
781 31-10-2020 13:00:00 15.39167 C 10.01 g/m*3 15.39 C 4.68333 km/h
782 31-10-2020 14:00:00 15.73333 C 10.32 g/m*3 15.73 C 4.54167 km/h
783 31-10-2020 15:00:00 14.64167 C 10.29 g/m*3 14.64 C 4.675 km/h
784 31-10-2020 16:00:00 13.46667 C 10.08 g/m*3 13.47 C 4.40833 km/h
785 31-10-2020 17:00:00 12.26667 C 9.59 g/m*3 12.27 C 4.93333 km/h
786 31-10-2020 18:00:00 11.28333 C 9.3 g/m*3 11.28 C 4.26667 km/h
787 31-10-2020 19:00:00 11.4 C 9.44 g/m*3 11.4 C 3.2 km/h
788 31-10-2020 20:00:00 11.98333 C 9.71 g/m*3 11.98 C 1.6 km/h
789 31-10-2020 21:00:00 12.51667 C 9.96 g/m*3 12.52 C 1.2 km/h
790 31-10-2020 22:00:00 12.7 C 10.34 g/m*3 12.7 C 1.73333 km/h
791 31-10-2020 23:00:00 13.05833 C 10.72 g/m*3 13.06 C 6.025 km/h
792 01-11-2020 00:00:00 13.1 C 10.84 g/m*3 13.1 C 2.26667 km/h
793 01-11-2020 01:00:00 13.13333 C 10.91 g/m*3 13.13 C 0.93333 km/h
794 01-11-2020 02:00:00 13.175 C 11.01 g/m*3 13.18 C 1.2 km/h
795 01-11-2020 03:00:00 13.1 C 10.95 g/m*3 13.1 C 0 km/h
796 01-11-2020 04:00:00 13.04167 C 10.92 g/m*3 13.04 C 0 km/h
797 01-11-2020 05:00:00 12.76667 C 10.73 g/m*3 12.77 C 0 km/h
798 01-11-2020 06:00:00 12.51667 C 10.61 g/m*3 12.52 C 0 km/h
799 01-11-2020 07:00:00 12.55 C 10.69 g/m*3 12.55 C 0 km/h
800 01-11-2020 08:00:00 13.10833 C 11.07 g/m*3 13.11 C 0 km/h
Sensor: Nr:Datum:Temp:Abs-Feuchte:Windchill:Wind:
Aussen-T/F 801 01-11-2020 09:00:00 13.875 C 11.62 g/m*3 13.88 C 2.275 km/h
802 01-11-2020 10:00:00 15.05 C 12.19 g/m*3 15.05 C 10.75833 km/h
803 01-11-2020 11:00:00 16.35 C 12.38 g/m*3 16.35 C 4.55833 km/h
804 01-11-2020 12:00:00 16.775 C 12.44 g/m*3 16.77 C 3.48333 km/h
805 01-11-2020 13:00:00 16.94167 C 12.6 g/m*3 16.94 C 8.6 km/h
806 01-11-2020 14:00:00 16.83333 C 12.68 g/m*3 16.83 C 12.23333 km/h
807 01-11-2020 15:00:00 16.71667 C 12.48 g/m*3 16.72 C 16.76667 km/h
808 01-11-2020 16:00:00 16.74167 C 12.48 g/m*3 16.74 C 14.36667 km/h
809 01-11-2020 17:00:00 16.6 C 12.51 g/m*3 16.6 C 10.49167 km/h
810 01-11-2020 18:00:00 16.71667 C 12.6 g/m*3 16.72 C 9.00833 km/h
811 01-11-2020 19:00:00 16.86667 C 12.63 g/m*3 16.87 C 11.025 km/h
812 01-11-2020 20:00:00 16.975 C 12.71 g/m*3 16.98 C 12.48333 km/h
813 01-11-2020 21:00:00 17.125 C 12.77 g/m*3 17.13 C 12.89167 km/h
814 01-11-2020 22:00:00 17.175 C 12.86 g/m*3 17.18 C 8.06667 km/h
815 01-11-2020 23:00:00 17.25833 C 12.93 g/m*3 17.26 C 4.68333 km/h
816 02-11-2020 00:00:00 17.56667 C 13.16 g/m*3 17.57 C 7.65833 km/h
817 02-11-2020 01:00:00 17.90833 C 13.35 g/m*3 17.91 C 13.15833 km/h
818 02-11-2020 02:00:00 18.19167 C 13.45 g/m*3 18.19 C 14.76667 km/h
819 02-11-2020 03:00:00 18.575 C 13.36 g/m*3 18.58 C 13.16667 km/h
820 02-11-2020 04:00:00 18.7 C 13.42 g/m*3 18.7 C 9.95 km/h
821 02-11-2020 05:00:00 18.38333 C 13.6 g/m*3 18.38 C 10.89167 km/h
822 02-11-2020 06:00:00 18.60833 C 13.46 g/m*3 18.61 C 14.23333 km/h
823 02-11-2020 07:00:00 19.01667 C 13.25 g/m*3 19.02 C 18.90833 km/h
824 02-11-2020 08:00:00 19.21667 C 13.14 g/m*3 19.22 C 20.24167 km/h
825 02-11-2020 09:00:00 19.46667 C 13.05 g/m*3 19.47 C 21.04167 km/h
Sensor: Nr:Datum:Temp:Abs-Feuchte:Windchill:Wind:
Aussen-T/F 826 02-11-2020 10:00:00 19.35 C 13.06 g/m*3 19.35 C 14.5 km/h
827 02-11-2020 11:00:00 19.59167 C 13.02 g/m*3 19.59 C 11.83333 km/h
828 02-11-2020 12:00:00 20.23333 C 13.05 g/m*3 20.23 C 13.7 km/h
829 02-11-2020 13:00:00 20.46667 C 12.93 g/m*3 20.47 C 14.9 km/h
830 02-11-2020 14:00:00 20.7 C 12.89 g/m*3 20.7 C 15.96667 km/h
831 02-11-2020 15:00:00 20.93333 C 12.86 g/m*3 20.93 C 15.96667 km/h
832 02-11-2020 16:00:00 20.69167 C 12.7 g/m*3 20.69 C 17.43333 km/h
833 02-11-2020 17:00:00 19.75 C 12.69 g/m*3 19.75 C 12.48333 km/h
834 02-11-2020 18:00:00 19.625 C 12.82 g/m*3 19.63 C 12.35 km/h
835 02-11-2020 19:00:00 19.70833 C 12.91 g/m*3 19.71 C 16.91667 km/h
836 02-11-2020 20:00:00 18.83333 C 12.8 g/m*3 18.83 C 13.55833 km/h
837 02-11-2020 21:00:00 14.275 C 11.17 g/m*3 14.28 C 4.56667 km/h
838 02-11-2020 22:00:00 13.01667 C 10.49 g/m*3 13.02 C 5.9 km/h
839 02-11-2020 23:00:00 11.94167 C 9.89 g/m*3 11.94 C 4.80833 km/h
840 03-11-2020 00:00:00 11.48333 C 9.53 g/m*3 11.48 C 6.43333 km/h
841 03-11-2020 01:00:00 11.38333 C 8.97 g/m*3 11.38 C 6.56667 km/h
842 03-11-2020 02:00:00 11.275 C 8.83 g/m*3 11.28 C 4.68333 km/h
843 03-11-2020 03:00:00 11.48333 C 8.75 g/m*3 11.48 C 6.30833 km/h
844 03-11-2020 04:00:00 11.31667 C 8.71 g/m*3 11.32 C 6.15833 km/h
845 03-11-2020 05:00:00 11 C 8.59 g/m*3 11 C 3.475 km/h
846 03-11-2020 06:00:00 10.71667 C 8.41 g/m*3 10.72 C 3.46667 km/h
847 03-11-2020 07:00:00 10.24167 C 8.25 g/m*3 9.74 C 6.025 km/h
848 03-11-2020 08:00:00 9.46667 C 8.1 g/m*3 9.47 C 2.8 km/h
849 03-11-2020 09:00:00 9.13333 C 8.14 g/m*3 9.13 C 2.26667 km/h
850 03-11-2020 10:00:00 9.56667 C 8.38 g/m*3 9.57 C 4.68333 km/h
Sensor: Nr:Datum:Temp:Abs-Feuchte:Windchill:Wind:
Aussen-T/F 851 03-11-2020 11:00:00 11.00833 C 8.55 g/m*3 11.01 C 8.19167 km/h
852 03-11-2020 12:00:00 12.09167 C 8.54 g/m*3 12.09 C 11.16667 km/h
853 03-11-2020 13:00:00 12.61667 C 8.42 g/m*3 12.62 C 8.74167 km/h
854 03-11-2020 14:00:00 12.65833 C 8.18 g/m*3 12.66 C 6.71667 km/h
855 03-11-2020 15:00:00 12.78333 C 8.08 g/m*3 12.78 C 8.73333 km/h
856 03-11-2020 16:00:00 12.33333 C 7.95 g/m*3 12.33 C 4.01667 km/h
857 03-11-2020 17:00:00 11.59167 C 8.12 g/m*3 11.59 C 4.14167 km/h
858 03-11-2020 18:00:00 10.71667 C 8.47 g/m*3 10.33 C 5.88333 km/h
859 03-11-2020 19:00:00 9.01667 C 8 g/m*3 9.02 C 4.7 km/h
860 03-11-2020 20:00:00 7.69167 C 7.5 g/m*3 7.69 C 2.53333 km/h
861 03-11-2020 21:00:00 6.85 C 7.19 g/m*3 6.85 C 2.66667 km/h
862 03-11-2020 22:00:00 6.24167 C 6.95 g/m*3 6.24 C 2.26667 km/h
863 03-11-2020 23:00:00 5.875 C 6.84 g/m*3 5.88 C 1.06667 km/h
864 04-11-2020 00:00:00 5.08333 C 6.49 g/m*3 5.08 C 1.46667 km/h
865 04-11-2020 01:00:00 5.03333 C 6.5 g/m*3 5.03 C 1.46667 km/h
866 04-11-2020 02:00:00 4.99167 C 6.48 g/m*3 4.99 C 2.4 km/h
867 04-11-2020 03:00:00 4.325 C 6.2 g/m*3 4.33 C 1.33333 km/h
868 04-11-2020 04:00:00 3.74167 C 5.98 g/m*3 3.74 C 0.26667 km/h
869 04-11-2020 05:00:00 3.14167 C 5.75 g/m*3 3.14 C 0.4 km/h
870 04-11-2020 06:00:00 2.8 C 5.63 g/m*3 2.8 C 1.2 km/h
871 04-11-2020 07:00:00 2.54167 C 5.53 g/m*3 2.54 C 0 km/h
872 04-11-2020 08:00:00 2.50833 C 5.53 g/m*3 2.51 C 0 km/h
873 04-11-2020 09:00:00 3.13333 C 5.79 g/m*3 3.13 C 0 km/h
874 04-11-2020 10:00:00 3.525 C 5.95 g/m*3 3.53 C 0 km/h
875 04-11-2020 11:00:00 4.80833 C 6.51 g/m*3 4.81 C 0 km/h
Sensor: Nr:Datum:Temp:Abs-Feuchte:Windchill:Wind:
Aussen-T/F 876 04-11-2020 12:00:00 5.91667 C 7 g/m*3 5.92 C 0.4 km/h
877 04-11-2020 13:00:00 6.68333 C 7.36 g/m*3 6.68 C 3.33333 km/h
878 04-11-2020 14:00:00 7.64167 C 7.82 g/m*3 7.64 C 1.86667 km/h
879 04-11-2020 15:00:00 8.16667 C 7.8 g/m*3 8.17 C 2.4 km/h
880 04-11-2020 16:00:00 7.58333 C 7.37 g/m*3 7.58 C 3.33333 km/h
881 04-11-2020 17:00:00 6.375 C 6.83 g/m*3 6.38 C 0.66667 km/h
882 04-11-2020 18:00:00 5.28333 C 6.41 g/m*3 5.28 C 0.26667 km/h
883 04-11-2020 19:00:00 4.45 C 6.14 g/m*3 4.45 C 0 km/h
884 04-11-2020 20:00:00 3.575 C 5.82 g/m*3 3.58 C 0 km/h
885 04-11-2020 21:00:00 3.04167 C 5.66 g/m*3 3.04 C 0 km/h
886 04-11-2020 22:00:00 2.56667 C 5.49 g/m*3 2.57 C 0 km/h
887 04-11-2020 23:00:00 2.15 C 5.36 g/m*3 2.15 C 0 km/h
888 05-11-2020 00:00:00 1.775 C 5.24 g/m*3 1.78 C 0 km/h
889 05-11-2020 01:00:00 1.75833 C 5.25 g/m*3 1.76 C 0.53333 km/h
890 05-11-2020 02:00:00 2.2 C 5.41 g/m*3 2.2 C 0.4 km/h
891 05-11-2020 03:00:00 2.10833 C 5.37 g/m*3 2.11 C 0.26667 km/h
892 05-11-2020 04:00:00 2.09167 C 5.4 g/m*3 2.09 C 0 km/h
893 05-11-2020 05:00:00 2.24167 C 5.48 g/m*3 2.24 C 0 km/h
894 05-11-2020 06:00:00 2.3 C 5.5 g/m*3 2.3 C 0 km/h
895 05-11-2020 07:00:00 2.38 C 5.53 g/m*3 2.38 C 0.48 km/h
896 05-11-2020 12:00:00 3.76 C 6.07 g/m*3 3.76 C 3.36 km/h
897 05-11-2020 13:00:00 4.19167 C 6.25 g/m*3 4.19 C 2.66667 km/h
898 05-11-2020 14:00:00 4.2 C 6.25 g/m*3 4.2 C 2.93333 km/h
899 05-11-2020 15:00:00 4.43333 C 6.37 g/m*3 4.43 C 2 km/h
900 05-11-2020 16:00:00 4.39167 C 6.33 g/m*3 4.39 C 0 km/h
Sensor: Nr:Datum:Temp:Abs-Feuchte:Windchill:Wind:
Aussen-T/F 901 05-11-2020 17:00:00 4.18333 C 6.24 g/m*3 4.18 C 0.4 km/h
902 05-11-2020 18:00:00 3.79167 C 6.08 g/m*3 3.79 C 0.4 km/h
903 05-11-2020 19:00:00 3.39167 C 5.92 g/m*3 3.39 C 0 km/h
904 05-11-2020 20:00:00 3.325 C 5.89 g/m*3 3.33 C 0 km/h
905 05-11-2020 21:00:00 3.26667 C 5.87 g/m*3 3.27 C 0.93333 km/h
906 05-11-2020 22:00:00 3.23333 C 5.87 g/m*3 3.23 C 0 km/h
907 05-11-2020 23:00:00 3.31667 C 5.9 g/m*3 3.32 C 0.8 km/h
908 06-11-2020 00:00:00 3.075 C 5.8 g/m*3 3.08 C 0.66667 km/h
909 06-11-2020 01:00:00 2.675 C 5.65 g/m*3 2.68 C 1.6 km/h
910 06-11-2020 02:00:00 2.56667 C 5.63 g/m*3 2.57 C 1.46667 km/h
911 06-11-2020 03:00:00 2.65833 C 5.64 g/m*3 2.66 C 0.53333 km/h
912 06-11-2020 04:00:00 2.5 C 5.62 g/m*3 2.5 C 0.8 km/h
913 06-11-2020 05:00:00 2.48333 C 5.59 g/m*3 2.48 C 0.66667 km/h
914 06-11-2020 06:00:00 2.61667 C 5.66 g/m*3 2.62 C 0.26667 km/h
915 06-11-2020 07:00:00 2.54167 C 5.65 g/m*3 2.54 C 0.4 km/h
916 06-11-2020 08:00:00 2.54167 C 5.65 g/m*3 2.54 C 0.26667 km/h
917 06-11-2020 09:00:00 3.03333 C 5.84 g/m*3 3.03 C 0 km/h
918 06-11-2020 10:00:00 3.61667 C 6.07 g/m*3 3.62 C 0.53333 km/h
919 06-11-2020 11:00:00 4.11667 C 6.28 g/m*3 4.12 C 1.46667 km/h
920 06-11-2020 12:00:00 4.35 C 6.38 g/m*3 4.35 C 1.6 km/h
921 06-11-2020 13:00:00 5.11667 C 6.71 g/m*3 5.12 C 1.73333 km/h
922 06-11-2020 14:00:00 6.00833 C 7.12 g/m*3 6.01 C 3.86667 km/h
923 06-11-2020 15:00:00 6.35 C 7.28 g/m*3 6.35 C 3.73333 km/h
924 06-11-2020 16:00:00 5.65 C 6.95 g/m*3 5.65 C 3.6 km/h
925 06-11-2020 17:00:00 4.5 C 6.39 g/m*3 4.5 C 4.13333 km/h
Sensor: Nr:Datum:Temp:Abs-Feuchte:Windchill:Wind:
Aussen-T/F 926 06-11-2020 18:00:00 3.39167 C 5.91 g/m*3 3.39 C 1.06667 km/h
927 06-11-2020 19:00:00 2.425 C 5.49 g/m*3 2.42 C 0 km/h
928 06-11-2020 20:00:00 1.875 C 5.29 g/m*3 1.88 C 0 km/h
929 06-11-2020 21:00:00 1.45833 C 5.14 g/m*3 1.46 C 0 km/h
930 06-11-2020 22:00:00 1.24167 C 5.07 g/m*3 1.24 C 0 km/h
931 06-11-2020 23:00:00 0.89167 C 4.95 g/m*3 0.89 C 0 km/h
932 07-11-2020 00:00:00 0.79167 C 4.91 g/m*3 0.79 C 0 km/h
933 07-11-2020 01:00:00 0.64167 C 4.89 g/m*3 0.64 C 0 km/h
934 07-11-2020 02:00:00 0.50833 C 4.85 g/m*3 0.51 C 0 km/h
935 07-11-2020 03:00:00 0.39167 C 4.83 g/m*3 0.39 C 0 km/h
936 07-11-2020 04:00:00 0.36667 C 4.82 g/m*3 0.37 C 0 km/h
937 07-11-2020 05:00:00 0.3 C 4.8 g/m*3 0.3 C 0 km/h
938 07-11-2020 06:00:00 0.3 C 4.8 g/m*3 0.3 C 0 km/h
939 07-11-2020 07:00:00 0.30833 C 4.8 g/m*3 0.31 C 0 km/h
940 07-11-2020 08:00:00 0.71667 C 4.94 g/m*3 0.72 C 0 km/h
941 07-11-2020 09:00:00 1.48 C 5.2 g/m*3 1.48 C 0 km/h
942 07-11-2020 10:00:00 2.775 C 5.72 g/m*3 2.78 C 0.26667 km/h
943 07-11-2020 11:00:00 4.875 C 6.6 g/m*3 4.88 C 1.6 km/h
944 07-11-2020 12:00:00 6.59167 C 7.39 g/m*3 6.59 C 3.73333 km/h
945 07-11-2020 13:00:00 7.81667 C 8.01 g/m*3 7.82 C 3.6 km/h
946 07-11-2020 14:00:00 8.89167 C 8.58 g/m*3 8.89 C 4.8 km/h
947 07-11-2020 15:00:00 9.68333 C 8.87 g/m*3 9.68 C 4 km/h
948 07-11-2020 16:00:00 9.475 C 8.41 g/m*3 9.48 C 2.13333 km/h
949 07-11-2020 17:00:00 8.09167 C 7.62 g/m*3 8.09 C 2.13333 km/h
950 07-11-2020 18:00:00 7.41667 C 7.4 g/m*3 7.42 C 4.13333 km/h
Sensor: Nr:Datum:Temp:Abs-Feuchte:Windchill:Wind:
Aussen-T/F 951 07-11-2020 19:00:00 6.80833 C 7.12 g/m*3 6.81 C 1.6 km/h
952 07-11-2020 20:00:00 6.3 C 6.91 g/m*3 6.3 C 0 km/h
953 07-11-2020 21:00:00 5.6 C 6.65 g/m*3 5.6 C 0 km/h
954 07-11-2020 22:00:00 4.925 C 6.39 g/m*3 4.93 C 0 km/h
955 07-11-2020 23:00:00 4.225 C 6.13 g/m*3 4.22 C 0 km/h
956 08-11-2020 00:00:00 3.95 C 6.07 g/m*3 3.95 C 0 km/h
957 08-11-2020 01:00:00 3.45833 C 5.88 g/m*3 3.46 C 0 km/h
958 08-11-2020 02:00:00 3.20833 C 5.79 g/m*3 3.21 C 0 km/h
959 08-11-2020 03:00:00 2.84167 C 5.65 g/m*3 2.84 C 0 km/h
960 08-11-2020 04:00:00 2.625 C 5.57 g/m*3 2.63 C 0 km/h
961 08-11-2020 05:00:00 2.59167 C 5.59 g/m*3 2.59 C 0 km/h
962 08-11-2020 06:00:00 2.51667 C 5.56 g/m*3 2.52 C 0 km/h
963 08-11-2020 07:00:00 2.425 C 5.55 g/m*3 2.42 C 0 km/h
964 08-11-2020 08:00:00 2.775 C 5.68 g/m*3 2.78 C 0 km/h
965 08-11-2020 09:00:00 3.93333 C 6.15 g/m*3 3.93 C 0 km/h
966 08-11-2020 10:00:00 5.31667 C 6.79 g/m*3 5.32 C 0 km/h
967 08-11-2020 11:00:00 7.00833 C 7.59 g/m*3 7.01 C 0 km/h
968 08-11-2020 12:00:00 8.80833 C 8.46 g/m*3 8.81 C 0 km/h
969 08-11-2020 13:00:00 10.29167 C 9.07 g/m*3 10.29 C 0 km/h
970 08-11-2020 14:00:00 11.88333 C 9.5 g/m*3 11.88 C 0 km/h
971 08-11-2020 15:00:00 12.73333 C 9.76 g/m*3 12.73 C 0 km/h
972 08-11-2020 16:00:00 12.11667 C 9.5 g/m*3 12.12 C 0 km/h
973 08-11-2020 17:00:00 11.05 C 9.15 g/m*3 11.05 C 0 km/h
974 08-11-2020 18:00:00 10.68333 C 9.11 g/m*3 10.68 C 0 km/h
975 08-11-2020 19:00:00 10.56667 C 9.16 g/m*3 10.57 C 0 km/h
Sensor: Nr:Datum:Temp:Abs-Feuchte:Windchill:Wind:
Aussen-T/F 976 08-11-2020 20:00:00 10.25 C 9.05 g/m*3 10.25 C 0 km/h
977 08-11-2020 21:00:00 9.975 C 8.91 g/m*3 9.98 C 0 km/h
978 08-11-2020 22:00:00 9.61667 C 8.71 g/m*3 9.62 C 0 km/h
979 08-11-2020 23:00:00 9.40833 C 8.61 g/m*3 9.41 C 0 km/h
980 09-11-2020 00:00:00 9.45 C 8.71 g/m*3 9.45 C 0 km/h
981 09-11-2020 01:00:00 9.4 C 8.68 g/m*3 9.4 C 0 km/h
982 09-11-2020 02:00:00 9.35833 C 8.66 g/m*3 9.36 C 0 km/h
983 09-11-2020 03:00:00 9.325 C 8.65 g/m*3 9.32 C 1.34167 km/h
984 09-11-2020 04:00:00 9.19167 C 8.61 g/m*3 9.19 C 0 km/h
985 09-11-2020 05:00:00 8.425 C 8.19 g/m*3 8.43 C 0 km/h
986 09-11-2020 06:00:00 8.3 C 8.15 g/m*3 8.3 C 0 km/h
987 09-11-2020 07:00:00 8.075 C 8.05 g/m*3 8.07 C 0 km/h
988 09-11-2020 08:00:00 8.35 C 8.2 g/m*3 8.35 C 0 km/h
989 09-11-2020 09:00:00 8.96667 C 8.53 g/m*3 8.97 C 0 km/h
990 09-11-2020 10:00:00 9.76667 C 9 g/m*3 9.77 C 0 km/h
991 09-11-2020 11:00:00 11.00833 C 9.81 g/m*3 11.01 C 0 km/h
992 09-11-2020 12:00:00 11.8 C 10.29 g/m*3 11.8 C 0 km/h
993 09-11-2020 13:00:00 13.08333 C 11.07 g/m*3 13.08 C 0 km/h
994 09-11-2020 14:00:00 13.675 C 10.94 g/m*3 13.68 C 0.53333 km/h
995 09-11-2020 15:00:00 13.21667 C 10.69 g/m*3 13.22 C 0.26667 km/h
996 09-11-2020 16:00:00 12.48333 C 10.29 g/m*3 12.48 C 0.26667 km/h
997 09-11-2020 17:00:00 11.51667 C 9.74 g/m*3 11.52 C 2.8 km/h
998 09-11-2020 18:00:00 10.46667 C 9.19 g/m*3 10.47 C 0.8 km/h
999 09-11-2020 19:00:00 9.66667 C 8.79 g/m*3 9.67 C 0 km/h
1000 09-11-2020 20:00:00 9.08333 C 8.51 g/m*3 9.08 C 0.4 km/h
Sensor: Nr:Datum:Temp:Abs-Feuchte:Windchill:Wind:
Aussen-T/F 1001 09-11-2020 21:00:00 8.16667 C 8.02 g/m*3 8.17 C 0 km/h
1002 09-11-2020 22:00:00 7.225 C 7.55 g/m*3 7.23 C 0 km/h
1003 09-11-2020 23:00:00 6.63333 C 7.26 g/m*3 6.63 C 0 km/h
1004 10-11-2020 00:00:00 6.11667 C 7.05 g/m*3 6.12 C 0 km/h
1005 10-11-2020 01:00:00 6.175 C 7.12 g/m*3 6.18 C 0 km/h
1006 10-11-2020 02:00:00 6.06667 C 7.07 g/m*3 6.07 C 0 km/h
1007 10-11-2020 03:00:00 6.1 C 7.09 g/m*3 6.1 C 0 km/h
1008 10-11-2020 04:00:00 6.00833 C 7.04 g/m*3 6.01 C 0 km/h
1009 10-11-2020 05:00:00 5.74167 C 6.92 g/m*3 5.74 C 0 km/h
1010 10-11-2020 06:00:00 5.71667 C 6.91 g/m*3 5.72 C 0 km/h
1011 10-11-2020 07:00:00 5.7 C 6.9 g/m*3 5.7 C 0 km/h
1012 10-11-2020 08:00:00 5.70833 C 6.91 g/m*3 5.71 C 0.13333 km/h
1013 10-11-2020 09:00:00 5.98333 C 7.08 g/m*3 5.98 C 0.13333 km/h
1014 10-11-2020 10:00:00 6.49167 C 7.33 g/m*3 6.49 C 0 km/h
1015 10-11-2020 11:00:00 7.49167 C 7.84 g/m*3 7.49 C 0 km/h
1016 10-11-2020 12:00:00 8.10833 C 8.16 g/m*3 8.11 C 0 km/h
1017 10-11-2020 13:00:00 8.65 C 8.45 g/m*3 8.65 C 0.13333 km/h
1018 10-11-2020 14:00:00 9.78333 C 9.08 g/m*3 9.78 C 0 km/h
1019 10-11-2020 15:00:00 10.25833 C 9.27 g/m*3 10.26 C 0 km/h
1020 10-11-2020 16:00:00 9.625 C 8.84 g/m*3 9.63 C 0 km/h
1021 10-11-2020 17:00:00 7.84167 C 7.84 g/m*3 7.84 C 0 km/h
1022 10-11-2020 18:00:00 6.75 C 7.32 g/m*3 6.75 C 0 km/h
1023 10-11-2020 19:00:00 6.66667 C 7.33 g/m*3 6.67 C 0 km/h
1024 10-11-2020 20:00:00 6.58333 C 7.31 g/m*3 6.58 C 0 km/h
1025 10-11-2020 21:00:00 7.16667 C 7.6 g/m*3 7.17 C 0 km/h
Sensor: Nr:Datum:Temp:Abs-Feuchte:Windchill:Wind:
Aussen-T/F 1026 10-11-2020 22:00:00 7.54167 C 7.79 g/m*3 7.54 C 0 km/h
1027 10-11-2020 23:00:00 7.725 C 7.88 g/m*3 7.73 C 0 km/h
1028 11-11-2020 00:00:00 7.7 C 7.87 g/m*3 7.7 C 0 km/h
1029 11-11-2020 01:00:00 7.76667 C 7.9 g/m*3 7.77 C 0 km/h
1030 11-11-2020 02:00:00 7.76667 C 7.9 g/m*3 7.77 C 0 km/h
1031 11-11-2020 03:00:00 7.79167 C 7.91 g/m*3 7.79 C 0 km/h
1032 11-11-2020 04:00:00 7.825 C 7.93 g/m*3 7.83 C 0 km/h
1033 11-11-2020 05:00:00 7.89167 C 7.96 g/m*3 7.89 C 0 km/h
1034 11-11-2020 06:00:00 7.9 C 7.97 g/m*3 7.9 C 0 km/h
1035 11-11-2020 07:00:00 7.91667 C 7.98 g/m*3 7.92 C 0 km/h
1036 11-11-2020 08:00:00 8.08333 C 8.06 g/m*3 8.08 C 0 km/h
1037 11-11-2020 09:00:00 8.40833 C 8.23 g/m*3 8.41 C 0 km/h
1038 11-11-2020 10:00:00 9.05 C 8.54 g/m*3 9.05 C 0.53333 km/h
1039 11-11-2020 11:00:00 9.9 C 8.8 g/m*3 8.97 C 7.64167 km/h
1040 11-11-2020 12:00:00 10 C 8.74 g/m*3 10 C 1.46667 km/h
1041 11-11-2020 13:00:00 10.69167 C 9.05 g/m*3 10.69 C 2.675 km/h
1042 11-11-2020 14:00:00 11.29167 C 9.24 g/m*3 11.29 C 2.66667 km/h
1043 11-11-2020 15:00:00 11.28333 C 9.16 g/m*3 11.28 C 5.89167 km/h
1044 11-11-2020 16:00:00 10.95833 C 9.08 g/m*3 10.96 C 4.69167 km/h
1045 11-11-2020 17:00:00 10.45833 C 8.8 g/m*3 10.46 C 4.15833 km/h
1046 11-11-2020 18:00:00 9.675 C 8.47 g/m*3 8.5 C 8.59167 km/h
1047 11-11-2020 19:00:00 9.05 C 8.23 g/m*3 7.41 C 10.46667 km/h
1048 11-11-2020 20:00:00 8.775 C 8.08 g/m*3 8.78 C 3.6 km/h
1049 11-11-2020 21:00:00 8.7 C 8.09 g/m*3 8.7 C 1.06667 km/h
1050 11-11-2020 22:00:00 8.76667 C 8.16 g/m*3 8.77 C 0.13333 km/h
Sensor: Nr:Datum:Temp:Abs-Feuchte:Windchill:Wind:
Aussen-T/F 1051 11-11-2020 23:00:00 8.8 C 8.18 g/m*3 8.8 C 0 km/h
1052 12-11-2020 00:00:00 8.81667 C 8.19 g/m*3 8.82 C 0.8 km/h
1053 12-11-2020 01:00:00 8.89167 C 8.23 g/m*3 8.89 C 0.26667 km/h
1054 12-11-2020 02:00:00 8.9 C 8.23 g/m*3 8.9 C 0 km/h
1055 12-11-2020 03:00:00 8.9 C 8.23 g/m*3 8.9 C 0 km/h
1056 12-11-2020 04:00:00 8.925 C 8.32 g/m*3 8.93 C 0 km/h
1057 12-11-2020 05:00:00 8.88333 C 8.31 g/m*3 8.88 C 0 km/h
1058 12-11-2020 06:00:00 9.19167 C 8.39 g/m*3 9.19 C 3.33333 km/h
1059 12-11-2020 07:00:00 9.6 C 8.44 g/m*3 9.6 C 4.54167 km/h
1060 12-11-2020 08:00:00 9.975 C 8.54 g/m*3 9.98 C 2.4 km/h
1061 12-11-2020 09:00:00 10.49167 C 8.76 g/m*3 10.49 C 3.46667 km/h
1062 12-11-2020 10:00:00 11.175 C 9.08 g/m*3 11.18 C 1.86667 km/h
1063 12-11-2020 11:00:00 11.86667 C 9.4 g/m*3 11.87 C 2.68333 km/h
1064 12-11-2020 12:00:00 12.00833 C 9.22 g/m*3 12.01 C 10.625 km/h
1065 12-11-2020 13:00:00 12.30833 C 8.97 g/m*3 12.31 C 11.69167 km/h
1066 12-11-2020 14:00:00 12.475 C 8.93 g/m*3 12.48 C 6.98333 km/h
1067 12-11-2020 15:00:00 12.11667 C 8.93 g/m*3 12.12 C 4.275 km/h
1068 12-11-2020 16:00:00 11.525 C 8.34 g/m*3 11.53 C 6.55833 km/h
1069 12-11-2020 17:00:00 9.48333 C 7.89 g/m*3 9.07 C 5.33333 km/h
1070 12-11-2020 18:00:00 8.26667 C 7.57 g/m*3 8.27 C 4.8 km/h
1071 12-11-2020 19:00:00 7.40833 C 7.24 g/m*3 7.41 C 1.06667 km/h
1072 12-11-2020 20:00:00 6.775 C 7.12 g/m*3 6.78 C 2.26667 km/h
1073 12-11-2020 21:00:00 5.9 C 6.72 g/m*3 5.9 C 0.4 km/h
1074 12-11-2020 22:00:00 4.61667 C 6.22 g/m*3 4.62 C 0 km/h
1075 12-11-2020 23:00:00 3.85 C 5.96 g/m*3 3.85 C 0 km/h
Sensor: Nr:Datum:Temp:Abs-Feuchte:Windchill:Wind:
Aussen-T/F 1076 13-11-2020 00:00:00 3.35 C 5.78 g/m*3 3.35 C 0 km/h
1077 13-11-2020 01:00:00 2.89167 C 5.63 g/m*3 2.89 C 0 km/h
1078 13-11-2020 02:00:00 2.375 C 5.45 g/m*3 2.38 C 0.13333 km/h
1079 13-11-2020 03:00:00 2.46667 C 5.51 g/m*3 2.47 C 0 km/h
1080 13-11-2020 04:00:00 2.75833 C 5.63 g/m*3 2.76 C 0.4 km/h
1081 13-11-2020 05:00:00 2.68333 C 5.59 g/m*3 2.68 C 0.53333 km/h
1082 13-11-2020 06:00:00 2.6 C 5.61 g/m*3 2.6 C 0.26667 km/h
1083 13-11-2020 07:00:00 2.63333 C 5.63 g/m*3 2.63 C 0.4 km/h
1084 13-11-2020 08:00:00 2.7 C 5.65 g/m*3 2.7 C 0.53333 km/h
1085 13-11-2020 09:00:00 2.875 C 5.72 g/m*3 2.88 C 1.46667 km/h
1086 13-11-2020 10:00:00 3.38333 C 5.92 g/m*3 3.38 C 0.4 km/h
1087 13-11-2020 11:00:00 4.525 C 6.41 g/m*3 4.53 C 0.53333 km/h
1088 13-11-2020 12:00:00 5.60833 C 6.93 g/m*3 5.61 C 0 km/h
1089 13-11-2020 13:00:00 8.175 C 8.19 g/m*3 8.18 C 0.8 km/h
1090 13-11-2020 14:00:00 9.525 C 8.91 g/m*3 9.53 C 0.26667 km/h
1091 13-11-2020 15:00:00 10.39167 C 9.3 g/m*3 10.39 C 0.4 km/h
1092 13-11-2020 16:00:00 10.68333 C 9.33 g/m*3 10.68 C 0.13333 km/h
1093 13-11-2020 17:00:00 10.775 C 9.38 g/m*3 10.78 C 0.26667 km/h
1094 13-11-2020 18:00:00 11.18333 C 9.57 g/m*3 11.18 C 0.66667 km/h
1095 13-11-2020 19:00:00 11.63333 C 9.81 g/m*3 11.63 C 2.13333 km/h
1096 13-11-2020 20:00:00 11.875 C 9.83 g/m*3 11.88 C 1.33333 km/h
1097 13-11-2020 21:00:00 11.54167 C 9.64 g/m*3 11.54 C 0.4 km/h
1098 13-11-2020 22:00:00 11.30833 C 9.58 g/m*3 11.31 C 0.66667 km/h
1099 13-11-2020 23:00:00 10.91667 C 9.36 g/m*3 10.92 C 0 km/h
1100 14-11-2020 00:00:00 10.45833 C 9.17 g/m*3 10.46 C 0.53333 km/h
Sensor: Nr:Datum:Temp:Abs-Feuchte:Windchill:Wind:
Aussen-T/F 1101 14-11-2020 01:00:00 10.38333 C 9.18 g/m*3 10.38 C 1.06667 km/h
1102 14-11-2020 02:00:00 10.81667 C 9.42 g/m*3 10.82 C 2 km/h
1103 14-11-2020 03:00:00 10.55 C 9.15 g/m*3 10.55 C 2.13333 km/h
1104 14-11-2020 04:00:00 10.01667 C 8.84 g/m*3 10.02 C 3.06667 km/h
1105 14-11-2020 05:00:00 8.975 C 8.24 g/m*3 8.98 C 1.6 km/h
1106 14-11-2020 06:00:00 7.79167 C 7.72 g/m*3 7.79 C 0 km/h
1107 14-11-2020 07:00:00 7.18333 C 7.5 g/m*3 7.18 C 0.26667 km/h
1108 14-11-2020 08:00:00 7.05833 C 7.47 g/m*3 7.06 C 0 km/h
1109 14-11-2020 09:00:00 7.43333 C 7.7 g/m*3 7.43 C 0 km/h
1110 14-11-2020 10:00:00 8.775 C 8.45 g/m*3 8.78 C 0.13333 km/h
1111 14-11-2020 11:00:00 11.16667 C 9.84 g/m*3 11.17 C 0.26667 km/h
1112 14-11-2020 12:00:00 13.025 C 10.51 g/m*3 13.03 C 0.26667 km/h
1113 14-11-2020 13:00:00 14.58333 C 10.54 g/m*3 14.58 C 6.05 km/h
1114 14-11-2020 14:00:00 14.99167 C 10.34 g/m*3 14.99 C 4.00833 km/h
1115 14-11-2020 15:00:00 14.1 C 10.23 g/m*3 14.1 C 3.6 km/h
1116 14-11-2020 16:00:00 13.08333 C 9.94 g/m*3 13.08 C 5.06667 km/h
1117 14-11-2020 17:00:00 11.71667 C 9.41 g/m*3 11.72 C 2.4 km/h
1118 14-11-2020 18:00:00 10.75 C 9.11 g/m*3 10.75 C 0 km/h
1119 14-11-2020 19:00:00 10.19167 C 8.9 g/m*3 10.19 C 2.13333 km/h
1120 14-11-2020 20:00:00 9.41667 C 8.53 g/m*3 9.42 C 0 km/h
1121 14-11-2020 21:00:00 9.50833 C 8.72 g/m*3 9.51 C 0 km/h
1122 14-11-2020 22:00:00 9.48333 C 8.73 g/m*3 9.48 C 0.26667 km/h
1123 14-11-2020 23:00:00 9.64167 C 8.84 g/m*3 9.64 C 1.46667 km/h
1124 15-11-2020 00:00:00 10.375 C 9.28 g/m*3 10.38 C 0.66667 km/h
1125 15-11-2020 01:00:00 10.325 C 9.21 g/m*3 10.33 C 0.93333 km/h
Sensor: Nr:Datum:Temp:Abs-Feuchte:Windchill:Wind:
Aussen-T/F 1126 15-11-2020 02:00:00 10.775 C 9.47 g/m*3 10.78 C 1.2 km/h
1127 15-11-2020 03:00:00 11.08333 C 9.49 g/m*3 11.08 C 0.4 km/h
1128 15-11-2020 04:00:00 10.84167 C 9.32 g/m*3 10.84 C 1.2 km/h
1129 15-11-2020 05:00:00 11.31667 C 9.51 g/m*3 11.32 C 1.875 km/h
1130 15-11-2020 06:00:00 12.19167 C 9.7 g/m*3 12.19 C 3.21667 km/h
1131 15-11-2020 07:00:00 12.20833 C 9.55 g/m*3 12.21 C 2.4 km/h
1132 15-11-2020 08:00:00 11.31667 C 9.29 g/m*3 11.32 C 0 km/h
1133 15-11-2020 09:00:00 11.43333 C 9.51 g/m*3 11.43 C 1.6 km/h
1134 15-11-2020 10:00:00 13.2 C 10.1 g/m*3 13.2 C 2 km/h
1135 15-11-2020 11:00:00 14.93333 C 10.38 g/m*3 14.93 C 6.84167 km/h
1136 15-11-2020 12:00:00 16.325 C 10.57 g/m*3 16.33 C 8.475 km/h
1137 15-11-2020 13:00:00 17.43333 C 10.58 g/m*3 17.43 C 6.98333 km/h
1138 15-11-2020 14:00:00 17.85833 C 10.31 g/m*3 17.86 C 6.43333 km/h
1139 15-11-2020 15:00:00 17.325 C 10.19 g/m*3 17.33 C 4.54167 km/h
1140 15-11-2020 16:00:00 16.125 C 9.96 g/m*3 16.13 C 3.60833 km/h
1141 15-11-2020 17:00:00 15.74167 C 10.04 g/m*3 15.74 C 4.15 km/h
1142 15-11-2020 18:00:00 14.60833 C 10.83 g/m*3 14.61 C 5.21667 km/h
1143 15-11-2020 19:00:00 13.56667 C 10.73 g/m*3 13.57 C 6.15833 km/h
1144 15-11-2020 20:00:00 13.59167 C 10.71 g/m*3 13.59 C 10.05 km/h
1145 15-11-2020 21:00:00 11.79167 C 9.55 g/m*3 11.79 C 6.43333 km/h
1146 15-11-2020 22:00:00 10.93333 C 9.37 g/m*3 10.93 C 2.13333 km/h
1147 15-11-2020 23:00:00 11.21667 C 9.1 g/m*3 11.22 C 9.54167 km/h
1148 16-11-2020 00:00:00 10.75833 C 8.77 g/m*3 10.48 C 5.49167 km/h
1149 16-11-2020 01:00:00 10.78333 C 8.29 g/m*3 9.72 C 9.125 km/h
1150 16-11-2020 02:00:00 10.53333 C 8.12 g/m*3 9.79 C 7.25833 km/h
Sensor: Nr:Datum:Temp:Abs-Feuchte:Windchill:Wind:
Aussen-T/F 1151 16-11-2020 03:00:00 10.81667 C 8.13 g/m*3 9.8 C 8.85833 km/h
1152 16-11-2020 04:00:00 10.85 C 8.24 g/m*3 9.29 C 12.35833 km/h
1153 16-11-2020 05:00:00 10.125 C 8.19 g/m*3 8.2 C 13.96667 km/h
1154 16-11-2020 06:00:00 10.025 C 8.09 g/m*3 8.74 C 9.55 km/h
1155 16-11-2020 07:00:00 9.79167 C 8.06 g/m*3 8.39 C 9.95 km/h
1156 16-11-2020 08:00:00 10.15833 C 8.33 g/m*3 8.65 C 11.01667 km/h
1157 16-11-2020 09:00:00 10.60833 C 8.41 g/m*3 9.21 C 10.9 km/h
1158 16-11-2020 10:00:00 10.78333 C 8.36 g/m*3 8.94 C 14.5 km/h
1159 16-11-2020 11:00:00 11.78333 C 8.62 g/m*3 11.78 C 14.23333 km/h
1160 16-11-2020 12:00:00 12.25 C 9.01 g/m*3 12.25 C 15.3 km/h
1161 16-11-2020 13:00:00 12.525 C 9.28 g/m*3 12.53 C 17.56667 km/h
1162 16-11-2020 14:00:00 12.4 C 9.21 g/m*3 12.4 C 13.43333 km/h
1163 16-11-2020 15:00:00 12.30833 C 9.21 g/m*3 12.31 C 15.03333 km/h
1164 16-11-2020 16:00:00 11.63333 C 9 g/m*3 11.63 C 15.03333 km/h
1165 16-11-2020 17:00:00 11.1 C 8.88 g/m*3 11.1 C 11.01667 km/h
1166 16-11-2020 18:00:00 10.90833 C 8.83 g/m*3 9.33 C 12.63333 km/h
1167 16-11-2020 19:00:00 11.15 C 8.83 g/m*3 11.15 C 9.28333 km/h
1168 16-11-2020 20:00:00 10.78333 C 8.68 g/m*3 10.33 C 6.175 km/h
1169 16-11-2020 21:00:00 9.60833 C 8.15 g/m*3 9.61 C 3.88333 km/h
1170 16-11-2020 22:00:00 8.79167 C 7.88 g/m*3 8.36 C 5.075 km/h
1171 16-11-2020 23:00:00 9.14167 C 8.04 g/m*3 8.14 C 7.38333 km/h
1172 17-11-2020 00:00:00 9.375 C 8.11 g/m*3 8.41 C 7.39167 km/h
1173 17-11-2020 01:00:00 10.025 C 8.27 g/m*3 9.29 C 6.85 km/h
1174 17-11-2020 02:00:00 10.44167 C 8.41 g/m*3 9.1 C 10.35833 km/h
1175 17-11-2020 03:00:00 10.59167 C 8.42 g/m*3 9.18 C 11.025 km/h
Sensor: Nr:Datum:Temp:Abs-Feuchte:Windchill:Wind:
Aussen-T/F 1176 17-11-2020 04:00:00 10.68333 C 8.47 g/m*3 9.22 C 11.43333 km/h
1177 17-11-2020 05:00:00 10.73333 C 8.51 g/m*3 9.35 C 11.01667 km/h
1178 17-11-2020 06:00:00 10.45 C 8.49 g/m*3 9.16 C 10.08333 km/h
1179 17-11-2020 07:00:00 10.60833 C 8.4 g/m*3 10.23 C 5.76667 km/h
1180 17-11-2020 08:00:00 10.7 C 8.45 g/m*3 10.2 C 6.31667 km/h
1181 17-11-2020 09:00:00 11 C 8.59 g/m*3 9.9 C 9.54167 km/h
1182 17-11-2020 10:00:00 11.40833 C 8.71 g/m*3 11.41 C 16.9 km/h
1183 17-11-2020 11:00:00 11.99167 C 8.87 g/m*3 11.99 C 18.76667 km/h
1184 17-11-2020 12:00:00 12.64167 C 9.05 g/m*3 12.64 C 13.7 km/h
1185 17-11-2020 13:00:00 12.825 C 9.09 g/m*3 12.83 C 12.89167 km/h
1186 17-11-2020 14:00:00 13.04167 C 9.11 g/m*3 13.04 C 9.825 km/h
1187 17-11-2020 15:00:00 12.8 C 9.07 g/m*3 12.8 C 8.59167 km/h
1188 17-11-2020 16:00:00 12.65833 C 9.04 g/m*3 12.66 C 9.15 km/h
1189 17-11-2020 17:00:00 12.36667 C 9 g/m*3 12.37 C 5.48333 km/h
1190 17-11-2020 18:00:00 12.25 C 9.01 g/m*3 12.25 C 3.475 km/h
1191 17-11-2020 19:00:00 11.95 C 8.99 g/m*3 11.95 C 1.06667 km/h
1192 17-11-2020 20:00:00 11.85 C 9.08 g/m*3 11.85 C 5.21667 km/h
1193 17-11-2020 21:00:00 11.825 C 9.07 g/m*3 11.83 C 3.88333 km/h
1194 17-11-2020 22:00:00 11.66667 C 9.04 g/m*3 11.67 C 1.875 km/h
1195 17-11-2020 23:00:00 11.58333 C 8.89 g/m*3 11.58 C 3.86667 km/h
1196 18-11-2020 00:00:00 11.53333 C 8.8 g/m*3 11.53 C 2 km/h
1197 18-11-2020 01:00:00 11.35 C 8.78 g/m*3 11.35 C 0 km/h
1198 18-11-2020 02:00:00 11.3 C 8.77 g/m*3 11.3 C 2.66667 km/h
1199 18-11-2020 03:00:00 11.175 C 8.75 g/m*3 11.18 C 1.46667 km/h
1200 18-11-2020 04:00:00 10.95 C 8.68 g/m*3 10.95 C 0.4 km/h
Sensor: Nr:Datum:Temp:Abs-Feuchte:Windchill:Wind:
Aussen-T/F 1201 18-11-2020 05:00:00 10.8 C 8.63 g/m*3 10.8 C 0.26667 km/h
1202 18-11-2020 06:00:00 10.7 C 8.64 g/m*3 10.7 C 0.13333 km/h
1203 18-11-2020 07:00:00 10.7 C 8.67 g/m*3 10.7 C 0 km/h
1204 18-11-2020 08:00:00 10.775 C 8.63 g/m*3 10.78 C 2.66667 km/h
1205 18-11-2020 09:00:00 10.6 C 8.46 g/m*3 10.6 C 1.2 km/h
1206 18-11-2020 10:00:00 9.43333 C 8.13 g/m*3 9.43 C 2.13333 km/h
1207 18-11-2020 11:00:00 9.6 C 8.48 g/m*3 9.6 C 4 km/h
1208 18-11-2020 12:00:00 10.35 C 8.83 g/m*3 10.35 C 2.8 km/h
1209 18-11-2020 13:00:00 10.975 C 9.09 g/m*3 10.98 C 0 km/h
1210 18-11-2020 14:00:00 11.54167 C 9.3 g/m*3 11.54 C 2.13333 km/h
1211 18-11-2020 15:00:00 12.15 C 9.42 g/m*3 12.15 C 4.4 km/h
1212 18-11-2020 16:00:00 11.23333 C 8.95 g/m*3 11.23 C 5.06667 km/h
1213 18-11-2020 17:00:00 9.60833 C 8.25 g/m*3 9.61 C 3.86667 km/h
1214 18-11-2020 18:00:00 8.64167 C 7.93 g/m*3 8.64 C 4.66667 km/h
1215 18-11-2020 19:00:00 8.00833 C 7.69 g/m*3 8.01 C 2.8 km/h
1216 18-11-2020 20:00:00 7.3 C 7.37 g/m*3 7.3 C 0.4 km/h
1217 18-11-2020 21:00:00 6.66667 C 7.13 g/m*3 6.67 C 0.66667 km/h
1218 18-11-2020 22:00:00 6.35 C 7.02 g/m*3 6.35 C 0.4 km/h
1219 18-11-2020 23:00:00 6.00833 C 6.9 g/m*3 6.01 C 0.26667 km/h
1220 19-11-2020 00:00:00 6.94167 C 7.41 g/m*3 6.07 C 5.64167 km/h
1221 19-11-2020 01:00:00 11.14167 C 8.55 g/m*3 11.14 C 13.83333 km/h
1222 19-11-2020 02:00:00 11.925 C 8.76 g/m*3 11.93 C 12.75833 km/h
1223 19-11-2020 03:00:00 10.675 C 8.92 g/m*3 9.32 C 10.75833 km/h
1224 19-11-2020 04:00:00 10.7 C 8.96 g/m*3 9.82 C 8.05 km/h
1225 19-11-2020 05:00:00 10.61667 C 9 g/m*3 9.4 C 9.80833 km/h
Sensor: Nr:Datum:Temp:Abs-Feuchte:Windchill:Wind:
Aussen-T/F 1226 19-11-2020 06:00:00 8.975 C 8.28 g/m*3 8.04 C 6.99167 km/h
1227 19-11-2020 07:00:00 8.475 C 8.05 g/m*3 8.48 C 4.93333 km/h
1228 19-11-2020 08:00:00 7.95 C 7.75 g/m*3 6.92 C 6.69167 km/h
1229 19-11-2020 09:00:00 7.65833 C 7.43 g/m*3 6.21 C 8.19167 km/h
1230 19-11-2020 10:00:00 8.51667 C 7.66 g/m*3 7.38 C 7.51667 km/h
1231 19-11-2020 11:00:00 9.68333 C 7.96 g/m*3 8.49 C 8.73333 km/h
1232 19-11-2020 12:00:00 9.56667 C 8.24 g/m*3 8.7 C 7.10833 km/h
1233 19-11-2020 13:00:00 9.95 C 7.7 g/m*3 8 C 13.825 km/h
1234 19-11-2020 14:00:00 10.55833 C 7.33 g/m*3 8.61 C 14.9 km/h
1235 19-11-2020 15:00:00 10.89167 C 7.14 g/m*3 9.48 C 11.425 km/h
1236 19-11-2020 16:00:00 10.28333 C 7.34 g/m*3 8.76 C 11.3 km/h
1237 19-11-2020 17:00:00 9.43333 C 7.56 g/m*3 9.43 C 2.93333 km/h
1238 19-11-2020 18:00:00 8.63333 C 7.7 g/m*3 8.63 C 4.14167 km/h
1239 19-11-2020 19:00:00 8.01667 C 7.58 g/m*3 7.18 C 6.025 km/h
1240 19-11-2020 20:00:00 7.7 C 7.52 g/m*3 7.7 C 2.4 km/h
1241 19-11-2020 21:00:00 6.65 C 7.08 g/m*3 6.65 C 2.8 km/h
1242 19-11-2020 22:00:00 5.56667 C 6.62 g/m*3 5.57 C 3.73333 km/h
1243 19-11-2020 23:00:00 5.41667 C 6.64 g/m*3 5.42 C 1.33333 km/h
1244 20-11-2020 00:00:00 5.25833 C 6.56 g/m*3 5.26 C 4 km/h
1245 20-11-2020 01:00:00 5.01667 C 6.36 g/m*3 5.02 C 2.80833 km/h
1246 20-11-2020 02:00:00 4.475 C 6.15 g/m*3 4.47 C 2.93333 km/h
1247 20-11-2020 03:00:00 3.00833 C 5.56 g/m*3 3.01 C 0.93333 km/h
1248 20-11-2020 04:00:00 2.49167 C 5.42 g/m*3 2.49 C 0.53333 km/h
1249 20-11-2020 05:00:00 2.825 C 5.61 g/m*3 2.83 C 2.93333 km/h
1250 20-11-2020 06:00:00 3.21667 C 5.79 g/m*3 3.22 C 3.73333 km/h
Sensor: Nr:Datum:Temp:Abs-Feuchte:Windchill:Wind:
Aussen-T/F 1251 20-11-2020 07:00:00 3.65 C 5.96 g/m*3 3.65 C 3.46667 km/h
1252 20-11-2020 08:00:00 3.89167 C 6.06 g/m*3 3.89 C 4.4 km/h
1253 20-11-2020 09:00:00 4.34167 C 6.24 g/m*3 4.34 C 4.4 km/h
1254 20-11-2020 10:00:00 5.06667 C 6.49 g/m*3 3.83 C 5.9 km/h
1255 20-11-2020 11:00:00 5.875 C 6.69 g/m*3 4.68 C 6.14167 km/h
1256 20-11-2020 12:00:00 6.45833 C 6.81 g/m*3 6.46 C 4.26667 km/h
1257 20-11-2020 13:00:00 6.75833 C 6.86 g/m*3 6.76 C 3.60833 km/h
1258 20-11-2020 14:00:00 6.625 C 6.52 g/m*3 5.9 C 5.08333 km/h
1259 20-11-2020 15:00:00 6.78333 C 6.43 g/m*3 6.78 C 1.46667 km/h
1260 20-11-2020 16:00:00 6.825 C 6.56 g/m*3 6.83 C 0 km/h
1261 20-11-2020 17:00:00 5.68333 C 6.25 g/m*3 5.68 C 0.26667 km/h
1262 20-11-2020 18:00:00 3.74167 C 5.61 g/m*3 3.74 C 0.53333 km/h
1263 20-11-2020 19:00:00 2.35 C 5.25 g/m*3 2.35 C 0 km/h
1264 20-11-2020 20:00:00 1.31667 C 4.96 g/m*3 1.32 C 0 km/h
1265 20-11-2020 21:00:00 0.76667 C 4.82 g/m*3 0.77 C 0 km/h
1266 20-11-2020 22:00:00 0.3 C 4.7 g/m*3 0.3 C 0 km/h
1267 20-11-2020 23:00:00 0.275 C 4.7 g/m*3 0.28 C 0.26667 km/h
1268 21-11-2020 00:00:00 0.25 C 4.72 g/m*3 0.25 C 0.66667 km/h
1269 21-11-2020 01:00:00 0.25833 C 4.73 g/m*3 0.26 C 0.66667 km/h
1270 21-11-2020 02:00:00 0.2 C 4.72 g/m*3 0.2 C 0.26667 km/h
1271 21-11-2020 03:00:00 0.24167 C 4.73 g/m*3 0.24 C 0.93333 km/h
1272 21-11-2020 04:00:00 0.14167 C 4.7 g/m*3 0.14 C 1.6 km/h
1273 21-11-2020 05:00:00 0.175 C 4.71 g/m*3 0.18 C 1.2 km/h
1274 21-11-2020 06:00:00 0.24167 C 4.75 g/m*3 0.24 C 0.53333 km/h
1275 21-11-2020 07:00:00 0.31667 C 4.8 g/m*3 0.32 C 0 km/h
Sensor: Nr:Datum:Temp:Abs-Feuchte:Windchill:Wind:
Aussen-T/F 1276 21-11-2020 08:00:00 0.525 C 4.87 g/m*3 0.53 C 0.13333 km/h
1277 21-11-2020 09:00:00 1.14167 C 5.08 g/m*3 1.14 C 0 km/h
1278 21-11-2020 10:00:00 2.175 C 5.45 g/m*3 2.17 C 0.4 km/h
1279 21-11-2020 11:00:00 3.41667 C 5.93 g/m*3 3.42 C 0.4 km/h
1280 21-11-2020 12:00:00 5.40833 C 6.34 g/m*3 3.6 C 8.05833 km/h
1281 21-11-2020 13:00:00 7.15 C 6.14 g/m*3 5.58 C 8.34167 km/h
1282 21-11-2020 14:00:00 7.85 C 6.11 g/m*3 5.97 C 10.5 km/h
1283 21-11-2020 15:00:00 7.99167 C 6 g/m*3 6.35 C 9.39167 km/h
1284 21-11-2020 16:00:00 7.89167 C 6.08 g/m*3 7.89 C 2.94167 km/h
1285 21-11-2020 17:00:00 7.21667 C 6.29 g/m*3 7.22 C 0 km/h
1286 21-11-2020 18:00:00 5.65 C 5.98 g/m*3 5.65 C 2.8 km/h
1287 21-11-2020 19:00:00 4.89167 C 5.91 g/m*3 4.89 C 0.66667 km/h
1288 21-11-2020 20:00:00 4.14167 C 5.68 g/m*3 4.14 C 3.89167 km/h
1289 21-11-2020 21:00:00 4.10833 C 5.65 g/m*3 2.88 C 5.49167 km/h
1290 21-11-2020 22:00:00 4.60833 C 5.84 g/m*3 3.17 C 6.3 km/h
1291 21-11-2020 23:00:00 5.53333 C 6.04 g/m*3 2.72 C 13.03333 km/h
1292 22-11-2020 00:00:00 5.78333 C 6.08 g/m*3 3 C 13.16667 km/h
1293 22-11-2020 01:00:00 5.98333 C 6.16 g/m*3 3.5 C 11.7 km/h
1294 22-11-2020 02:00:00 6.3 C 6.22 g/m*3 3.93 C 11.43333 km/h
1295 22-11-2020 03:00:00 6.30833 C 6.22 g/m*3 3.76 C 12.5 km/h
1296 22-11-2020 04:00:00 6.50833 C 6.23 g/m*3 3.47 C 15.96667 km/h
1297 22-11-2020 05:00:00 6.6 C 6.3 g/m*3 3.85 C 14.1 km/h
1298 22-11-2020 06:00:00 6.80833 C 6.41 g/m*3 4.17 C 13.7 km/h
1299 22-11-2020 07:00:00 6.88333 C 6.44 g/m*3 4.2 C 14.1 km/h
1300 22-11-2020 08:00:00 6.875 C 6.51 g/m*3 4.15 C 14.36667 km/h
Sensor: Nr:Datum:Temp:Abs-Feuchte:Windchill:Wind:
Aussen-T/F 1301 22-11-2020 09:00:00 7.275 C 6.7 g/m*3 4.72 C 13.83333 km/h
1302 22-11-2020 10:00:00 7.625 C 6.81 g/m*3 4.82 C 16.23333 km/h
1303 22-11-2020 11:00:00 8.1 C 6.98 g/m*3 5.7 C 14.1 km/h
1304 22-11-2020 12:00:00 8.45 C 7.09 g/m*3 6.11 C 14.23333 km/h
1305 22-11-2020 13:00:00 8.78333 C 7.22 g/m*3 6.59 C 13.7 km/h
1306 22-11-2020 14:00:00 8.95 C 7.29 g/m*3 7.24 C 10.75833 km/h
1307 22-11-2020 15:00:00 8.975 C 7.32 g/m*3 7.04 C 12.225 km/h
1308 22-11-2020 16:00:00 8.875 C 7.38 g/m*3 7.58 C 8.48333 km/h
1309 22-11-2020 17:00:00 8.73333 C 7.37 g/m*3 7.36 C 8.75 km/h
1310 22-11-2020 18:00:00 8.53333 C 7.27 g/m*3 7.02 C 9.28333 km/h
1311 22-11-2020 19:00:00 8.41667 C 7.25 g/m*3 7.64 C 6.025 km/h
1312 22-11-2020 20:00:00 8.34167 C 7.24 g/m*3 7.48 C 6.29167 km/h
1313 22-11-2020 21:00:00 8.3 C 7.31 g/m*3 7.51 C 6.025 km/h
1314 22-11-2020 22:00:00 8.3 C 7.34 g/m*3 7 C 8.06667 km/h
1315 22-11-2020 23:00:00 8.3 C 7.42 g/m*3 7.55 C 5.9 km/h
1316 23-11-2020 00:00:00 8.21667 C 7.41 g/m*3 6.99 C 7.66667 km/h
1317 23-11-2020 01:00:00 8.1 C 7.43 g/m*3 7.44 C 5.49167 km/h
1318 23-11-2020 02:00:00 8.025 C 7.37 g/m*3 6.93 C 6.98333 km/h
1319 23-11-2020 03:00:00 7.99167 C 7.35 g/m*3 6.69 C 7.8 km/h
1320 23-11-2020 04:00:00 7.83333 C 7.4 g/m*3 6.98 C 6.01667 km/h
1321 23-11-2020 05:00:00 7.81667 C 7.39 g/m*3 7.82 C 4.01667 km/h
1322 23-11-2020 06:00:00 7.79167 C 7.42 g/m*3 6.85 C 6.29167 km/h
1323 23-11-2020 07:00:00 7.69167 C 7.38 g/m*3 6.19 C 8.475 km/h
1324 23-11-2020 08:00:00 7.75833 C 7.44 g/m*3 6.66 C 6.83333 km/h
1325 23-11-2020 09:00:00 7.875 C 7.61 g/m*3 6.87 C 6.55833 km/h
Sensor: Nr:Datum:Temp:Abs-Feuchte:Windchill:Wind:
Aussen-T/F 1326 23-11-2020 10:00:00 8.28333 C 7.74 g/m*3 7.57 C 5.76667 km/h
1327 23-11-2020 11:00:00 8.84167 C 7.86 g/m*3 8.84 C 4.8 km/h
1328 23-11-2020 12:00:00 9.20833 C 7.94 g/m*3 9.21 C 3.73333 km/h
1329 23-11-2020 13:00:00 9.46667 C 7.96 g/m*3 9.47 C 1.46667 km/h
1330 23-11-2020 14:00:00 9.75833 C 7.96 g/m*3 9.76 C 3.86667 km/h
1331 23-11-2020 15:00:00 9.76667 C 7.96 g/m*3 9.77 C 0.26667 km/h
1332 23-11-2020 16:00:00 9.23333 C 7.82 g/m*3 9.23 C 0.13333 km/h
1333 23-11-2020 17:00:00 7.48333 C 7.12 g/m*3 7.48 C 2.66667 km/h
1334 23-11-2020 18:00:00 5.45 C 6.45 g/m*3 5.45 C 0.13333 km/h
1335 23-11-2020 19:00:00 4.73333 C 6.28 g/m*3 4.73 C 0.53333 km/h
1336 23-11-2020 20:00:00 4.69167 C 6.35 g/m*3 4.69 C 0 km/h
1337 23-11-2020 21:00:00 6.075 C 7 g/m*3 6.08 C 0.4 km/h
1338 23-11-2020 22:00:00 6.75833 C 7.32 g/m*3 6.76 C 0.8 km/h
1339 23-11-2020 23:00:00 6.95833 C 7.42 g/m*3 6.96 C 0 km/h
1340 24-11-2020 00:00:00 6.93333 C 7.32 g/m*3 6.93 C 1.33333 km/h
1341 24-11-2020 01:00:00 6.65 C 7.12 g/m*3 6.65 C 0.4 km/h
1342 24-11-2020 02:00:00 6.45 C 6.98 g/m*3 6.45 C 2.40833 km/h
1343 24-11-2020 03:00:00 6.3 C 6.88 g/m*3 6.3 C 1.46667 km/h
1344 24-11-2020 04:00:00 6.05 C 6.81 g/m*3 6.05 C 1.73333 km/h
1345 24-11-2020 05:00:00 5.86667 C 6.76 g/m*3 5.87 C 0.66667 km/h
1346 24-11-2020 06:00:00 5.775 C 6.72 g/m*3 5.78 C 0.4 km/h
1347 24-11-2020 07:00:00 5.6 C 6.65 g/m*3 5.6 C 3.86667 km/h
1348 24-11-2020 08:00:00 5.30833 C 6.52 g/m*3 5.31 C 3.46667 km/h
1349 24-11-2020 09:00:00 5.24167 C 6.49 g/m*3 5.24 C 2.66667 km/h
1350 24-11-2020 10:00:00 5.99167 C 6.78 g/m*3 5.99 C 1.06667 km/h
Sensor: Nr:Datum:Temp:Abs-Feuchte:Windchill:Wind:
Aussen-T/F 1351 24-11-2020 11:00:00 6.675 C 6.93 g/m*3 6.68 C 2.675 km/h
1352 24-11-2020 12:00:00 7.19167 C 6.98 g/m*3 7.19 C 2.93333 km/h
1353 24-11-2020 13:00:00 7.275 C 6.97 g/m*3 7.28 C 4.81667 km/h
1354 24-11-2020 14:00:00 6.93333 C 6.86 g/m*3 6.93 C 4.275 km/h
1355 24-11-2020 15:00:00 6.525 C 6.75 g/m*3 6.53 C 4.00833 km/h
1356 24-11-2020 16:00:00 6.46667 C 6.74 g/m*3 6.47 C 1.06667 km/h
1357 24-11-2020 17:00:00 6.51667 C 6.76 g/m*3 6.52 C 1.06667 km/h
1358 24-11-2020 18:00:00 6.4 C 6.71 g/m*3 6.4 C 1.33333 km/h
1359 24-11-2020 19:00:00 6.4 C 6.73 g/m*3 6.4 C 0.53333 km/h
1360 24-11-2020 20:00:00 6.4 C 6.78 g/m*3 6.4 C 0.26667 km/h
1361 24-11-2020 21:00:00 6.375 C 6.77 g/m*3 6.38 C 0 km/h
1362 24-11-2020 22:00:00 6.3 C 6.75 g/m*3 6.3 C 0 km/h
1363 24-11-2020 23:00:00 6.275 C 6.72 g/m*3 6.28 C 0.26667 km/h
1364 25-11-2020 00:00:00 6.28333 C 6.65 g/m*3 6.28 C 0.4 km/h
1365 25-11-2020 01:00:00 6.175 C 6.61 g/m*3 6.18 C 0 km/h
1366 25-11-2020 02:00:00 6.05833 C 6.56 g/m*3 6.06 C 0.26667 km/h
1367 25-11-2020 03:00:00 5.85 C 6.52 g/m*3 5.85 C 0.53333 km/h
1368 25-11-2020 04:00:00 5.53333 C 6.41 g/m*3 5.53 C 0.4 km/h
1369 25-11-2020 05:00:00 4.4 C 5.99 g/m*3 4.4 C 0.66667 km/h
1370 25-11-2020 06:00:00 3.43333 C 5.72 g/m*3 3.43 C 1.46667 km/h
1371 25-11-2020 07:00:00 2.78333 C 5.53 g/m*3 2.78 C 0.66667 km/h
1372 25-11-2020 08:00:00 2.54167 C 5.48 g/m*3 2.54 C 0 km/h
1373 25-11-2020 09:00:00 2.93333 C 5.66 g/m*3 2.93 C 0 km/h
1374 25-11-2020 10:00:00 4.025 C 6.14 g/m*3 4.03 C 0 km/h
1375 25-11-2020 11:00:00 5.58333 C 6.8 g/m*3 5.58 C 0.4 km/h
Sensor: Nr:Datum:Temp:Abs-Feuchte:Windchill:Wind:
Aussen-T/F 1376 25-11-2020 12:00:00 5.75 C 6.78 g/m*3 5.75 C 0.26667 km/h
1377 25-11-2020 13:00:00 6.20833 C 6.98 g/m*3 6.21 C 1.06667 km/h
1378 25-11-2020 14:00:00 6.625 C 7.08 g/m*3 6.63 C 0.13333 km/h
1379 25-11-2020 15:00:00 6.38333 C 6.92 g/m*3 6.38 C 1.33333 km/h
1380 25-11-2020 16:00:00 5.975 C 6.65 g/m*3 4.88 C 5.9 km/h
1381 25-11-2020 17:00:00 5.01667 C 6.25 g/m*3 5.02 C 1.6 km/h
1382 25-11-2020 18:00:00 4.1 C 5.96 g/m*3 4.1 C 0 km/h
1383 25-11-2020 19:00:00 3.48333 C 5.78 g/m*3 3.48 C 0.13333 km/h
1384 25-11-2020 20:00:00 3.13333 C 5.7 g/m*3 3.13 C 0.53333 km/h
1385 25-11-2020 21:00:00 2.475 C 5.45 g/m*3 2.48 C 0.66667 km/h
1386 25-11-2020 22:00:00 2.13333 C 5.33 g/m*3 2.13 C 0 km/h
1387 25-11-2020 23:00:00 1.86667 C 5.27 g/m*3 1.87 C 0.4 km/h
1388 26-11-2020 00:00:00 1.63333 C 5.2 g/m*3 1.63 C 0 km/h
1389 26-11-2020 01:00:00 1.95 C 5.32 g/m*3 1.95 C 0 km/h
1390 26-11-2020 02:00:00 2.6 C 5.59 g/m*3 2.6 C 0.13333 km/h
1391 26-11-2020 03:00:00 2.81667 C 5.7 g/m*3 2.82 C 0 km/h
1392 26-11-2020 04:00:00 3.06667 C 5.79 g/m*3 3.07 C 0.26667 km/h
1393 26-11-2020 05:00:00 3.3 C 5.88 g/m*3 3.3 C 0.66667 km/h
1394 26-11-2020 06:00:00 3.025 C 5.75 g/m*3 3.03 C 0.93333 km/h
1395 26-11-2020 07:00:00 2.81667 C 5.68 g/m*3 2.82 C 0.93333 km/h
1396 26-11-2020 08:00:00 2.59167 C 5.55 g/m*3 2.59 C 2.53333 km/h
1397 26-11-2020 09:00:00 2.55833 C 5.57 g/m*3 2.56 C 1.86667 km/h
1398 26-11-2020 10:00:00 2.81667 C 5.67 g/m*3 2.82 C 1.06667 km/h
1399 26-11-2020 11:00:00 3.55 C 5.96 g/m*3 3.55 C 2 km/h
1400 26-11-2020 12:00:00 4.25 C 6.15 g/m*3 4.25 C 2.13333 km/h
Sensor: Nr:Datum:Temp:Abs-Feuchte:Windchill:Wind:
Aussen-T/F 1401 26-11-2020 13:00:00 4.74167 C 6.23 g/m*3 4.74 C 3.2 km/h
1402 26-11-2020 14:00:00 5.09167 C 6.28 g/m*3 5.09 C 3.88333 km/h
1403 26-11-2020 15:00:00 5.13333 C 6.25 g/m*3 5.13 C 2.4 km/h
1404 26-11-2020 16:00:00 4.81667 C 6.16 g/m*3 4.82 C 1.60833 km/h
1405 26-11-2020 17:00:00 4.38333 C 6.03 g/m*3 4.38 C 1.86667 km/h
1406 26-11-2020 18:00:00 4.16667 C 5.98 g/m*3 4.17 C 1.6 km/h
1407 26-11-2020 19:00:00 4.1 C 5.95 g/m*3 4.1 C 0.13333 km/h
1408 26-11-2020 20:00:00 3.85 C 5.83 g/m*3 3.85 C 0.93333 km/h
1409 26-11-2020 21:00:00 2.8 C 5.45 g/m*3 2.8 C 1.2 km/h
1410 26-11-2020 22:00:00 2.86667 C 5.54 g/m*3 2.87 C 0.53333 km/h
1411 26-11-2020 23:00:00 2.59167 C 5.44 g/m*3 2.59 C 0 km/h
1412 27-11-2020 00:00:00 2.25833 C 5.35 g/m*3 2.26 C 0 km/h
1413 27-11-2020 01:00:00 2.84167 C 5.59 g/m*3 2.84 C 0 km/h
1414 27-11-2020 02:00:00 3 C 5.65 g/m*3 3 C 0 km/h
1415 27-11-2020 03:00:00 2.91667 C 5.62 g/m*3 2.92 C 0 km/h
1416 27-11-2020 04:00:00 2.85833 C 5.59 g/m*3 2.86 C 0.26667 km/h
1417 27-11-2020 05:00:00 2.75833 C 5.56 g/m*3 2.76 C 0.4 km/h
1418 27-11-2020 06:00:00 2.7 C 5.54 g/m*3 2.7 C 0.4 km/h
1419 27-11-2020 07:00:00 2.68333 C 5.53 g/m*3 2.68 C 0.13333 km/h
1420 27-11-2020 08:00:00 2.8 C 5.6 g/m*3 2.8 C 0.13333 km/h
1421 27-11-2020 09:00:00 2.96667 C 5.69 g/m*3 2.97 C 0 km/h
1422 27-11-2020 10:00:00 3.45833 C 5.83 g/m*3 3.46 C 3.6 km/h
1423 27-11-2020 11:00:00 3.85 C 5.91 g/m*3 3.85 C 2.4 km/h
1424 27-11-2020 12:00:00 4.01667 C 5.89 g/m*3 2.94 C 5.075 km/h
1425 27-11-2020 13:00:00 4.15 C 5.9 g/m*3 4.15 C 3.06667 km/h
Sensor: Nr:Datum:Temp:Abs-Feuchte:Windchill:Wind:
Aussen-T/F 1426 27-11-2020 14:00:00 4.425 C 6.02 g/m*3 4.43 C 2.53333 km/h
1427 27-11-2020 15:00:00 4.675 C 6.11 g/m*3 4.68 C 2.8 km/h
1428 27-11-2020 16:00:00 4.6 C 6.09 g/m*3 4.6 C 1.6 km/h
1429 27-11-2020 17:00:00 4.6 C 6.12 g/m*3 4.6 C 1.33333 km/h
1430 27-11-2020 18:00:00 4.51667 C 6.12 g/m*3 4.52 C 1.33333 km/h
1431 27-11-2020 19:00:00 4.45 C 6.09 g/m*3 4.45 C 0.53333 km/h
1432 27-11-2020 20:00:00 4.38333 C 6.08 g/m*3 4.38 C 0.53333 km/h
1433 27-11-2020 21:00:00 4.39167 C 6.07 g/m*3 4.39 C 0.26667 km/h
1434 27-11-2020 22:00:00 4.30833 C 6.04 g/m*3 4.31 C 0 km/h
1435 27-11-2020 23:00:00 4.05833 C 5.93 g/m*3 4.06 C 2.4 km/h
1436 28-11-2020 00:00:00 3.75833 C 5.81 g/m*3 3.76 C 0.93333 km/h
1437 28-11-2020 01:00:00 3.59167 C 5.75 g/m*3 3.59 C 2.66667 km/h
1438 28-11-2020 02:00:00 3.425 C 5.7 g/m*3 3.43 C 1.86667 km/h
1439 28-11-2020 03:00:00 3.24167 C 5.66 g/m*3 3.24 C 0.8 km/h
1440 28-11-2020 04:00:00 2.95 C 5.57 g/m*3 2.95 C 2.26667 km/h
1441 28-11-2020 05:00:00 2.88333 C 5.55 g/m*3 2.88 C 1.2 km/h
1442 28-11-2020 06:00:00 2.73333 C 5.49 g/m*3 2.73 C 1.46667 km/h
1443 28-11-2020 07:00:00 2.56667 C 5.43 g/m*3 2.57 C 0.66667 km/h
1444 28-11-2020 08:00:00 2.41667 C 5.37 g/m*3 2.42 C 0.53333 km/h
1445 28-11-2020 09:00:00 2.55833 C 5.42 g/m*3 2.56 C 1.73333 km/h
1446 28-11-2020 10:00:00 2.925 C 5.49 g/m*3 2.93 C 2.8 km/h
1447 28-11-2020 11:00:00 3.43333 C 5.59 g/m*3 3.43 C 3.2 km/h
1448 28-11-2020 12:00:00 3.80833 C 5.62 g/m*3 3.81 C 4 km/h
1449 28-11-2020 13:00:00 4.04167 C 5.67 g/m*3 2.96 C 5.08333 km/h
1450 28-11-2020 14:00:00 4.15 C 5.73 g/m*3 4.15 C 4.80833 km/h
Sensor: Nr:Datum:Temp:Abs-Feuchte:Windchill:Wind:
Aussen-T/F 1451 28-11-2020 15:00:00 3.875 C 5.67 g/m*3 3.88 C 1.33333 km/h
1452 28-11-2020 16:00:00 3.59167 C 5.61 g/m*3 3.59 C 1.06667 km/h
1453 28-11-2020 17:00:00 3.33333 C 5.55 g/m*3 3.33 C 3.34167 km/h
1454 28-11-2020 18:00:00 3.2 C 5.53 g/m*3 3.2 C 2.66667 km/h
1455 28-11-2020 19:00:00 3.00833 C 5.48 g/m*3 3.01 C 3.74167 km/h
1456 28-11-2020 20:00:00 3.075 C 5.56 g/m*3 3.08 C 1.33333 km/h
1457 28-11-2020 21:00:00 3.35833 C 5.66 g/m*3 3.36 C 1.33333 km/h
1458 28-11-2020 22:00:00 3.63333 C 5.77 g/m*3 3.63 C 0.4 km/h
1459 28-11-2020 23:00:00 3.76667 C 5.8 g/m*3 3.77 C 1.06667 km/h
1460 29-11-2020 00:00:00 3.85833 C 5.75 g/m*3 3.86 C 4 km/h
1461 29-11-2020 01:00:00 3.54167 C 5.51 g/m*3 1.56 C 7.51667 km/h
1462 29-11-2020 02:00:00 2.86667 C 5.16 g/m*3 2.87 C 4.40833 km/h
1463 29-11-2020 03:00:00 2.7 C 5.07 g/m*3 2.7 C 4.425 km/h
1464 29-11-2020 04:00:00 2.48333 C 4.94 g/m*3 2.48 C 4.15 km/h
1465 29-11-2020 05:00:00 2.3 C 4.87 g/m*3 2.3 C 2.94167 km/h
1466 29-11-2020 06:00:00 2.18333 C 4.8 g/m*3 2.18 C 2.66667 km/h
1467 29-11-2020 07:00:00 1.91667 C 4.67 g/m*3 1.92 C 3.34167 km/h
1468 29-11-2020 08:00:00 1.71667 C 4.56 g/m*3 1.72 C 4.29167 km/h
1469 29-11-2020 09:00:00 1.58333 C 4.47 g/m*3 0.11 C 5.225 km/h
1470 29-11-2020 10:00:00 1.775 C 4.48 g/m*3 0.11 C 5.75833 km/h
1471 29-11-2020 11:00:00 2.09167 C 4.47 g/m*3 -0.14 C 7.51667 km/h
1472 29-11-2020 12:00:00 2.3 C 4.48 g/m*3 0.61 C 6.03333 km/h
1473 29-11-2020 13:00:00 2.58333 C 4.48 g/m*3 0.05 C 8.88333 km/h
1474 29-11-2020 14:00:00 2.59167 C 4.44 g/m*3 1 C 5.88333 km/h
1475 29-11-2020 15:00:00 2.3 C 4.37 g/m*3 2.3 C 3.20833 km/h
Sensor: Nr:Datum:Temp:Abs-Feuchte:Windchill:Wind:
Aussen-T/F 1476 29-11-2020 16:00:00 0.56667 C 4.11 g/m*3 0.57 C 2.8 km/h
1477 29-11-2020 17:00:00 -0.85833 C 3.96 g/m*3 -0.86 C 1.2 km/h
1478 29-11-2020 18:00:00 -1.75 C 3.84 g/m*3 -1.75 C 0 km/h
1479 29-11-2020 19:00:00 -2.34167 C 3.75 g/m*3 -2.34 C 0 km/h
1480 29-11-2020 20:00:00 -2.71667 C 3.69 g/m*3 -2.72 C 0.26667 km/h
1481 29-11-2020 21:00:00 -3.19167 C 3.59 g/m*3 -3.19 C 0 km/h
1482 29-11-2020 22:00:00 -3.46667 C 3.54 g/m*3 -3.47 C 0.53333 km/h
1483 29-11-2020 23:00:00 -3.55833 C 3.55 g/m*3 -3.56 C 0 km/h
1484 30-11-2020 00:00:00 -3.9 C 3.46 g/m*3 -3.9 C 0 km/h
1485 30-11-2020 01:00:00 -4.30833 C 3.36 g/m*3 -4.31 C 0 km/h
1486 30-11-2020 02:00:00 -4.55 C 3.31 g/m*3 -4.55 C 0 km/h
1487 30-11-2020 03:00:00 -4.9 C 3.22 g/m*3 -4.9 C 0 km/h
1488 30-11-2020 04:00:00 -5.24167 C 3.15 g/m*3 -5.24 C 0 km/h
1489 30-11-2020 05:00:00 -5.35833 C 3.13 g/m*3 -5.36 C 0 km/h
1490 30-11-2020 06:00:00 -5.21667 C 3.17 g/m*3 -5.22 C 0.26667 km/h
1491 30-11-2020 07:00:00 -5.125 C 3.19 g/m*3 -5.13 C 0.13333 km/h
1492 30-11-2020 08:00:00 -5.76667 C 3.03 g/m*3 -5.77 C 0.4 km/h
1493 30-11-2020 09:00:00 -5.45833 C 3.12 g/m*3 -5.46 C 0.13333 km/h
1494 30-11-2020 10:00:00 -4.81667 C 3.28 g/m*3 -4.82 C 0.53333 km/h
1495 30-11-2020 11:00:00 -3.65833 C 3.56 g/m*3 -3.66 C 1.2 km/h
1496 30-11-2020 12:00:00 -2.33333 C 3.94 g/m*3 -2.33 C 1.73333 km/h
1497 30-11-2020 13:00:00 0.00833 C 4.66 g/m*3 0.01 C 3.475 km/h
1498 30-11-2020 14:00:00 2.01667 C 5.22 g/m*3 2.02 C 3.88333 km/h
1499 30-11-2020 15:00:00 2.25833 C 4.99 g/m*3 2.26 C 3.88333 km/h
1500 30-11-2020 16:00:00 2.9 C 4.91 g/m*3 0.23 C 9.675 km/h
Sensor: Nr:Datum:Temp:Abs-Feuchte:Windchill:Wind:
Aussen-T/F 1501 30-11-2020 17:00:00 2.825 C 4.88 g/m*3 0.38 C 8.74167 km/h
1502 30-11-2020 18:00:00 3.075 C 4.93 g/m*3 -0.54 C 14.49167 km/h
1503 30-11-2020 19:00:00 2.575 C 5.09 g/m*3 -0.53 C 11.29167 km/h
1504 30-11-2020 20:00:00 2.10833 C 5.15 g/m*3 -1.51 C 13.29167 km/h
1505 30-11-2020 21:00:00 1.90833 C 5.18 g/m*3 -0.23 C 7.125 km/h
1506 30-11-2020 22:00:00 1.89167 C 5.22 g/m*3 1.89 C 4.825 km/h
1507 30-11-2020 23:00:00 1.575 C 5.11 g/m*3 -1.94 C 12.21667 km/h
1508 01-12-2020 00:00:00 1.25833 C 5.02 g/m*3 -2.12 C 11.29167 km/h
1509 01-12-2020 01:00:00 1.375 C 5.06 g/m*3 -1.59 C 9.675 km/h
1510 01-12-2020 02:00:00 1.49167 C 5.1 g/m*3 -1.08 C 8.30833 km/h
1511 01-12-2020 03:00:00 1.61667 C 5.14 g/m*3 -1.78 C 11.7 km/h
1512 01-12-2020 04:00:00 1.73333 C 5.18 g/m*3 -1.33 C 10.35833 km/h
1513 01-12-2020 05:00:00 1.81667 C 5.21 g/m*3 -0.37 C 7.24167 km/h
1514 01-12-2020 06:00:00 1.99167 C 5.28 g/m*3 -0.33 C 7.78333 km/h
1515 01-12-2020 07:00:00 2.11667 C 5.33 g/m*3 2.12 C 3.075 km/h
1516 01-12-2020 08:00:00 2.125 C 5.38 g/m*3 2.13 C 1.875 km/h
1517 01-12-2020 09:00:00 2.325 C 5.45 g/m*3 2.33 C 1.06667 km/h
1518 01-12-2020 10:00:00 2.70833 C 5.6 g/m*3 2.71 C 0.4 km/h
1519 01-12-2020 11:00:00 3.06667 C 5.73 g/m*3 3.07 C 0.13333 km/h
1520 01-12-2020 12:00:00 3.46667 C 5.92 g/m*3 3.47 C 0.4 km/h
1521 01-12-2020 13:00:00 4.00833 C 6.14 g/m*3 4.01 C 0 km/h
1522 01-12-2020 14:00:00 4.26667 C 6.21 g/m*3 4.27 C 0.4 km/h
1523 01-12-2020 15:00:00 3.91667 C 6.07 g/m*3 3.92 C 0 km/h
1524 01-12-2020 16:00:00 3.60833 C 5.95 g/m*3 3.61 C 0 km/h
1525 01-12-2020 17:00:00 3.54167 C 5.92 g/m*3 3.54 C 0.13333 km/h
Sensor: Nr:Datum:Temp:Abs-Feuchte:Windchill:Wind:
Aussen-T/F 1526 01-12-2020 18:00:00 3.575 C 5.93 g/m*3 3.58 C 0.13333 km/h
1527 01-12-2020 19:00:00 3.6 C 5.94 g/m*3 3.6 C 0 km/h
1528 01-12-2020 20:00:00 3.675 C 5.97 g/m*3 3.68 C 0 km/h
1529 01-12-2020 21:00:00 3.55 C 5.97 g/m*3 3.55 C 0.4 km/h
1530 01-12-2020 22:00:00 3.39167 C 5.89 g/m*3 3.39 C 0.4 km/h
1531 01-12-2020 23:00:00 3.24167 C 5.84 g/m*3 3.24 C 0 km/h
1532 02-12-2020 00:00:00 3.2 C 5.85 g/m*3 3.2 C 0 km/h
1533 02-12-2020 01:00:00 3.10833 C 5.81 g/m*3 3.11 C 0 km/h
1534 02-12-2020 02:00:00 2.89167 C 5.73 g/m*3 2.89 C 0 km/h
1535 02-12-2020 03:00:00 2.75 C 5.67 g/m*3 2.75 C 1.06667 km/h
1536 02-12-2020 04:00:00 2.65 C 5.63 g/m*3 2.65 C 0 km/h
1537 02-12-2020 05:00:00 2.55 C 5.59 g/m*3 2.55 C 0 km/h
1538 02-12-2020 06:00:00 2.4 C 5.54 g/m*3 2.4 C 0 km/h
1539 02-12-2020 07:00:00 2.4 C 5.54 g/m*3 2.4 C 0 km/h
1540 02-12-2020 08:00:00 2.46667 C 5.56 g/m*3 2.47 C 0 km/h
1541 02-12-2020 09:00:00 2.7 C 5.65 g/m*3 2.7 C 0.26667 km/h
1542 02-12-2020 10:00:00 2.925 C 5.74 g/m*3 2.93 C 0.66667 km/h
1543 02-12-2020 11:00:00 3.075 C 5.77 g/m*3 3.08 C 3.06667 km/h
1544 02-12-2020 12:00:00 3.23333 C 5.8 g/m*3 3.23 C 1.46667 km/h
1545 02-12-2020 13:00:00 3.53333 C 5.9 g/m*3 3.53 C 1.06667 km/h
1546 02-12-2020 14:00:00 3.83333 C 5.95 g/m*3 3.83 C 2.55 km/h
1547 02-12-2020 15:00:00 3.65833 C 5.8 g/m*3 3.66 C 0.26667 km/h
1548 02-12-2020 16:00:00 3.375 C 5.68 g/m*3 3.38 C 0.13333 km/h
1549 02-12-2020 17:00:00 2.94167 C 5.55 g/m*3 2.94 C 0.66667 km/h
1550 02-12-2020 18:00:00 2.6 C 5.44 g/m*3 2.6 C 0.26667 km/h
Sensor: Nr:Datum:Temp:Abs-Feuchte:Windchill:Wind:
Aussen-T/F 1551 02-12-2020 19:00:00 2.425 C 5.4 g/m*3 2.42 C 0.13333 km/h
1552 02-12-2020 20:00:00 2.4 C 5.42 g/m*3 2.4 C 0 km/h
1553 02-12-2020 21:00:00 2.38333 C 5.42 g/m*3 2.38 C 0.4 km/h
1554 02-12-2020 22:00:00 2.36667 C 5.41 g/m*3 2.37 C 0 km/h
1555 02-12-2020 23:00:00 2.26667 C 5.38 g/m*3 2.27 C 0 km/h
1556 03-12-2020 00:00:00 2.28333 C 5.38 g/m*3 2.28 C 1.33333 km/h
1557 03-12-2020 01:00:00 2.33333 C 5.4 g/m*3 2.33 C 2.13333 km/h
1558 03-12-2020 02:00:00 2.575 C 5.49 g/m*3 2.58 C 3.33333 km/h
1559 03-12-2020 03:00:00 2.6 C 5.5 g/m*3 2.6 C 1.33333 km/h
1560 03-12-2020 04:00:00 2.51667 C 5.47 g/m*3 2.52 C 3.73333 km/h
1561 03-12-2020 05:00:00 2.44167 C 5.49 g/m*3 2.44 C 0.26667 km/h
1562 03-12-2020 06:00:00 2.575 C 5.55 g/m*3 2.58 C 0 km/h
1563 03-12-2020 07:00:00 2.7 C 5.59 g/m*3 2.7 C 0.26667 km/h
1564 03-12-2020 08:00:00 2.74167 C 5.61 g/m*3 2.74 C 0.66667 km/h
1565 03-12-2020 09:00:00 3.18333 C 5.77 g/m*3 3.18 C 2 km/h
1566 03-12-2020 10:00:00 4.05 C 5.97 g/m*3 4.05 C 3.475 km/h
1567 03-12-2020 11:00:00 4.43333 C 6 g/m*3 3.41 C 5.08333 km/h
1568 03-12-2020 12:00:00 4.79167 C 6.04 g/m*3 3.66 C 5.49167 km/h
1569 03-12-2020 13:00:00 5.14167 C 6.08 g/m*3 3.75 C 6.425 km/h
1570 03-12-2020 14:00:00 5.05833 C 5.99 g/m*3 3.83 C 5.89167 km/h
1571 03-12-2020 15:00:00 4.7 C 5.91 g/m*3 4.7 C 1.86667 km/h
1572 03-12-2020 16:00:00 4.46667 C 5.87 g/m*3 4.47 C 1.2 km/h
1573 03-12-2020 17:00:00 4.28333 C 5.85 g/m*3 4.28 C 4.69167 km/h
1574 03-12-2020 18:00:00 4.3 C 5.81 g/m*3 2.91 C 6.025 km/h
1575 03-12-2020 19:00:00 4.25 C 5.74 g/m*3 2.95 C 5.75 km/h
Sensor: Nr:Datum:Temp:Abs-Feuchte:Windchill:Wind:
Aussen-T/F 1576 03-12-2020 20:00:00 4.00833 C 5.6 g/m*3 2.57 C 6.03333 km/h
1577 03-12-2020 21:00:00 3.825 C 5.53 g/m*3 1.93 C 7.375 km/h
1578 03-12-2020 22:00:00 3.55833 C 5.45 g/m*3 1.58 C 7.525 km/h
1579 03-12-2020 23:00:00 3.375 C 5.5 g/m*3 1.8 C 6.16667 km/h
1580 04-12-2020 00:00:00 3.2 C 5.48 g/m*3 1.08 C 7.775 km/h
1581 04-12-2020 01:00:00 3.00833 C 5.41 g/m*3 -0.09 C 11.69167 km/h
1582 04-12-2020 02:00:00 2.875 C 5.39 g/m*3 -0.17 C 11.29167 km/h
1583 04-12-2020 03:00:00 3.05833 C 5.54 g/m*3 0.61 C 8.88333 km/h
1584 04-12-2020 04:00:00 3.23333 C 5.62 g/m*3 0.04 C 12.36667 km/h
1585 04-12-2020 05:00:00 3.40833 C 5.7 g/m*3 2.02 C 5.64167 km/h
1586 04-12-2020 06:00:00 3.675 C 5.89 g/m*3 3.68 C 4.00833 km/h
1587 04-12-2020 07:00:00 3.775 C 5.95 g/m*3 3.78 C 2.675 km/h
1588 04-12-2020 08:00:00 4.10833 C 6.14 g/m*3 4.11 C 3.35 km/h
1589 04-12-2020 09:00:00 4.63333 C 6.37 g/m*3 4.63 C 3.6 km/h
1590 04-12-2020 10:00:00 5.36667 C 6.68 g/m*3 5.37 C 3.475 km/h
1591 04-12-2020 11:00:00 6.05 C 6.98 g/m*3 6.05 C 2.675 km/h
1592 04-12-2020 12:00:00 6.975 C 7.25 g/m*3 6.98 C 1.6 km/h
1593 04-12-2020 13:00:00 7.325 C 7.29 g/m*3 7.33 C 2.26667 km/h
1594 04-12-2020 14:00:00 7.64167 C 7.39 g/m*3 7.64 C 0.13333 km/h
1595 04-12-2020 15:00:00 7.05 C 7.16 g/m*3 7.05 C 0.93333 km/h
1596 04-12-2020 16:00:00 6.11667 C 6.8 g/m*3 6.12 C 2 km/h
1597 04-12-2020 17:00:00 5.19167 C 6.46 g/m*3 5.19 C 3.2 km/h
1598 04-12-2020 18:00:00 4.5 C 6.22 g/m*3 4.5 C 4.53333 km/h
1599 04-12-2020 19:00:00 3.68333 C 5.92 g/m*3 3.68 C 3.33333 km/h
1600 04-12-2020 20:00:00 3.84167 C 6.03 g/m*3 3.84 C 0 km/h
Sensor: Nr:Datum:Temp:Abs-Feuchte:Windchill:Wind:
Aussen-T/F 1601 04-12-2020 21:00:00 3.34167 C 5.84 g/m*3 3.34 C 0 km/h
1602 04-12-2020 22:00:00 3.35833 C 5.85 g/m*3 3.36 C 0 km/h
1603 04-12-2020 23:00:00 4.35 C 6.31 g/m*3 4.35 C 1.60833 km/h
1604 05-12-2020 00:00:00 4.50833 C 6.38 g/m*3 4.51 C 0 km/h
1605 05-12-2020 01:00:00 4.41667 C 6.34 g/m*3 4.42 C 0 km/h
1606 05-12-2020 02:00:00 4.40833 C 6.34 g/m*3 4.41 C 0 km/h
1607 05-12-2020 03:00:00 4.49167 C 6.37 g/m*3 4.49 C 0 km/h
1608 05-12-2020 04:00:00 4.29167 C 6.28 g/m*3 4.29 C 0 km/h
1609 05-12-2020 05:00:00 3.8 C 6.05 g/m*3 3.8 C 0 km/h
1610 05-12-2020 06:00:00 3.75833 C 6.07 g/m*3 3.76 C 0 km/h
1611 05-12-2020 07:00:00 3.74167 C 6.06 g/m*3 3.74 C 0 km/h
1612 05-12-2020 08:00:00 3.73333 C 6.06 g/m*3 3.73 C 0 km/h
1613 05-12-2020 09:00:00 4.46667 C 6.36 g/m*3 4.47 C 0 km/h
1614 05-12-2020 10:00:00 4.575 C 6.41 g/m*3 4.58 C 0 km/h
1615 05-12-2020 11:00:00 4.45833 C 6.36 g/m*3 4.46 C 2.93333 km/h
1616 05-12-2020 12:00:00 5.35833 C 6.77 g/m*3 5.36 C 1.46667 km/h
1617 05-12-2020 13:00:00 5.45 C 6.44 g/m*3 5.45 C 4.81667 km/h
1618 05-12-2020 14:00:00 5.69167 C 6.46 g/m*3 5.69 C 1.06667 km/h
1619 05-12-2020 15:00:00 4.29167 C 5.96 g/m*3 4.29 C 3.46667 km/h
1620 05-12-2020 16:00:00 3.075 C 5.59 g/m*3 3.08 C 0.53333 km/h
1621 05-12-2020 17:00:00 2.70833 C 5.52 g/m*3 2.71 C 2.93333 km/h
1622 05-12-2020 18:00:00 2.86667 C 5.62 g/m*3 2.87 C 0.13333 km/h
1623 05-12-2020 19:00:00 3.63333 C 5.96 g/m*3 3.63 C 0 km/h
1624 05-12-2020 20:00:00 3.88333 C 6.06 g/m*3 3.88 C 0 km/h
1625 05-12-2020 21:00:00 4.075 C 6.13 g/m*3 4.08 C 0 km/h
Sensor: Nr:Datum:Temp:Abs-Feuchte:Windchill:Wind:
Aussen-T/F 1626 05-12-2020 22:00:00 3.94167 C 6.08 g/m*3 3.94 C 0.53333 km/h
1627 05-12-2020 23:00:00 3.44167 C 5.82 g/m*3 3.44 C 1.34167 km/h
1628 06-12-2020 00:00:00 2.53333 C 5.47 g/m*3 2.53 C 0.53333 km/h
1629 06-12-2020 01:00:00 2.24167 C 5.4 g/m*3 2.24 C 0.13333 km/h
1630 06-12-2020 02:00:00 2.3 C 5.44 g/m*3 2.3 C 0 km/h
1631 06-12-2020 03:00:00 2.81667 C 5.64 g/m*3 2.82 C 0.26667 km/h
1632 06-12-2020 04:00:00 3.15833 C 5.77 g/m*3 3.16 C 0 km/h
1633 06-12-2020 05:00:00 3.2 C 5.8 g/m*3 3.2 C 0 km/h
1634 06-12-2020 06:00:00 3.29167 C 5.84 g/m*3 3.29 C 0 km/h
1635 06-12-2020 07:00:00 3.3 C 5.82 g/m*3 3.3 C 0 km/h
1636 06-12-2020 08:00:00 3.31667 C 5.85 g/m*3 3.32 C 0 km/h
1637 06-12-2020 09:00:00 3.59167 C 6 g/m*3 3.59 C 0 km/h
1638 06-12-2020 10:00:00 3.91667 C 6.13 g/m*3 3.92 C 1.06667 km/h
1639 06-12-2020 11:00:00 4.18333 C 6.24 g/m*3 4.18 C 0.8 km/h
1640 06-12-2020 12:00:00 4.45833 C 6.36 g/m*3 4.46 C 1.46667 km/h
1641 06-12-2020 13:00:00 4.775 C 6.47 g/m*3 4.78 C 1.6 km/h
1642 06-12-2020 14:00:00 4.9 C 6.48 g/m*3 4.9 C 0.4 km/h
1643 06-12-2020 15:00:00 5.00833 C 6.54 g/m*3 5.01 C 0 km/h
1644 06-12-2020 16:00:00 4.94167 C 6.5 g/m*3 4.94 C 0 km/h
1645 06-12-2020 17:00:00 4.8 C 6.47 g/m*3 4.8 C 1.73333 km/h
1646 06-12-2020 18:00:00 4.75 C 6.42 g/m*3 4.75 C 2.13333 km/h
1647 06-12-2020 19:00:00 4.7 C 6.44 g/m*3 4.7 C 0.66667 km/h
1648 06-12-2020 20:00:00 4.625 C 6.4 g/m*3 4.63 C 1.6 km/h
1649 06-12-2020 21:00:00 4.575 C 6.41 g/m*3 4.58 C 2 km/h
1650 06-12-2020 22:00:00 4.5 C 6.38 g/m*3 4.5 C 0 km/h
Sensor: Nr:Datum:Temp:Abs-Feuchte:Windchill:Wind:
Aussen-T/F 1651 06-12-2020 23:00:00 4.41667 C 6.34 g/m*3 4.42 C 0 km/h
1652 07-12-2020 00:00:00 4.325 C 6.29 g/m*3 4.33 C 0.8 km/h
1653 07-12-2020 01:00:00 4.3 C 6.29 g/m*3 4.3 C 0.8 km/h
1654 07-12-2020 02:00:00 4.20833 C 6.25 g/m*3 4.21 C 0.66667 km/h
1655 07-12-2020 03:00:00 4.1 C 6.21 g/m*3 4.1 C 1.73333 km/h
1656 07-12-2020 04:00:00 4 C 6.17 g/m*3 4 C 0.93333 km/h
1657 07-12-2020 05:00:00 3.875 C 6.12 g/m*3 3.88 C 0.66667 km/h
1658 07-12-2020 06:00:00 3.9 C 6.13 g/m*3 3.9 C 3.2 km/h
1659 07-12-2020 07:00:00 3.81667 C 6.09 g/m*3 3.82 C 1.46667 km/h
1660 07-12-2020 08:00:00 3.825 C 6.1 g/m*3 3.83 C 4.80833 km/h
1661 07-12-2020 09:00:00 3.94167 C 6.14 g/m*3 2.85 C 5.08333 km/h
1662 07-12-2020 10:00:00 4.46667 C 6.36 g/m*3 4.47 C 4.13333 km/h
1663 07-12-2020 11:00:00 5.05 C 6.58 g/m*3 3.18 C 8.05 km/h
1664 07-12-2020 12:00:00 5.55833 C 6.63 g/m*3 3.55 C 9 km/h
1665 07-12-2020 13:00:00 6.125 C 6.58 g/m*3 4.15 C 9.29167 km/h
1666 07-12-2020 14:00:00 6.28333 C 6.56 g/m*3 6.28 C 3.60833 km/h
1667 07-12-2020 15:00:00 5.9 C 6.49 g/m*3 5.9 C 2.26667 km/h
1668 07-12-2020 16:00:00 5.325 C 6.37 g/m*3 5.33 C 1.06667 km/h
1669 07-12-2020 17:00:00 4.86667 C 6.29 g/m*3 4.87 C 1.06667 km/h
1670 07-12-2020 18:00:00 4.44167 C 6.15 g/m*3 4.44 C 0.8 km/h
1671 07-12-2020 19:00:00 3.15833 C 5.64 g/m*3 3.16 C 3.2 km/h
1672 07-12-2020 20:00:00 1.88333 C 5.21 g/m*3 1.88 C 4.4 km/h
1673 07-12-2020 21:00:00 1.85 C 5.27 g/m*3 1.85 C 1.46667 km/h
1674 07-12-2020 22:00:00 2.51667 C 5.52 g/m*3 2.52 C 0 km/h
1675 07-12-2020 23:00:00 2.80833 C 5.63 g/m*3 2.81 C 0 km/h
Sensor: Nr:Datum:Temp:Abs-Feuchte:Windchill:Wind:
Aussen-T/F 1676 08-12-2020 00:00:00 3.075 C 5.74 g/m*3 3.08 C 0 km/h
1677 08-12-2020 01:00:00 3.10833 C 5.75 g/m*3 3.11 C 0 km/h
1678 08-12-2020 02:00:00 3.00833 C 5.72 g/m*3 3.01 C 0 km/h
1679 08-12-2020 03:00:00 2.875 C 5.69 g/m*3 2.88 C 0.26667 km/h
1680 08-12-2020 04:00:00 3.225 C 5.86 g/m*3 3.23 C 0 km/h
1681 08-12-2020 05:00:00 3.11667 C 5.76 g/m*3 3.12 C 0.8 km/h
1682 08-12-2020 06:00:00 2.93333 C 5.67 g/m*3 2.93 C 0.66667 km/h
1683 08-12-2020 07:00:00 2.9 C 5.61 g/m*3 2.9 C 0 km/h
1684 08-12-2020 08:00:00 2.66667 C 5.49 g/m*3 2.67 C 0.4 km/h
1685 08-12-2020 09:00:00 2.75833 C 5.56 g/m*3 2.76 C 0 km/h
1686 08-12-2020 10:00:00 3.40833 C 5.71 g/m*3 3.41 C 3.75 km/h
1687 08-12-2020 11:00:00 4.35833 C 5.81 g/m*3 4.36 C 4.275 km/h
1688 08-12-2020 12:00:00 4.95 C 5.79 g/m*3 4.95 C 4.55833 km/h
1689 08-12-2020 13:00:00 5.35833 C 5.83 g/m*3 4.36 C 5.35833 km/h
1690 08-12-2020 14:00:00 5.71667 C 5.9 g/m*3 5.72 C 4.81667 km/h
1691 08-12-2020 15:00:00 5.78333 C 6.05 g/m*3 5.78 C 0.93333 km/h
1692 08-12-2020 16:00:00 5.175 C 6.07 g/m*3 5.18 C 0.66667 km/h
1693 08-12-2020 17:00:00 4.45 C 5.97 g/m*3 4.45 C 1.6 km/h
1694 08-12-2020 18:00:00 3.625 C 5.73 g/m*3 3.63 C 1.2 km/h
1695 08-12-2020 19:00:00 2.8 C 5.46 g/m*3 2.8 C 0.26667 km/h
1696 08-12-2020 20:00:00 2.3 C 5.33 g/m*3 2.3 C 0 km/h
1697 08-12-2020 21:00:00 1.79167 C 5.17 g/m*3 1.79 C 0 km/h
1698 08-12-2020 22:00:00 0.94167 C 4.91 g/m*3 0.94 C 0 km/h
1699 08-12-2020 23:00:00 0.475 C 4.76 g/m*3 0.48 C 0 km/h
1700 09-12-2020 00:00:00 0.175 C 4.68 g/m*3 0.18 C 0 km/h
Sensor: Nr:Datum:Temp:Abs-Feuchte:Windchill:Wind:
Aussen-T/F 1701 09-12-2020 01:00:00 0.84167 C 4.93 g/m*3 0.84 C 0 km/h
1702 09-12-2020 02:00:00 1.35833 C 5.11 g/m*3 1.36 C 0 km/h
1703 09-12-2020 03:00:00 1.69167 C 5.26 g/m*3 1.69 C 0 km/h
1704 09-12-2020 04:00:00 2.31667 C 5.51 g/m*3 2.32 C 1.73333 km/h
1705 09-12-2020 05:00:00 2.80833 C 5.68 g/m*3 2.81 C 3.20833 km/h
1706 09-12-2020 06:00:00 3 C 5.66 g/m*3 3 C 3.34167 km/h
1707 09-12-2020 07:00:00 3.175 C 5.57 g/m*3 1.66 C 5.90833 km/h
1708 09-12-2020 08:00:00 3.24167 C 5.54 g/m*3 3.24 C 3.20833 km/h
1709 09-12-2020 09:00:00 3.21667 C 5.55 g/m*3 3.22 C 0.26667 km/h
1710 09-12-2020 10:00:00 3.425 C 5.62 g/m*3 3.43 C 0.13333 km/h
1711 09-12-2020 11:00:00 3.75 C 5.66 g/m*3 3.75 C 0.66667 km/h
1712 09-12-2020 12:00:00 4.16667 C 5.74 g/m*3 4.17 C 0.8 km/h
1713 09-12-2020 13:00:00 4.59167 C 5.78 g/m*3 3.34 C 5.75833 km/h
1714 09-12-2020 14:00:00 4.525 C 5.53 g/m*3 2.42 C 8.6 km/h
1715 09-12-2020 15:00:00 3.775 C 5.32 g/m*3 2.4 C 5.75833 km/h
1716 09-12-2020 16:00:00 2.30833 C 5 g/m*3 2.31 C 4.13333 km/h
1717 09-12-2020 17:00:00 0.85833 C 4.69 g/m*3 0.86 C 2.13333 km/h
1718 09-12-2020 18:00:00 -0.05833 C 4.47 g/m*3 -0.06 C 1.2 km/h
1719 09-12-2020 19:00:00 -0.25833 C 4.49 g/m*3 -0.26 C 3.33333 km/h
1720 09-12-2020 20:00:00 0.31667 C 4.7 g/m*3 0.32 C 1.6 km/h
1721 09-12-2020 21:00:00 0.70833 C 4.8 g/m*3 0.71 C 1.06667 km/h
1722 09-12-2020 22:00:00 1.03333 C 4.86 g/m*3 1.03 C 1.2 km/h
1723 09-12-2020 23:00:00 1.19167 C 4.87 g/m*3 1.19 C 1.6 km/h
1724 10-12-2020 00:00:00 1.36667 C 4.88 g/m*3 1.37 C 1.06667 km/h
1725 10-12-2020 01:00:00 1.41667 C 4.9 g/m*3 1.42 C 0.53333 km/h
Sensor: Nr:Datum:Temp:Abs-Feuchte:Windchill:Wind:
Aussen-T/F 1726 10-12-2020 02:00:00 1.55833 C 4.95 g/m*3 1.56 C 0.66667 km/h
1727 10-12-2020 03:00:00 1.59167 C 4.94 g/m*3 1.59 C 1.33333 km/h
1728 10-12-2020 04:00:00 0.81667 C 4.67 g/m*3 0.82 C 1.2 km/h
1729 10-12-2020 05:00:00 -0.3 C 4.39 g/m*3 -0.3 C 0.26667 km/h
1730 10-12-2020 06:00:00 -0.875 C 4.28 g/m*3 -0.88 C 0 km/h
1731 10-12-2020 07:00:00 -1.375 C 4.14 g/m*3 -1.38 C 0 km/h
1732 10-12-2020 08:00:00 -1.78333 C 4.06 g/m*3 -1.78 C 0 km/h
1733 10-12-2020 09:00:00 -1.85 C 4.05 g/m*3 -1.85 C 0 km/h
1734 10-12-2020 10:00:00 -1.39167 C 4.22 g/m*3 -1.39 C 0 km/h
1735 10-12-2020 11:00:00 -0.50833 C 4.49 g/m*3 -0.51 C 2.4 km/h
1736 10-12-2020 12:00:00 0.05 C 4.67 g/m*3 0.05 C 1.06667 km/h
1737 10-12-2020 13:00:00 0.46667 C 4.82 g/m*3 0.47 C 0.26667 km/h
1738 10-12-2020 14:00:00 1.175 C 5.05 g/m*3 1.18 C 0.8 km/h
1739 10-12-2020 15:00:00 1.1 C 4.9 g/m*3 1.1 C 1.46667 km/h
1740 10-12-2020 16:00:00 1.175 C 4.84 g/m*3 1.18 C 0.26667 km/h
1741 10-12-2020 17:00:00 0.925 C 4.74 g/m*3 0.93 C 0 km/h
1742 10-12-2020 18:00:00 0.74167 C 4.67 g/m*3 0.74 C 0 km/h
1743 10-12-2020 19:00:00 0.63333 C 4.67 g/m*3 0.63 C 0 km/h
1744 10-12-2020 20:00:00 0.81667 C 4.77 g/m*3 0.82 C 0 km/h
1745 10-12-2020 21:00:00 0.99167 C 4.82 g/m*3 0.99 C 0.26667 km/h
1746 10-12-2020 22:00:00 1.175 C 4.89 g/m*3 1.18 C 0.13333 km/h
1747 10-12-2020 23:00:00 1.23333 C 4.87 g/m*3 1.23 C 0.8 km/h
1748 11-12-2020 00:00:00 1.39167 C 4.9 g/m*3 1.39 C 0.26667 km/h
1749 11-12-2020 01:00:00 1.2 C 4.82 g/m*3 1.2 C 0 km/h
1750 11-12-2020 02:00:00 0.325 C 4.59 g/m*3 0.33 C 0.66667 km/h
Sensor: Nr:Datum:Temp:Abs-Feuchte:Windchill:Wind:
Aussen-T/F 1751 11-12-2020 03:00:00 0.925 C 4.82 g/m*3 0.93 C 2.54167 km/h
1752 11-12-2020 04:00:00 0.65833 C 4.69 g/m*3 0.66 C 1.2 km/h
1753 11-12-2020 05:00:00 0.15833 C 4.57 g/m*3 0.16 C 1.86667 km/h
1754 11-12-2020 06:00:00 0.54167 C 4.74 g/m*3 0.54 C 4.55 km/h
1755 11-12-2020 07:00:00 1.64167 C 4.93 g/m*3 1.64 C 3.34167 km/h
1756 11-12-2020 08:00:00 2.14167 C 4.96 g/m*3 2.14 C 4.825 km/h
1757 11-12-2020 09:00:00 2.575 C 5.07 g/m*3 0.97 C 5.9 km/h
1758 11-12-2020 10:00:00 3.125 C 5.21 g/m*3 3.13 C 4.00833 km/h
1759 11-12-2020 11:00:00 3.44167 C 5.38 g/m*3 1.83 C 6.29167 km/h
1760 11-12-2020 12:00:00 3.7 C 5.54 g/m*3 2.47 C 5.34167 km/h
1761 11-12-2020 13:00:00 4.44167 C 5.66 g/m*3 2.85 C 6.71667 km/h
1762 11-12-2020 14:00:00 4.49167 C 5.58 g/m*3 2.28 C 9.025 km/h
1763 11-12-2020 15:00:00 4.05833 C 5.56 g/m*3 2.16 C 7.51667 km/h
1764 11-12-2020 16:00:00 3.63333 C 5.58 g/m*3 1.91 C 6.71667 km/h
1765 11-12-2020 17:00:00 3.71667 C 5.66 g/m*3 1.47 C 8.58333 km/h
1766 11-12-2020 18:00:00 3.68333 C 5.71 g/m*3 2.15 C 6.16667 km/h
1767 11-12-2020 19:00:00 3.79167 C 5.76 g/m*3 2.01 C 6.98333 km/h
1768 11-12-2020 20:00:00 3.94167 C 5.83 g/m*3 3.94 C 1.6 km/h
1769 11-12-2020 21:00:00 3.925 C 5.86 g/m*3 3.93 C 0 km/h
1770 11-12-2020 22:00:00 3.825 C 5.85 g/m*3 3.83 C 0 km/h
1771 11-12-2020 23:00:00 3.85 C 5.92 g/m*3 3.85 C 0 km/h
1772 12-12-2020 00:00:00 3.81667 C 5.94 g/m*3 3.82 C 0.4 km/h
1773 12-12-2020 01:00:00 4.05 C 6.06 g/m*3 4.05 C 0.66667 km/h
1774 12-12-2020 02:00:00 4.40833 C 6.22 g/m*3 4.41 C 1.2 km/h
1775 12-12-2020 03:00:00 4.80833 C 6.38 g/m*3 4.81 C 0 km/h
Sensor: Nr:Datum:Temp:Abs-Feuchte:Windchill:Wind:
Aussen-T/F 1776 12-12-2020 04:00:00 4.9 C 6.41 g/m*3 4.9 C 0 km/h
1777 12-12-2020 05:00:00 4.90833 C 6.42 g/m*3 4.91 C 0 km/h
1778 12-12-2020 06:00:00 5.05833 C 6.48 g/m*3 5.06 C 0 km/h
1779 12-12-2020 07:00:00 5.15 C 6.58 g/m*3 5.15 C 0.4 km/h
1780 12-12-2020 08:00:00 5.28333 C 6.65 g/m*3 5.28 C 0 km/h
1781 12-12-2020 09:00:00 5.625 C 6.8 g/m*3 5.63 C 0 km/h
1782 12-12-2020 10:00:00 6.16667 C 7.03 g/m*3 6.17 C 0 km/h
1783 12-12-2020 11:00:00 6.80833 C 7.18 g/m*3 6.81 C 0 km/h
1784 12-12-2020 12:00:00 7.4 C 7.31 g/m*3 7.4 C 0.4 km/h
1785 12-12-2020 13:00:00 7.7 C 7.38 g/m*3 7.7 C 0.66667 km/h
1786 12-12-2020 14:00:00 7.68333 C 7.44 g/m*3 7.68 C 0.26667 km/h
1787 12-12-2020 15:00:00 7.475 C 7.53 g/m*3 7.48 C 0 km/h
1788 12-12-2020 16:00:00 7.2 C 7.43 g/m*3 7.2 C 0 km/h
1789 12-12-2020 17:00:00 6.7 C 7.21 g/m*3 6.7 C 0 km/h
1790 12-12-2020 18:00:00 6.66667 C 7.23 g/m*3 6.67 C 0 km/h
1791 12-12-2020 19:00:00 6.36667 C 7.12 g/m*3 6.37 C 0 km/h
1792 12-12-2020 20:00:00 6.66667 C 7.28 g/m*3 6.67 C 0.13333 km/h
1793 12-12-2020 21:00:00 6.675 C 7.29 g/m*3 6.68 C 0 km/h
1794 12-12-2020 22:00:00 6.55 C 7.27 g/m*3 6.55 C 0 km/h
1795 12-12-2020 23:00:00 6.2 C 7.1 g/m*3 6.2 C 0 km/h
1796 13-12-2020 00:00:00 6.35833 C 7.21 g/m*3 6.36 C 0 km/h
1797 13-12-2020 01:00:00 6.18333 C 7.13 g/m*3 6.18 C 0 km/h
1798 13-12-2020 02:00:00 6.40833 C 7.23 g/m*3 6.41 C 0 km/h
1799 13-12-2020 03:00:00 6.83333 C 7.43 g/m*3 6.83 C 0.13333 km/h
1800 13-12-2020 04:00:00 7.23333 C 7.63 g/m*3 7.23 C 2.8 km/h
Sensor: Nr:Datum:Temp:Abs-Feuchte:Windchill:Wind:
Aussen-T/F 1801 13-12-2020 05:00:00 7.3 C 7.66 g/m*3 7.3 C 0 km/h
1802 13-12-2020 06:00:00 7.275 C 7.65 g/m*3 7.28 C 1.46667 km/h
1803 13-12-2020 07:00:00 7.30833 C 7.67 g/m*3 7.31 C 2.53333 km/h
1804 13-12-2020 08:00:00 7.21667 C 7.62 g/m*3 7.22 C 2.4 km/h
1805 13-12-2020 09:00:00 7.24167 C 7.64 g/m*3 7.24 C 1.2 km/h
1806 13-12-2020 10:00:00 6.45833 C 7.25 g/m*3 6.46 C 2.53333 km/h
1807 13-12-2020 11:00:00 6.39167 C 7.22 g/m*3 5.31 C 6.03333 km/h
1808 13-12-2020 12:00:00 6.6 C 7.2 g/m*3 5.47 C 6.31667 km/h
1809 13-12-2020 13:00:00 7.825 C 7.25 g/m*3 7.09 C 5.61667 km/h
1810 13-12-2020 14:00:00 7.675 C 7.03 g/m*3 7.68 C 4.28333 km/h
1811 13-12-2020 15:00:00 6.46667 C 6.66 g/m*3 6.47 C 4.26667 km/h
1812 13-12-2020 16:00:00 5.325 C 6.31 g/m*3 5.33 C 4.93333 km/h
1813 13-12-2020 17:00:00 4.04167 C 5.9 g/m*3 4.04 C 4.8 km/h
1814 13-12-2020 18:00:00 3.5 C 5.79 g/m*3 3.5 C 0 km/h
1815 13-12-2020 19:00:00 3.6 C 5.88 g/m*3 3.6 C 0 km/h
1816 13-12-2020 20:00:00 3.66667 C 5.93 g/m*3 3.67 C 0.4 km/h
1817 13-12-2020 21:00:00 4.24167 C 6.16 g/m*3 4.24 C 1.06667 km/h
1818 13-12-2020 22:00:00 3.49167 C 5.78 g/m*3 3.49 C 1.73333 km/h
1819 13-12-2020 23:00:00 3.15 C 5.69 g/m*3 3.15 C 2.80833 km/h
1820 14-12-2020 00:00:00 3.3 C 5.78 g/m*3 3.3 C 2.8 km/h
1821 14-12-2020 01:00:00 3.90833 C 6.02 g/m*3 3.91 C 0 km/h
1822 14-12-2020 02:00:00 4.44167 C 6.15 g/m*3 4.44 C 2 km/h
1823 14-12-2020 03:00:00 4.04167 C 6 g/m*3 4.04 C 1.33333 km/h
1824 14-12-2020 04:00:00 4.78333 C 6.36 g/m*3 4.78 C 0.26667 km/h
1825 14-12-2020 05:00:00 5.15833 C 6.52 g/m*3 5.16 C 0 km/h
Sensor: Nr:Datum:Temp:Abs-Feuchte:Windchill:Wind:
Aussen-T/F 1826 14-12-2020 06:00:00 5.3 C 6.52 g/m*3 5.3 C 0 km/h
1827 14-12-2020 07:00:00 5.50833 C 6.59 g/m*3 5.51 C 0.13333 km/h
1828 14-12-2020 08:00:00 5.675 C 6.6 g/m*3 5.68 C 1.06667 km/h
1829 14-12-2020 09:00:00 6.21667 C 6.66 g/m*3 6.22 C 1.46667 km/h
1830 14-12-2020 10:00:00 7.025 C 6.78 g/m*3 7.03 C 0.53333 km/h
1831 14-12-2020 11:00:00 6.55833 C 6.71 g/m*3 6.56 C 0.93333 km/h
1832 14-12-2020 12:00:00 6.48333 C 6.79 g/m*3 6.48 C 3.34167 km/h
1833 14-12-2020 13:00:00 7.775 C 7.24 g/m*3 7.78 C 1.2 km/h
1834 14-12-2020 14:00:00 9.05 C 7.22 g/m*3 9.05 C 2.26667 km/h
1835 14-12-2020 15:00:00 8.89167 C 7.22 g/m*3 8.89 C 1.075 km/h
1836 14-12-2020 16:00:00 7.40833 C 6.8 g/m*3 7.41 C 2.66667 km/h
1837 14-12-2020 17:00:00 6.05 C 6.49 g/m*3 6.05 C 1.06667 km/h
1838 14-12-2020 18:00:00 5.85833 C 6.51 g/m*3 5.86 C 0.8 km/h
1839 14-12-2020 19:00:00 6.05 C 6.6 g/m*3 6.05 C 2.26667 km/h
1840 14-12-2020 20:00:00 6.10833 C 6.65 g/m*3 6.11 C 0.13333 km/h
1841 14-12-2020 21:00:00 6.28333 C 6.67 g/m*3 6.28 C 0.4 km/h
1842 14-12-2020 22:00:00 7.24167 C 6.76 g/m*3 7.24 C 3.61667 km/h
1843 14-12-2020 23:00:00 6.94167 C 6.71 g/m*3 6.94 C 0.26667 km/h
1844 15-12-2020 00:00:00 6.70833 C 6.76 g/m*3 6.71 C 0.53333 km/h
1845 15-12-2020 01:00:00 6.75 C 6.94 g/m*3 6.75 C 2 km/h
1846 15-12-2020 02:00:00 6.775 C 7.11 g/m*3 6.78 C 1.2 km/h
1847 15-12-2020 03:00:00 6.8 C 7.22 g/m*3 6.8 C 2.4 km/h
1848 15-12-2020 04:00:00 6.8 C 7.27 g/m*3 6.8 C 0.8 km/h
1849 15-12-2020 05:00:00 6.78333 C 7.33 g/m*3 6.78 C 0 km/h
1850 15-12-2020 06:00:00 6.775 C 7.33 g/m*3 6.78 C 0 km/h
Sensor: Nr:Datum:Temp:Abs-Feuchte:Windchill:Wind:
Aussen-T/F 1851 15-12-2020 07:00:00 6.73333 C 7.31 g/m*3 6.73 C 0.13333 km/h
1852 15-12-2020 08:00:00 6.56667 C 7.26 g/m*3 6.57 C 0 km/h
1853 15-12-2020 09:00:00 6.96667 C 7.5 g/m*3 6.97 C 0 km/h
1854 15-12-2020 10:00:00 7.66667 C 7.85 g/m*3 7.67 C 0.66667 km/h
1855 15-12-2020 11:00:00 8.45 C 8.26 g/m*3 8.45 C 1.06667 km/h
1856 15-12-2020 12:00:00 9.00833 C 8.56 g/m*3 9.01 C 0.93333 km/h
1857 15-12-2020 13:00:00 9.7 C 8.94 g/m*3 9.7 C 0 km/h
1858 15-12-2020 14:00:00 9.80833 C 9 g/m*3 9.81 C 0 km/h
1859 15-12-2020 15:00:00 9.91667 C 9.07 g/m*3 9.92 C 0 km/h
1860 15-12-2020 16:00:00 9.86667 C 9.04 g/m*3 9.87 C 0.26667 km/h
1861 15-12-2020 17:00:00 9.75833 C 8.98 g/m*3 9.76 C 0 km/h
1862 15-12-2020 18:00:00 9.79167 C 8.99 g/m*3 9.79 C 2.8 km/h
1863 15-12-2020 19:00:00 8.9 C 8.5 g/m*3 8.9 C 3.33333 km/h
1864 15-12-2020 20:00:00 7.90833 C 7.97 g/m*3 7.91 C 2.675 km/h
1865 15-12-2020 21:00:00 7.10833 C 7.56 g/m*3 7.11 C 1.86667 km/h
1866 15-12-2020 22:00:00 6.225 C 7.14 g/m*3 6.23 C 0.13333 km/h
1867 15-12-2020 23:00:00 5.91667 C 7.01 g/m*3 5.92 C 0.13333 km/h
1868 16-12-2020 00:00:00 6.625 C 7.37 g/m*3 6.63 C 0.13333 km/h
1869 16-12-2020 01:00:00 6.325 C 7.19 g/m*3 6.33 C 0.13333 km/h
1870 16-12-2020 02:00:00 6.41667 C 7.3 g/m*3 6.42 C 0.26667 km/h
1871 16-12-2020 03:00:00 6.73333 C 7.46 g/m*3 6.73 C 0.13333 km/h
1872 16-12-2020 04:00:00 6.70833 C 7.45 g/m*3 6.71 C 0 km/h
1873 16-12-2020 05:00:00 6.3 C 7.19 g/m*3 6.3 C 0 km/h
1874 16-12-2020 06:00:00 6.425 C 7.3 g/m*3 6.43 C 0 km/h
1875 16-12-2020 07:00:00 6.50833 C 7.35 g/m*3 6.51 C 0.13333 km/h
Sensor: Nr:Datum:Temp:Abs-Feuchte:Windchill:Wind:
Aussen-T/F 1876 16-12-2020 08:00:00 7.15833 C 7.67 g/m*3 7.16 C 0 km/h
1877 16-12-2020 09:00:00 7.44167 C 7.81 g/m*3 7.44 C 0 km/h
1878 16-12-2020 10:00:00 8.43333 C 8.33 g/m*3 8.43 C 0.13333 km/h
1879 16-12-2020 11:00:00 9.43333 C 8.88 g/m*3 9.43 C 0.4 km/h
1880 16-12-2020 12:00:00 9.89167 C 9.15 g/m*3 9.89 C 4.275 km/h
1881 16-12-2020 13:00:00 9.91667 C 9.06 g/m*3 9.92 C 4.41667 km/h
1882 16-12-2020 14:00:00 9.76667 C 8.85 g/m*3 9.77 C 2.93333 km/h
1883 16-12-2020 15:00:00 9.46667 C 8.65 g/m*3 9.47 C 0.4 km/h
1884 16-12-2020 16:00:00 7.875 C 7.79 g/m*3 7.88 C 1.6 km/h
1885 16-12-2020 17:00:00 7.125 C 7.51 g/m*3 7.13 C 2.93333 km/h
1886 16-12-2020 18:00:00 6.875 C 7.41 g/m*3 6.88 C 3.06667 km/h
1887 16-12-2020 19:00:00 7 C 7.52 g/m*3 7 C 2.13333 km/h
1888 16-12-2020 20:00:00 6.71667 C 7.38 g/m*3 6.72 C 2 km/h
1889 16-12-2020 21:00:00 6.31667 C 7.19 g/m*3 6.32 C 2.4 km/h
1890 16-12-2020 22:00:00 6.85833 C 7.47 g/m*3 6.86 C 2.8 km/h
1891 16-12-2020 23:00:00 7.23333 C 7.67 g/m*3 7.23 C 1.73333 km/h
1892 17-12-2020 00:00:00 7.04167 C 7.54 g/m*3 7.04 C 2 km/h
1893 17-12-2020 01:00:00 6.53333 C 7.29 g/m*3 6.53 C 2.13333 km/h
1894 17-12-2020 02:00:00 6.225 C 7.16 g/m*3 6.23 C 0.66667 km/h
1895 17-12-2020 03:00:00 7.05833 C 7.62 g/m*3 7.06 C 3.33333 km/h
1896 17-12-2020 04:00:00 7.25 C 7.72 g/m*3 7.25 C 0.8 km/h
1897 17-12-2020 05:00:00 7.2 C 7.69 g/m*3 7.2 C 1.86667 km/h
1898 17-12-2020 06:00:00 7.25 C 7.7 g/m*3 7.25 C 2 km/h
1899 17-12-2020 07:00:00 6.79167 C 7.45 g/m*3 6.79 C 1.2 km/h
1900 17-12-2020 08:00:00 7.03333 C 7.61 g/m*3 7.03 C 0.66667 km/h
Sensor: Nr:Datum:Temp:Abs-Feuchte:Windchill:Wind:
Aussen-T/F 1901 17-12-2020 09:00:00 7.79167 C 7.99 g/m*3 7.79 C 0.53333 km/h
1902 17-12-2020 10:00:00 8.94167 C 8.61 g/m*3 8.94 C 2.80833 km/h
1903 17-12-2020 11:00:00 9.04167 C 8.66 g/m*3 9.04 C 4.00833 km/h
1904 17-12-2020 12:00:00 8.85833 C 8.4 g/m*3 7.71 C 7.8 km/h
1905 17-12-2020 13:00:00 9.70833 C 8.36 g/m*3 8.34 C 9.65833 km/h
1906 17-12-2020 14:00:00 10.175 C 8.27 g/m*3 9.2 C 8.05833 km/h
1907 17-12-2020 15:00:00 9.58333 C 7.92 g/m*3 8.48 C 8.19167 km/h
1908 17-12-2020 16:00:00 8.56667 C 7.57 g/m*3 7.57 C 6.95833 km/h
1909 17-12-2020 17:00:00 7.29167 C 7.21 g/m*3 6.4 C 5.86667 km/h
1910 17-12-2020 18:00:00 6.69167 C 7.11 g/m*3 6.69 C 3.86667 km/h
1911 17-12-2020 19:00:00 5.05833 C 6.37 g/m*3 5.06 C 0.53333 km/h
1912 17-12-2020 20:00:00 4.93333 C 6.46 g/m*3 4.93 C 3.2 km/h
1913 17-12-2020 21:00:00 5.03333 C 6.54 g/m*3 5.03 C 0.8 km/h
1914 17-12-2020 22:00:00 4.85 C 6.46 g/m*3 4.85 C 0.26667 km/h
1915 17-12-2020 23:00:00 4.63333 C 6.39 g/m*3 4.63 C 0 km/h
1916 18-12-2020 00:00:00 4.14167 C 6.18 g/m*3 4.14 C 0 km/h
1917 18-12-2020 01:00:00 4.53333 C 6.39 g/m*3 4.53 C 0.53333 km/h
1918 18-12-2020 02:00:00 4.24167 C 6.26 g/m*3 4.24 C 0 km/h
1919 18-12-2020 03:00:00 3.4 C 5.9 g/m*3 3.4 C 0.13333 km/h
1920 18-12-2020 04:00:00 4.05 C 6.19 g/m*3 4.05 C 0.26667 km/h
1921 18-12-2020 05:00:00 3.79167 C 6.07 g/m*3 3.79 C 0.13333 km/h
1922 18-12-2020 06:00:00 3.025 C 5.78 g/m*3 3.03 C 0 km/h
1923 18-12-2020 07:00:00 2.59167 C 5.61 g/m*3 2.59 C 0.13333 km/h
1924 18-12-2020 08:00:00 2.35 C 5.52 g/m*3 2.35 C 0 km/h
1925 18-12-2020 09:00:00 2.45 C 5.56 g/m*3 2.45 C 0 km/h
Sensor: Nr:Datum:Temp:Abs-Feuchte:Windchill:Wind:
Aussen-T/F 1926 18-12-2020 10:00:00 2.36667 C 5.53 g/m*3 2.37 C 0 km/h
1927 18-12-2020 11:00:00 2.875 C 5.73 g/m*3 2.88 C 0.26667 km/h
1928 18-12-2020 12:00:00 4.3 C 6.36 g/m*3 4.3 C 2.53333 km/h
1929 18-12-2020 13:00:00 6.65833 C 7.43 g/m*3 6.66 C 0 km/h
1930 18-12-2020 14:00:00 6.8 C 7.5 g/m*3 6.8 C 1.73333 km/h
1931 18-12-2020 15:00:00 5.925 C 7.03 g/m*3 5.93 C 3.2 km/h
1932 18-12-2020 16:00:00 5.38333 C 6.78 g/m*3 5.38 C 3.49167 km/h
1933 18-12-2020 17:00:00 5.66667 C 6.92 g/m*3 5.67 C 3.34167 km/h
1934 18-12-2020 18:00:00 4.95833 C 6.57 g/m*3 4.96 C 1.6 km/h
1935 18-12-2020 19:00:00 4.88333 C 6.55 g/m*3 4.88 C 0.26667 km/h
1936 18-12-2020 20:00:00 3.94167 C 6.14 g/m*3 3.94 C 0.4 km/h
1937 18-12-2020 21:00:00 3.85 C 6.12 g/m*3 3.85 C 1.2 km/h
1938 18-12-2020 22:00:00 5.53333 C 6.9 g/m*3 5.53 C 1.88333 km/h
1939 18-12-2020 23:00:00 5.90833 C 7.07 g/m*3 5.91 C 0.93333 km/h
1940 19-12-2020 00:00:00 4.98333 C 6.6 g/m*3 4.98 C 1.33333 km/h
1941 19-12-2020 01:00:00 3.89167 C 6.12 g/m*3 3.89 C 2.26667 km/h
1942 19-12-2020 02:00:00 3.79167 C 6.08 g/m*3 3.79 C 2.26667 km/h
1943 19-12-2020 03:00:00 4.425 C 6.39 g/m*3 4.43 C 0.4 km/h
1944 19-12-2020 04:00:00 4.20833 C 6.26 g/m*3 4.21 C 0.53333 km/h
1945 19-12-2020 05:00:00 4.05 C 6.24 g/m*3 4.05 C 0.93333 km/h
1946 19-12-2020 06:00:00 3.65833 C 6.04 g/m*3 3.66 C 1.46667 km/h
1947 19-12-2020 07:00:00 3.3 C 5.88 g/m*3 3.3 C 1.06667 km/h
1948 19-12-2020 08:00:00 2.99167 C 5.78 g/m*3 2.99 C 0 km/h
1949 19-12-2020 09:00:00 2.5 C 5.59 g/m*3 2.5 C 0.26667 km/h
1950 19-12-2020 10:00:00 2.94167 C 5.78 g/m*3 2.94 C 0.93333 km/h
Sensor: Nr:Datum:Temp:Abs-Feuchte:Windchill:Wind:
Aussen-T/F 1951 19-12-2020 11:00:00 5.43333 C 6.85 g/m*3 5.43 C 3.46667 km/h
1952 19-12-2020 12:00:00 7.04167 C 7.61 g/m*3 7.04 C 3.86667 km/h
1953 19-12-2020 13:00:00 8.13333 C 8.19 g/m*3 8.13 C 3.86667 km/h
1954 19-12-2020 14:00:00 9.1 C 8.7 g/m*3 9.1 C 3.33333 km/h
1955 19-12-2020 15:00:00 9.36667 C 8.78 g/m*3 9.37 C 3.75 km/h
1956 19-12-2020 16:00:00 8.89167 C 8.16 g/m*3 8.89 C 2.26667 km/h
1957 19-12-2020 17:00:00 8.525 C 7.89 g/m*3 8.53 C 3.20833 km/h
1958 19-12-2020 18:00:00 8.8 C 7.73 g/m*3 8.8 C 4.95833 km/h
1959 19-12-2020 19:00:00 8.8 C 7.66 g/m*3 8.8 C 4.275 km/h
1960 19-12-2020 20:00:00 8.825 C 7.71 g/m*3 8.82 C 4.68333 km/h
1961 19-12-2020 21:00:00 8.75833 C 7.67 g/m*3 8.76 C 4.275 km/h
1962 19-12-2020 22:00:00 8.6 C 7.67 g/m*3 8.6 C 1.6 km/h
1963 19-12-2020 23:00:00 8.33333 C 7.71 g/m*3 8.33 C 0.93333 km/h
1964 20-12-2020 00:00:00 8.25 C 7.69 g/m*3 8.25 C 4.69167 km/h
1965 20-12-2020 01:00:00 8.125 C 7.57 g/m*3 8.13 C 1.74167 km/h
1966 20-12-2020 02:00:00 8.125 C 7.61 g/m*3 8.13 C 1.06667 km/h
1967 20-12-2020 03:00:00 7.89167 C 7.51 g/m*3 7.89 C 2.13333 km/h
1968 20-12-2020 04:00:00 8.09167 C 7.65 g/m*3 8.09 C 1.86667 km/h
1969 20-12-2020 05:00:00 7.71667 C 7.62 g/m*3 7.72 C 0.26667 km/h
1970 20-12-2020 06:00:00 7.5 C 7.6 g/m*3 7.5 C 0 km/h
1971 20-12-2020 07:00:00 7.46667 C 7.65 g/m*3 7.47 C 0.13333 km/h
1972 20-12-2020 08:00:00 7.25833 C 7.56 g/m*3 7.26 C 1.06667 km/h
1973 20-12-2020 09:00:00 7.13333 C 7.5 g/m*3 7.13 C 0 km/h
1974 20-12-2020 10:00:00 7.55 C 7.78 g/m*3 7.55 C 0 km/h
1975 20-12-2020 11:00:00 8.58333 C 8.33 g/m*3 8.58 C 3.2 km/h
Sensor: Nr:Datum:Temp:Abs-Feuchte:Windchill:Wind:
Aussen-T/F 1976 20-12-2020 12:00:00 9.65 C 8.85 g/m*3 9.65 C 3.46667 km/h
1977 20-12-2020 13:00:00 10.01667 C 8.85 g/m*3 10.02 C 4.95 km/h
1978 20-12-2020 14:00:00 10.15833 C 8.83 g/m*3 10.16 C 0.93333 km/h
1979 20-12-2020 15:00:00 9.74167 C 8.6 g/m*3 9.74 C 0.13333 km/h
1980 20-12-2020 16:00:00 9.21667 C 8.31 g/m*3 9.22 C 1.86667 km/h
1981 20-12-2020 17:00:00 8.66667 C 7.98 g/m*3 8.67 C 3.2 km/h
1982 20-12-2020 18:00:00 8.23333 C 7.77 g/m*3 8.23 C 4.4 km/h
1983 20-12-2020 19:00:00 7.175 C 7.24 g/m*3 7.18 C 0.93333 km/h
1984 20-12-2020 20:00:00 5.85 C 6.76 g/m*3 5.85 C 0.13333 km/h
1985 20-12-2020 21:00:00 6.05 C 6.98 g/m*3 6.05 C 0.4 km/h
1986 20-12-2020 22:00:00 6.26667 C 7.12 g/m*3 6.27 C 2.675 km/h
1987 20-12-2020 23:00:00 7.01667 C 7.48 g/m*3 6.03 C 6.025 km/h
1988 21-12-2020 00:00:00 7.05 C 7.38 g/m*3 7.05 C 3.33333 km/h
1989 21-12-2020 01:00:00 5.825 C 6.74 g/m*3 5.83 C 0 km/h
1990 21-12-2020 02:00:00 4.99167 C 6.47 g/m*3 4.99 C 0 km/h
1991 21-12-2020 03:00:00 4.29167 C 6.2 g/m*3 4.29 C 0 km/h
1992 21-12-2020 04:00:00 4.7 C 6.43 g/m*3 4.7 C 0 km/h
1993 21-12-2020 05:00:00 4.725 C 6.43 g/m*3 4.72 C 0 km/h
1994 21-12-2020 06:00:00 4.25 C 6.24 g/m*3 4.25 C 1.2 km/h
1995 21-12-2020 07:00:00 5.8 C 6.97 g/m*3 5.8 C 2.26667 km/h
1996 21-12-2020 08:00:00 5.26667 C 6.7 g/m*3 5.27 C 0 km/h
1997 21-12-2020 09:00:00 5.26667 C 6.71 g/m*3 5.27 C 0.26667 km/h
1998 21-12-2020 10:00:00 6.13333 C 7.1 g/m*3 6.13 C 0.66667 km/h
1999 21-12-2020 11:00:00 7.39167 C 7.71 g/m*3 7.39 C 1.86667 km/h
2000 21-12-2020 12:00:00 8.575 C 8.16 g/m*3 8.57 C 3.33333 km/h
Sensor: Nr:Datum:Temp:Abs-Feuchte:Windchill:Wind:
Aussen-T/F 2001 21-12-2020 13:00:00 9.71667 C 8.17 g/m*3 9.72 C 4.95 km/h
2002 21-12-2020 14:00:00 9.8 C 8.05 g/m*3 9.8 C 0.93333 km/h
2003 21-12-2020 15:00:00 8.90833 C 8.06 g/m*3 8.91 C 0.4 km/h
2004 21-12-2020 16:00:00 8.23333 C 7.88 g/m*3 8.23 C 0.13333 km/h
2005 21-12-2020 17:00:00 7.86667 C 7.81 g/m*3 7.87 C 0.66667 km/h
2006 21-12-2020 18:00:00 7.99167 C 7.93 g/m*3 7.99 C 2.13333 km/h
2007 21-12-2020 19:00:00 8.18333 C 8.05 g/m*3 8.18 C 1.2 km/h
2008 21-12-2020 20:00:00 8.35833 C 8.21 g/m*3 8.36 C 1.46667 km/h
2009 21-12-2020 21:00:00 8.75 C 8.42 g/m*3 8.1 C 5.76667 km/h
2010 21-12-2020 22:00:00 9.26667 C 8.69 g/m*3 7.97 C 8.86667 km/h
2011 21-12-2020 23:00:00 9.69167 C 8.85 g/m*3 9.69 C 4.14167 km/h
2012 22-12-2020 00:00:00 10.33333 C 9.18 g/m*3 8.83 C 11.275 km/h
2013 22-12-2020 01:00:00 11.35 C 9.56 g/m*3 11.35 C 15.43333 km/h
2014 22-12-2020 02:00:00 11.99167 C 9.88 g/m*3 11.99 C 14.5 km/h
2015 22-12-2020 03:00:00 12.76667 C 10.2 g/m*3 12.77 C 17.30833 km/h
2016 22-12-2020 04:00:00 13.18333 C 10.39 g/m*3 13.18 C 14.63333 km/h
2017 22-12-2020 05:00:00 13.225 C 10.57 g/m*3 13.23 C 19.03333 km/h
2018 22-12-2020 06:00:00 13.41667 C 10.66 g/m*3 13.42 C 18.5 km/h
2019 22-12-2020 07:00:00 13.6 C 10.71 g/m*3 13.6 C 15.56667 km/h
2020 22-12-2020 08:00:00 13.51667 C 10.65 g/m*3 13.52 C 16.76667 km/h
2021 22-12-2020 09:00:00 13.64167 C 10.74 g/m*3 13.64 C 14.63333 km/h
2022 22-12-2020 10:00:00 13.85833 C 10.95 g/m*3 13.86 C 14.36667 km/h
2023 22-12-2020 11:00:00 14.25833 C 11.22 g/m*3 14.26 C 12.76667 km/h
2024 22-12-2020 12:00:00 14.46667 C 11.39 g/m*3 14.47 C 13.425 km/h
2025 22-12-2020 13:00:00 14.80833 C 11.39 g/m*3 14.81 C 13.3 km/h
Sensor: Nr:Datum:Temp:Abs-Feuchte:Windchill:Wind:
Aussen-T/F 2026 22-12-2020 14:00:00 14.81667 C 11.31 g/m*3 14.82 C 14.23333 km/h
2027 22-12-2020 15:00:00 14.48333 C 11.23 g/m*3 14.48 C 11.7 km/h
2028 22-12-2020 16:00:00 14.025 C 11.01 g/m*3 14.03 C 8.86667 km/h
2029 22-12-2020 17:00:00 13.59167 C 10.79 g/m*3 13.59 C 6.58333 km/h
2030 22-12-2020 18:00:00 13.20833 C 10.82 g/m*3 13.21 C 2.4 km/h
2031 22-12-2020 19:00:00 12.89167 C 10.76 g/m*3 12.89 C 2.26667 km/h
2032 22-12-2020 20:00:00 12.35 C 10.46 g/m*3 12.35 C 5.49167 km/h
2033 22-12-2020 21:00:00 11.83333 C 10.18 g/m*3 11.83 C 2.4 km/h
2034 22-12-2020 22:00:00 11.675 C 10.13 g/m*3 11.68 C 0 km/h
2035 22-12-2020 23:00:00 11.55833 C 10.06 g/m*3 11.56 C 0.26667 km/h
2036 23-12-2020 00:00:00 11.65833 C 10.12 g/m*3 11.66 C 0 km/h
2037 23-12-2020 01:00:00 11.76667 C 10.19 g/m*3 11.77 C 0.13333 km/h
2038 23-12-2020 02:00:00 11.65833 C 10.12 g/m*3 11.66 C 0.53333 km/h
2039 23-12-2020 03:00:00 11.65 C 10.11 g/m*3 11.65 C 0 km/h
2040 23-12-2020 04:00:00 11.61667 C 10.14 g/m*3 11.62 C 0.66667 km/h
2041 23-12-2020 05:00:00 11.49167 C 10.07 g/m*3 11.49 C 0.13333 km/h
2042 23-12-2020 06:00:00 11.23333 C 9.89 g/m*3 11.23 C 0 km/h
2043 23-12-2020 07:00:00 11.275 C 9.98 g/m*3 11.28 C 0.93333 km/h
2044 23-12-2020 08:00:00 11.55 C 10.15 g/m*3 11.55 C 2 km/h
2045 23-12-2020 09:00:00 11.6 C 10.19 g/m*3 11.6 C 0.4 km/h
2046 23-12-2020 10:00:00 11.875 C 10.36 g/m*3 11.88 C 1.06667 km/h
2047 23-12-2020 11:00:00 12.45 C 10.74 g/m*3 12.45 C 0.13333 km/h
2048 23-12-2020 12:00:00 12.6 C 10.84 g/m*3 12.6 C 0 km/h
2049 23-12-2020 13:00:00 12.81667 C 10.99 g/m*3 12.82 C 0.53333 km/h
2050 23-12-2020 14:00:00 12.825 C 10.99 g/m*3 12.83 C 2 km/h
Sensor: Nr:Datum:Temp:Abs-Feuchte:Windchill:Wind:
Aussen-T/F 2051 23-12-2020 15:00:00 12.55833 C 10.81 g/m*3 12.56 C 2.4 km/h
2052 23-12-2020 16:00:00 12.03333 C 10.47 g/m*3 12.03 C 2.8 km/h
2053 23-12-2020 17:00:00 11.59167 C 10.18 g/m*3 11.59 C 3.2 km/h
2054 23-12-2020 18:00:00 11.30833 C 10 g/m*3 11.31 C 6.3 km/h
2055 23-12-2020 19:00:00 11.44167 C 9.95 g/m*3 11.44 C 13.95833 km/h
2056 23-12-2020 20:00:00 11.61667 C 9.79 g/m*3 11.62 C 11.03333 km/h
2057 23-12-2020 21:00:00 11.71667 C 9.73 g/m*3 11.72 C 9.69167 km/h
2058 23-12-2020 22:00:00 11.575 C 9.66 g/m*3 11.58 C 8.175 km/h
2059 23-12-2020 23:00:00 11.025 C 8.76 g/m*3 11.03 C 14.36667 km/h
2060 24-12-2020 00:00:00 9.8 C 7.96 g/m*3 7.92 C 13.03333 km/h
2061 24-12-2020 01:00:00 8.88333 C 7.46 g/m*3 7.03 C 11.56667 km/h
2062 24-12-2020 02:00:00 8.60833 C 7.33 g/m*3 6.39 C 13.56667 km/h
2063 24-12-2020 03:00:00 8.13333 C 7.19 g/m*3 6.1 C 11.69167 km/h
2064 24-12-2020 04:00:00 8.075 C 7.08 g/m*3 6.17 C 10.89167 km/h
2065 24-12-2020 05:00:00 8.225 C 7.02 g/m*3 6.04 C 12.76667 km/h
2066 24-12-2020 06:00:00 7.94167 C 7.16 g/m*3 6.91 C 6.71667 km/h
2067 24-12-2020 07:00:00 7.975 C 7.2 g/m*3 5.68 C 13.16667 km/h
2068 24-12-2020 08:00:00 7.7 C 7.23 g/m*3 5.95 C 9.68333 km/h
2069 24-12-2020 09:00:00 7.39167 C 7.3 g/m*3 5.96 C 7.91667 km/h
2070 24-12-2020 10:00:00 7.55 C 7.46 g/m*3 6.38 C 6.975 km/h
2071 24-12-2020 11:00:00 8.225 C 7.6 g/m*3 7.1 C 7.25 km/h
2072 24-12-2020 12:00:00 8.48333 C 7.41 g/m*3 7.27 C 7.79167 km/h
2073 24-12-2020 13:00:00 8.96667 C 7.51 g/m*3 8.13 C 6.55833 km/h
2074 24-12-2020 14:00:00 6.775 C 6.91 g/m*3 3.77 C 16.23333 km/h
2075 24-12-2020 15:00:00 5.28333 C 6.42 g/m*3 3.04 C 9.81667 km/h
Sensor: Nr:Datum:Temp:Abs-Feuchte:Windchill:Wind:
Aussen-T/F 2076 24-12-2020 16:00:00 4.88333 C 6.32 g/m*3 4.88 C 4.825 km/h
2077 24-12-2020 17:00:00 4.525 C 6.19 g/m*3 4.53 C 4.28333 km/h
2078 24-12-2020 18:00:00 4.46667 C 6.22 g/m*3 4.47 C 3.08333 km/h
2079 24-12-2020 19:00:00 4.68333 C 6.36 g/m*3 4.68 C 3.34167 km/h
2080 24-12-2020 20:00:00 4.3 C 6.16 g/m*3 2.48 C 7.38333 km/h
2081 24-12-2020 21:00:00 4.29167 C 6.19 g/m*3 4.29 C 4.275 km/h
2082 24-12-2020 22:00:00 4.35833 C 6.22 g/m*3 4.36 C 4.69167 km/h
2083 24-12-2020 23:00:00 4.55833 C 6.28 g/m*3 3.3 C 5.75833 km/h
2084 25-12-2020 00:00:00 4.6 C 6.26 g/m*3 2.95 C 6.975 km/h
2085 25-12-2020 01:00:00 4.44167 C 6.15 g/m*3 3.36 C 5.21667 km/h
2086 25-12-2020 02:00:00 4.30833 C 6.1 g/m*3 4.31 C 4.14167 km/h
2087 25-12-2020 03:00:00 4.35 C 6.12 g/m*3 4.35 C 3.33333 km/h
2088 25-12-2020 04:00:00 4.30833 C 6.03 g/m*3 2.27 C 8.19167 km/h
2089 25-12-2020 05:00:00 4.19167 C 5.86 g/m*3 2.98 C 5.49167 km/h
2090 25-12-2020 06:00:00 3.89167 C 5.69 g/m*3 2.09 C 7.10833 km/h
2091 25-12-2020 07:00:00 3.74167 C 5.52 g/m*3 1.57 C 8.33333 km/h
2092 25-12-2020 08:00:00 3.275 C 5.29 g/m*3 1.05 C 8.19167 km/h
2093 25-12-2020 09:00:00 3.1 C 5.21 g/m*3 1.38 C 6.44167 km/h
2094 25-12-2020 10:00:00 2.89167 C 5.14 g/m*3 2.89 C 4.825 km/h
2095 25-12-2020 11:00:00 2.675 C 5.19 g/m*3 0.94 C 6.3 km/h
2096 25-12-2020 12:00:00 3.9 C 5.57 g/m*3 1.65 C 8.73333 km/h
2097 25-12-2020 13:00:00 4.08333 C 5.65 g/m*3 1.9 C 8.60833 km/h
2098 25-12-2020 14:00:00 4.35833 C 5.68 g/m*3 2.33 C 8.2 km/h
2099 25-12-2020 15:00:00 4.46667 C 5.76 g/m*3 4.47 C 3.49167 km/h
2100 25-12-2020 16:00:00 3.40833 C 5.52 g/m*3 3.41 C 1.2 km/h
Sensor: Nr:Datum:Temp:Abs-Feuchte:Windchill:Wind:
Aussen-T/F 2101 25-12-2020 17:00:00 2.11667 C 5.17 g/m*3 2.12 C 1.73333 km/h
2102 25-12-2020 18:00:00 1.625 C 5.1 g/m*3 1.63 C 3.46667 km/h
2103 25-12-2020 19:00:00 1.475 C 5.09 g/m*3 1.48 C 0.8 km/h
2104 25-12-2020 20:00:00 2.00833 C 5.33 g/m*3 2.01 C 2.26667 km/h
2105 25-12-2020 21:00:00 2.29167 C 5.43 g/m*3 2.29 C 0.8 km/h
2106 25-12-2020 22:00:00 2.23333 C 5.41 g/m*3 2.23 C 0.26667 km/h
2107 25-12-2020 23:00:00 2.575 C 5.55 g/m*3 2.58 C 0.26667 km/h
2108 26-12-2020 00:00:00 2.64167 C 5.57 g/m*3 2.64 C 0 km/h
2109 26-12-2020 01:00:00 2.48333 C 5.48 g/m*3 2.48 C 2.80833 km/h
2110 26-12-2020 02:00:00 2.3 C 5.39 g/m*3 0.19 C 7.25833 km/h
2111 26-12-2020 03:00:00 2.275 C 5.38 g/m*3 0.68 C 5.75833 km/h
2112 26-12-2020 04:00:00 2.15833 C 5.34 g/m*3 2.16 C 3.06667 km/h
2113 26-12-2020 05:00:00 1.975 C 5.27 g/m*3 1.98 C 0 km/h
2114 26-12-2020 06:00:00 1.39167 C 5.06 g/m*3 1.39 C 0.26667 km/h
2115 26-12-2020 07:00:00 0.95833 C 4.93 g/m*3 0.96 C 0.13333 km/h
2116 26-12-2020 08:00:00 0.83333 C 4.93 g/m*3 0.83 C 0.8 km/h
2117 26-12-2020 09:00:00 1.775 C 5.26 g/m*3 1.78 C 2.26667 km/h
2118 26-12-2020 10:00:00 2.60833 C 5.55 g/m*3 2.61 C 1.06667 km/h
2119 26-12-2020 11:00:00 3.64167 C 5.79 g/m*3 1.97 C 6.575 km/h
2120 26-12-2020 12:00:00 4.375 C 5.71 g/m*3 1.83 C 10.36667 km/h
2121 26-12-2020 13:00:00 4.575 C 5.65 g/m*3 2.22 C 9.69167 km/h
2122 26-12-2020 14:00:00 4.48333 C 5.52 g/m*3 2.08 C 9.81667 km/h
2123 26-12-2020 15:00:00 4.11667 C 5.35 g/m*3 2.12 C 7.925 km/h
2124 26-12-2020 16:00:00 3.9 C 5.24 g/m*3 1.58 C 9 km/h
2125 26-12-2020 17:00:00 3.9 C 5.25 g/m*3 2.27 C 6.56667 km/h
Sensor: Nr:Datum:Temp:Abs-Feuchte:Windchill:Wind:
Aussen-T/F 2126 26-12-2020 18:00:00 3.88333 C 5.24 g/m*3 1.56 C 9 km/h
2127 26-12-2020 19:00:00 3.43333 C 5.11 g/m*3 1.73 C 6.575 km/h
2128 26-12-2020 20:00:00 3.55 C 5.12 g/m*3 1.73 C 6.975 km/h
2129 26-12-2020 21:00:00 3.225 C 5.06 g/m*3 1.49 C 6.56667 km/h
2130 26-12-2020 22:00:00 3.025 C 5.06 g/m*3 0.8 C 8.05 km/h
2131 26-12-2020 23:00:00 2.9 C 4.98 g/m*3 0.36 C 9.14167 km/h
2132 27-12-2020 00:00:00 2.825 C 4.99 g/m*3 0.89 C 6.975 km/h
2133 27-12-2020 01:00:00 2.99167 C 5.05 g/m*3 0.3 C 9.81667 km/h
2134 27-12-2020 02:00:00 3.25833 C 5.08 g/m*3 1.27 C 7.375 km/h
2135 27-12-2020 03:00:00 3.15833 C 5.06 g/m*3 1.9 C 5.21667 km/h
2136 27-12-2020 04:00:00 3.24167 C 5.08 g/m*3 1.17 C 7.65833 km/h
2137 27-12-2020 05:00:00 3.4 C 5.08 g/m*3 0.83 C 9.66667 km/h
2138 27-12-2020 06:00:00 3.44167 C 5.1 g/m*3 1.21 C 8.33333 km/h
2139 27-12-2020 07:00:00 3.55 C 5.22 g/m*3 1.73 C 6.98333 km/h
2140 27-12-2020 08:00:00 3.83333 C 5.3 g/m*3 1.51 C 8.975 km/h
2141 27-12-2020 09:00:00 3.88333 C 5.4 g/m*3 1.28 C 10.20833 km/h
2142 27-12-2020 10:00:00 3.925 C 5.45 g/m*3 1.82 C 8.18333 km/h
2143 27-12-2020 11:00:00 4.56667 C 5.5 g/m*3 1.76 C 11.83333 km/h
2144 27-12-2020 12:00:00 4.625 C 5.68 g/m*3 2.4 C 9.15 km/h
2145 27-12-2020 13:00:00 4.16667 C 5.78 g/m*3 2.1 C 8.2 km/h
2146 27-12-2020 14:00:00 3.9 C 5.78 g/m*3 1.65 C 8.73333 km/h
2147 27-12-2020 15:00:00 3.8 C 5.83 g/m*3 1.64 C 8.325 km/h
2148 27-12-2020 16:00:00 3.8 C 5.85 g/m*3 2.34 C 6.025 km/h
2149 27-12-2020 17:00:00 3.85833 C 5.88 g/m*3 1.47 C 9.25833 km/h
2150 27-12-2020 18:00:00 3.74167 C 5.85 g/m*3 2.08 C 6.575 km/h
Sensor: Nr:Datum:Temp:Abs-Feuchte:Windchill:Wind:
Aussen-T/F 2151 27-12-2020 19:00:00 3.95833 C 5.95 g/m*3 1.68 C 8.875 km/h
2152 27-12-2020 20:00:00 4.1 C 6.02 g/m*3 3.03 C 5.08333 km/h
2153 27-12-2020 21:00:00 4.13333 C 6.05 g/m*3 3.01 C 5.21667 km/h
2154 27-12-2020 22:00:00 4.1 C 6.08 g/m*3 4.1 C 1.46667 km/h
2155 27-12-2020 23:00:00 4.10833 C 6.12 g/m*3 4.11 C 1.6 km/h
2156 28-12-2020 00:00:00 4.15 C 6.17 g/m*3 4.15 C 1.6 km/h
2157 28-12-2020 01:00:00 4.11667 C 6.15 g/m*3 4.12 C 0.66667 km/h
2158 28-12-2020 02:00:00 3.78333 C 6.02 g/m*3 3.78 C 0.53333 km/h
2159 28-12-2020 03:00:00 3.66667 C 5.99 g/m*3 3.67 C 1.46667 km/h
2160 28-12-2020 04:00:00 3.725 C 6.04 g/m*3 3.73 C 2.01667 km/h
2161 28-12-2020 05:00:00 3.86667 C 6.11 g/m*3 3.87 C 0.8 km/h
2162 28-12-2020 06:00:00 3.71667 C 6.03 g/m*3 3.72 C 1.06667 km/h
2163 28-12-2020 07:00:00 3.08333 C 5.74 g/m*3 3.08 C 0.8 km/h
2164 28-12-2020 08:00:00 2 C 5.33 g/m*3 2 C 2.4 km/h
2165 28-12-2020 09:00:00 2.55 C 5.59 g/m*3 2.55 C 0.93333 km/h
2166 28-12-2020 10:00:00 3.8 C 6.09 g/m*3 3.8 C 0 km/h
2167 28-12-2020 11:00:00 4.59167 C 6.42 g/m*3 4.59 C 0.66667 km/h
2168 28-12-2020 12:00:00 5.04167 C 6.49 g/m*3 5.04 C 3.33333 km/h
2169 28-12-2020 13:00:00 5.59167 C 6.59 g/m*3 5.59 C 0.8 km/h
2170 28-12-2020 14:00:00 5.675 C 6.68 g/m*3 5.68 C 1.06667 km/h
2171 28-12-2020 15:00:00 5.15 C 6.45 g/m*3 5.15 C 3.48333 km/h
2172 28-12-2020 16:00:00 4.68333 C 6.28 g/m*3 4.68 C 3.475 km/h
2173 28-12-2020 17:00:00 4.01667 C 6.03 g/m*3 4.02 C 0.8 km/h
2174 28-12-2020 18:00:00 3.81667 C 5.99 g/m*3 3.82 C 0.4 km/h
2175 28-12-2020 19:00:00 3.21667 C 5.76 g/m*3 3.22 C 1.73333 km/h
Sensor: Nr:Datum:Temp:Abs-Feuchte:Windchill:Wind:
Aussen-T/F 2176 28-12-2020 20:00:00 1.95 C 5.27 g/m*3 1.95 C 2 km/h
2177 28-12-2020 21:00:00 2.64167 C 5.58 g/m*3 2.64 C 0 km/h
2178 28-12-2020 22:00:00 1.64167 C 5.2 g/m*3 1.64 C 2.13333 km/h
2179 28-12-2020 23:00:00 1.70833 C 5.25 g/m*3 1.71 C 2.13333 km/h
2180 29-12-2020 00:00:00 2.58333 C 5.59 g/m*3 2.58 C 1.875 km/h
2181 29-12-2020 01:00:00 2.6 C 5.56 g/m*3 2.6 C 0.8 km/h
2182 29-12-2020 02:00:00 2.58333 C 5.55 g/m*3 2.58 C 3.33333 km/h
2183 29-12-2020 03:00:00 1.86667 C 5.26 g/m*3 1.87 C 2.4 km/h
2184 29-12-2020 04:00:00 2 C 5.35 g/m*3 2 C 0 km/h
2185 29-12-2020 05:00:00 2.39167 C 5.48 g/m*3 2.39 C 0 km/h
2186 29-12-2020 06:00:00 2.38333 C 5.5 g/m*3 2.38 C 1.73333 km/h
2187 29-12-2020 07:00:00 2.64167 C 5.63 g/m*3 1.26 C 5.35833 km/h
2188 29-12-2020 08:00:00 2.93333 C 5.74 g/m*3 2.93 C 4.28333 km/h
2189 29-12-2020 09:00:00 3.2 C 5.83 g/m*3 0.96 C 8.2 km/h
2190 29-12-2020 10:00:00 3.53333 C 5.9 g/m*3 2.08 C 5.89167 km/h
2191 29-12-2020 11:00:00 4.03333 C 5.9 g/m*3 0.75 C 13.83333 km/h
2192 29-12-2020 12:00:00 4.78333 C 5.98 g/m*3 1.42 C 15.43333 km/h
2193 29-12-2020 13:00:00 5.00833 C 5.91 g/m*3 1.88 C 14.23333 km/h
2194 29-12-2020 14:00:00 5 C 5.9 g/m*3 3.05 C 8.31667 km/h
2195 29-12-2020 15:00:00 4.90833 C 6.05 g/m*3 4.91 C 2.81667 km/h
2196 29-12-2020 16:00:00 4.35833 C 5.97 g/m*3 4.36 C 2.4 km/h
2197 29-12-2020 17:00:00 3.85 C 5.85 g/m*3 3.85 C 1.73333 km/h
2198 29-12-2020 18:00:00 3.13333 C 5.56 g/m*3 3.13 C 1.86667 km/h
2199 29-12-2020 19:00:00 2.00833 C 5.22 g/m*3 2.01 C 2.66667 km/h
2200 29-12-2020 20:00:00 1.83333 C 5.24 g/m*3 1.83 C 0 km/h
Sensor: Nr:Datum:Temp:Abs-Feuchte:Windchill:Wind:
Aussen-T/F 2201 29-12-2020 21:00:00 1.65833 C 5.17 g/m*3 1.66 C 0.4 km/h
2202 29-12-2020 22:00:00 1.16667 C 5.03 g/m*3 1.17 C 1.2 km/h
2203 29-12-2020 23:00:00 1.39167 C 5.12 g/m*3 1.39 C 0 km/h
2204 30-12-2020 00:00:00 1.925 C 5.32 g/m*3 1.93 C 0 km/h
2205 30-12-2020 01:00:00 2.025 C 5.34 g/m*3 2.03 C 0 km/h
2206 30-12-2020 02:00:00 2.26667 C 5.47 g/m*3 2.27 C 0 km/h
2207 30-12-2020 03:00:00 2.54167 C 5.59 g/m*3 2.54 C 0 km/h
2208 30-12-2020 04:00:00 2.61667 C 5.62 g/m*3 2.62 C 0 km/h
2209 30-12-2020 05:00:00 2.78333 C 5.68 g/m*3 2.78 C 0 km/h
2210 30-12-2020 06:00:00 2.96667 C 5.75 g/m*3 2.97 C 0 km/h
2211 30-12-2020 07:00:00 3.45833 C 5.95 g/m*3 3.46 C 1.6 km/h
2212 30-12-2020 08:00:00 3.625 C 6.01 g/m*3 3.63 C 1.2 km/h
2213 30-12-2020 09:00:00 3.78333 C 6.08 g/m*3 3.78 C 1.6 km/h
2214 30-12-2020 10:00:00 4.2 C 6.25 g/m*3 4.2 C 2.26667 km/h
2215 30-12-2020 11:00:00 4.45 C 6.26 g/m*3 2.95 C 6.43333 km/h
2216 30-12-2020 12:00:00 4.75 C 6.18 g/m*3 2.65 C 8.74167 km/h
2217 30-12-2020 13:00:00 5.06667 C 5.93 g/m*3 3.27 C 7.78333 km/h
2218 30-12-2020 14:00:00 5.675 C 6.07 g/m*3 5.68 C 4.54167 km/h
2219 30-12-2020 15:00:00 5.79167 C 5.95 g/m*3 4.23 C 7.375 km/h
2220 30-12-2020 16:00:00 5.475 C 5.92 g/m*3 3.68 C 8.05 km/h
2221 30-12-2020 17:00:00 4.9 C 5.72 g/m*3 3.22 C 7.24167 km/h
2222 30-12-2020 18:00:00 4.65 C 5.7 g/m*3 2.37 C 9.41667 km/h
2223 30-12-2020 19:00:00 4.34167 C 5.71 g/m*3 3.2 C 5.35 km/h
2224 30-12-2020 20:00:00 4.28333 C 5.7 g/m*3 2.89 C 6.04167 km/h
2225 30-12-2020 21:00:00 4.23333 C 5.7 g/m*3 4.23 C 4.55 km/h
Sensor: Nr:Datum:Temp:Abs-Feuchte:Windchill:Wind:
Aussen-T/F 2226 30-12-2020 22:00:00 4 C 5.66 g/m*3 4 C 2 km/h
2227 30-12-2020 23:00:00 4.01667 C 5.7 g/m*3 4.02 C 1.875 km/h
2228 31-12-2020 00:00:00 4.03333 C 5.68 g/m*3 4.03 C 1.46667 km/h
2229 31-12-2020 01:00:00 3.43333 C 5.53 g/m*3 3.43 C 0.66667 km/h
2230 31-12-2020 02:00:00 3.175 C 5.51 g/m*3 3.18 C 1.46667 km/h
2231 31-12-2020 03:00:00 2.84167 C 5.4 g/m*3 2.84 C 0.66667 km/h
2232 31-12-2020 04:00:00 2.78333 C 5.39 g/m*3 2.78 C 0 km/h
2233 31-12-2020 05:00:00 2.80833 C 5.44 g/m*3 2.81 C 0.26667 km/h
2234 31-12-2020 06:00:00 2.95833 C 5.56 g/m*3 2.96 C 0 km/h
2235 31-12-2020 07:00:00 2.79167 C 5.51 g/m*3 2.79 C 1.06667 km/h
2236 31-12-2020 08:00:00 2.69167 C 5.47 g/m*3 2.69 C 2.53333 km/h
2237 31-12-2020 09:00:00 2.68333 C 5.48 g/m*3 2.68 C 1.06667 km/h
2238 31-12-2020 10:00:00 3.16667 C 5.66 g/m*3 3.17 C 0.93333 km/h
2239 31-12-2020 11:00:00 3.75833 C 5.72 g/m*3 3.76 C 3.6 km/h
2240 31-12-2020 12:00:00 4.05 C 5.77 g/m*3 4.05 C 3.21667 km/h
2241 31-12-2020 13:00:00 3.79167 C 5.75 g/m*3 3.79 C 1.2 km/h
2242 31-12-2020 14:00:00 3.85833 C 5.82 g/m*3 3.86 C 0.53333 km/h
2243 31-12-2020 15:00:00 3.59167 C 5.71 g/m*3 3.59 C 0.66667 km/h
2244 31-12-2020 16:00:00 3 C 5.56 g/m*3 3 C 0.26667 km/h
2245 31-12-2020 17:00:00 2.73333 C 5.52 g/m*3 2.73 C 0.13333 km/h
2246 31-12-2020 18:00:00 2.71667 C 5.54 g/m*3 2.72 C 0 km/h
2247 31-12-2020 19:00:00 2.625 C 5.51 g/m*3 2.63 C 0.26667 km/h
2248 31-12-2020 20:00:00 2.38333 C 5.42 g/m*3 2.38 C 0 km/h
2249 31-12-2020 21:00:00 2.225 C 5.4 g/m*3 2.23 C 0 km/h
2250 31-12-2020 22:00:00 2.15 C 5.37 g/m*3 2.15 C 0 km/h
Sensor: Nr:Datum:Temp:Abs-Feuchte:Windchill:Wind:
Aussen-T/F 2251 31-12-2020 23:00:00 1.26667 C 5.02 g/m*3 1.27 C 0 km/h
2252 01-01-2021 00:00:00 1.1 C 5.01 g/m*3 1.1 C 0 km/h
2253 01-01-2021 01:00:00 1.16667 C 5.04 g/m*3 1.17 C 0 km/h
2254 01-01-2021 02:00:00 1.425 C 5.13 g/m*3 1.43 C 0 km/h
2255 01-01-2021 03:00:00 1.725 C 5.25 g/m*3 1.73 C 0.13333 km/h
2256 01-01-2021 04:00:00 1.88333 C 5.35 g/m*3 1.88 C 1.46667 km/h
2257 01-01-2021 05:00:00 2.05833 C 5.41 g/m*3 2.06 C 0.53333 km/h
2258 01-01-2021 06:00:00 2.24167 C 5.48 g/m*3 2.24 C 0 km/h
2259 01-01-2021 07:00:00 2.425 C 5.55 g/m*3 2.42 C 0.26667 km/h
2260 01-01-2021 08:00:00 2.5 C 5.58 g/m*3 2.5 C 0.26667 km/h
2261 01-01-2021 09:00:00 2.55 C 5.59 g/m*3 2.55 C 0 km/h
2262 01-01-2021 10:00:00 2.73333 C 5.66 g/m*3 2.73 C 0 km/h
2263 01-01-2021 11:00:00 2.99167 C 5.76 g/m*3 2.99 C 2.53333 km/h
2264 01-01-2021 12:00:00 2.95 C 5.75 g/m*3 2.95 C 2 km/h
2265 01-01-2021 13:00:00 3.025 C 5.72 g/m*3 3.03 C 2 km/h
2266 01-01-2021 14:00:00 3.075 C 5.74 g/m*3 3.08 C 0.53333 km/h
2267 01-01-2021 15:00:00 3.13333 C 5.76 g/m*3 3.13 C 1.2 km/h
2268 01-01-2021 16:00:00 2.9 C 5.67 g/m*3 2.9 C 0.8 km/h
2269 01-01-2021 17:00:00 2.68333 C 5.59 g/m*3 2.68 C 0 km/h
2270 01-01-2021 18:00:00 2.525 C 5.53 g/m*3 2.53 C 0 km/h
2271 01-01-2021 19:00:00 1.80833 C 5.27 g/m*3 1.81 C 0 km/h
2272 01-01-2021 20:00:00 1.26667 C 5.07 g/m*3 1.27 C 0 km/h
2273 01-01-2021 21:00:00 0.8 C 4.91 g/m*3 0.8 C 0 km/h
2274 01-01-2021 22:00:00 0.60833 C 4.88 g/m*3 0.61 C 0 km/h
2275 01-01-2021 23:00:00 0.76667 C 4.95 g/m*3 0.77 C 0 km/h
Sensor: Nr:Datum:Temp:Abs-Feuchte:Windchill:Wind:
Aussen-T/F 2276 02-01-2021 00:00:00 0.80833 C 4.97 g/m*3 0.81 C 1.2 km/h
2277 02-01-2021 01:00:00 0.75 C 4.95 g/m*3 0.75 C 1.33333 km/h
2278 02-01-2021 02:00:00 0.75833 C 4.95 g/m*3 0.76 C 0 km/h
2279 02-01-2021 03:00:00 0.675 C 4.92 g/m*3 0.68 C 0.8 km/h
2280 02-01-2021 04:00:00 0.375 C 4.82 g/m*3 0.38 C 2 km/h
2281 02-01-2021 05:00:00 0.325 C 4.81 g/m*3 0.33 C 3.06667 km/h
2282 02-01-2021 06:00:00 0.425 C 4.84 g/m*3 0.43 C 3.46667 km/h
2283 02-01-2021 07:00:00 0.40833 C 4.83 g/m*3 0.41 C 3.86667 km/h
2284 02-01-2021 08:00:00 0.4 C 4.83 g/m*3 0.4 C 1.86667 km/h
2285 02-01-2021 09:00:00 0.53333 C 4.88 g/m*3 0.53 C 1.06667 km/h
2286 02-01-2021 10:00:00 0.81667 C 4.97 g/m*3 0.82 C 0.8 km/h
2287 02-01-2021 11:00:00 1.3 C 5.13 g/m*3 1.3 C 0.4 km/h
2288 02-01-2021 12:00:00 1.85 C 5.27 g/m*3 1.85 C 0.8 km/h
2289 02-01-2021 13:00:00 2.23333 C 5.33 g/m*3 2.23 C 1.33333 km/h
2290 02-01-2021 14:00:00 2.425 C 5.38 g/m*3 2.42 C 0.66667 km/h
2291 02-01-2021 15:00:00 2.65 C 5.46 g/m*3 2.65 C 1.6 km/h
2292 02-01-2021 16:00:00 2.525 C 5.41 g/m*3 2.53 C 0.4 km/h
2293 02-01-2021 17:00:00 2.18333 C 5.34 g/m*3 2.18 C 0.4 km/h
2294 02-01-2021 18:00:00 2.03333 C 5.29 g/m*3 2.03 C 0 km/h
2295 02-01-2021 19:00:00 1.95833 C 5.3 g/m*3 1.96 C 0 km/h
2296 02-01-2021 20:00:00 1.9 C 5.3 g/m*3 1.9 C 0 km/h
2297 02-01-2021 21:00:00 1.89167 C 5.3 g/m*3 1.89 C 0 km/h
2298 02-01-2021 22:00:00 1.8 C 5.26 g/m*3 1.8 C 0 km/h
2299 02-01-2021 23:00:00 1.8 C 5.26 g/m*3 1.8 C 0 km/h
2300 03-01-2021 00:00:00 1.88333 C 5.29 g/m*3 1.88 C 0 km/h
Sensor: Nr:Datum:Temp:Abs-Feuchte:Windchill:Wind:
Aussen-T/F 2301 03-01-2021 01:00:00 1.8 C 5.26 g/m*3 1.8 C 3.20833 km/h
2302 03-01-2021 02:00:00 1.74167 C 5.18 g/m*3 1.74 C 1.73333 km/h
2303 03-01-2021 03:00:00 2.04167 C 5.04 g/m*3 2.04 C 2.53333 km/h
2304 03-01-2021 04:00:00 2.26667 C 5.06 g/m*3 2.27 C 2.66667 km/h
2305 03-01-2021 05:00:00 2.11667 C 5.09 g/m*3 2.12 C 0.66667 km/h
2306 03-01-2021 06:00:00 2.05833 C 5.1 g/m*3 2.06 C 0.93333 km/h
2307 03-01-2021 07:00:00 1.99167 C 5.03 g/m*3 1.99 C 1.46667 km/h
2308 03-01-2021 08:00:00 2.29167 C 4.99 g/m*3 2.29 C 1.73333 km/h
2309 03-01-2021 09:00:00 2.375 C 5.09 g/m*3 2.38 C 0 km/h
2310 03-01-2021 10:00:00 2.60833 C 5.12 g/m*3 2.61 C 1.60833 km/h
2311 03-01-2021 11:00:00 3.08333 C 5.17 g/m*3 3.08 C 3.875 km/h
2312 03-01-2021 12:00:00 3.375 C 5.2 g/m*3 1.53 C 6.975 km/h
2313 03-01-2021 13:00:00 3.49167 C 5.26 g/m*3 3.49 C 3.74167 km/h
2314 03-01-2021 14:00:00 3.71667 C 5.34 g/m*3 2.39 C 5.61667 km/h
2315 03-01-2021 15:00:00 3.75 C 5.42 g/m*3 3.75 C 3.2 km/h
2316 03-01-2021 16:00:00 3.51667 C 5.43 g/m*3 3.52 C 4.00833 km/h
2317 03-01-2021 17:00:00 3.25833 C 5.43 g/m*3 3.26 C 0.93333 km/h
2318 03-01-2021 18:00:00 2.925 C 5.43 g/m*3 2.93 C 0.26667 km/h
2319 03-01-2021 19:00:00 2.66667 C 5.41 g/m*3 2.67 C 0.53333 km/h
2320 03-01-2021 20:00:00 2.51667 C 5.41 g/m*3 2.52 C 0.13333 km/h
2321 03-01-2021 21:00:00 2.46667 C 5.39 g/m*3 2.47 C 0.4 km/h
2322 03-01-2021 22:00:00 2.375 C 5.36 g/m*3 2.38 C 0 km/h
2323 03-01-2021 23:00:00 2.3 C 5.34 g/m*3 2.3 C 0 km/h
2324 04-01-2021 00:00:00 2.225 C 5.36 g/m*3 2.23 C 0 km/h
2325 04-01-2021 01:00:00 2.06667 C 5.3 g/m*3 2.07 C 0 km/h
Sensor: Nr:Datum:Temp:Abs-Feuchte:Windchill:Wind:
Aussen-T/F 2326 04-01-2021 02:00:00 1.85833 C 5.23 g/m*3 1.86 C 0.13333 km/h
2327 04-01-2021 03:00:00 1.78333 C 5.2 g/m*3 1.78 C 0.13333 km/h
2328 04-01-2021 04:00:00 1.63333 C 5.19 g/m*3 1.63 C 0 km/h
2329 04-01-2021 05:00:00 1.39167 C 5.1 g/m*3 1.39 C 0 km/h
2330 04-01-2021 06:00:00 1.06667 C 4.99 g/m*3 1.07 C 0 km/h
2331 04-01-2021 07:00:00 0.90833 C 4.95 g/m*3 0.91 C 0 km/h
2332 04-01-2021 08:00:00 0.96667 C 4.97 g/m*3 0.97 C 0 km/h
2333 04-01-2021 09:00:00 1.14167 C 5.03 g/m*3 1.14 C 0 km/h
2334 04-01-2021 10:00:00 1.31667 C 5.09 g/m*3 1.32 C 0.13333 km/h
2335 04-01-2021 11:00:00 1.60833 C 5.23 g/m*3 1.61 C 0 km/h
2336 04-01-2021 12:00:00 1.81667 C 5.32 g/m*3 1.82 C 0.13333 km/h
2337 04-01-2021 13:00:00 1.975 C 5.38 g/m*3 1.98 C 0.53333 km/h
2338 04-01-2021 14:00:00 2.025 C 5.4 g/m*3 2.03 C 0.26667 km/h
2339 04-01-2021 15:00:00 2 C 5.39 g/m*3 2 C 0.26667 km/h
2340 04-01-2021 16:00:00 1.93333 C 5.37 g/m*3 1.93 C 0 km/h
2341 04-01-2021 17:00:00 1.80833 C 5.32 g/m*3 1.81 C 0 km/h
2342 04-01-2021 18:00:00 1.8 C 5.32 g/m*3 1.8 C 0.66667 km/h
2343 04-01-2021 19:00:00 1.8 C 5.32 g/m*3 1.8 C 1.06667 km/h
2344 04-01-2021 20:00:00 1.75 C 5.3 g/m*3 1.75 C 0 km/h
2345 04-01-2021 21:00:00 1.70833 C 5.28 g/m*3 1.71 C 0 km/h
2346 04-01-2021 22:00:00 1.775 C 5.31 g/m*3 1.78 C 0 km/h
2347 04-01-2021 23:00:00 1.8 C 5.32 g/m*3 1.8 C 0.53333 km/h
2348 05-01-2021 00:00:00 1.84167 C 5.33 g/m*3 1.84 C 0.4 km/h
2349 05-01-2021 01:00:00 1.9 C 5.35 g/m*3 1.9 C 0.4 km/h
2350 05-01-2021 02:00:00 1.9 C 5.35 g/m*3 1.9 C 0.53333 km/h
Sensor: Nr:Datum:Temp:Abs-Feuchte:Windchill:Wind:
Aussen-T/F 2351 05-01-2021 03:00:00 1.99167 C 5.38 g/m*3 1.99 C 0.13333 km/h
2352 05-01-2021 04:00:00 2.1 C 5.37 g/m*3 2.1 C 0 km/h
2353 05-01-2021 05:00:00 2.08333 C 5.36 g/m*3 2.08 C 0 km/h
2354 05-01-2021 06:00:00 2.1 C 5.37 g/m*3 2.1 C 0 km/h
2355 05-01-2021 07:00:00 2.08333 C 5.36 g/m*3 2.08 C 0.26667 km/h
2356 05-01-2021 08:00:00 2.05 C 5.35 g/m*3 2.05 C 0.13333 km/h
2357 05-01-2021 09:00:00 2.15 C 5.39 g/m*3 2.15 C 0.13333 km/h
2358 05-01-2021 10:00:00 2.34167 C 5.46 g/m*3 2.34 C 0.93333 km/h
2359 05-01-2021 11:00:00 2.65833 C 5.49 g/m*3 2.66 C 1.2 km/h
2360 05-01-2021 12:00:00 2.88333 C 5.48 g/m*3 2.88 C 4.54167 km/h
2361 05-01-2021 13:00:00 3.03333 C 5.54 g/m*3 3.03 C 0.26667 km/h
2362 05-01-2021 14:00:00 3.25 C 5.62 g/m*3 3.25 C 0 km/h
2363 05-01-2021 15:00:00 3.3 C 5.64 g/m*3 3.3 C 0 km/h
2364 05-01-2021 16:00:00 3.20833 C 5.61 g/m*3 3.21 C 0 km/h
2365 05-01-2021 17:00:00 3.05 C 5.59 g/m*3 3.05 C 0 km/h
2366 05-01-2021 18:00:00 2.90833 C 5.56 g/m*3 2.91 C 0 km/h
2367 05-01-2021 19:00:00 2.9 C 5.61 g/m*3 2.9 C 0 km/h
2368 05-01-2021 20:00:00 2.9 C 5.61 g/m*3 2.9 C 0 km/h
2369 05-01-2021 21:00:00 2.9 C 5.61 g/m*3 2.9 C 0 km/h
2370 05-01-2021 22:00:00 2.68333 C 5.52 g/m*3 2.68 C 0 km/h
2371 05-01-2021 23:00:00 2.36667 C 5.43 g/m*3 2.37 C 0.26667 km/h
2372 06-01-2021 00:00:00 2.66667 C 5.54 g/m*3 2.67 C 0 km/h
2373 06-01-2021 01:00:00 2.69167 C 5.55 g/m*3 2.69 C 4.425 km/h
2374 06-01-2021 02:00:00 2.35 C 5.41 g/m*3 2.35 C 2.8 km/h
2375 06-01-2021 03:00:00 2.15 C 5.37 g/m*3 2.15 C 0.13333 km/h
Sensor: Nr:Datum:Temp:Abs-Feuchte:Windchill:Wind:
Aussen-T/F 2376 06-01-2021 04:00:00 1.68333 C 5.2 g/m*3 1.68 C 0 km/h
2377 06-01-2021 05:00:00 1.95833 C 5.32 g/m*3 1.96 C 0.26667 km/h
2378 06-01-2021 06:00:00 2.14167 C 5.39 g/m*3 2.14 C 0 km/h
2379 06-01-2021 07:00:00 2.2 C 5.44 g/m*3 2.2 C 1.2 km/h
2380 06-01-2021 08:00:00 2.15 C 5.41 g/m*3 2.15 C 0 km/h
2381 06-01-2021 09:00:00 2.24167 C 5.47 g/m*3 2.24 C 0 km/h
2382 06-01-2021 10:00:00 2.65833 C 5.64 g/m*3 2.66 C 0.13333 km/h
2383 06-01-2021 11:00:00 3.175 C 5.83 g/m*3 3.18 C 0.4 km/h
2384 06-01-2021 12:00:00 3.525 C 5.9 g/m*3 3.53 C 1.86667 km/h
2385 06-01-2021 13:00:00 3.76667 C 5.85 g/m*3 2.25 C 6.15 km/h
2386 06-01-2021 14:00:00 3.8 C 5.72 g/m*3 2.38 C 5.9 km/h
2387 06-01-2021 15:00:00 3.875 C 5.74 g/m*3 3.88 C 2.93333 km/h
2388 06-01-2021 16:00:00 3.65833 C 5.67 g/m*3 3.66 C 4.66667 km/h
2389 06-01-2021 17:00:00 3.325 C 5.59 g/m*3 3.33 C 4.00833 km/h
2390 06-01-2021 18:00:00 2.99167 C 5.47 g/m*3 2.99 C 4.26667 km/h
2391 06-01-2021 19:00:00 2.8 C 5.45 g/m*3 2.8 C 4.4 km/h
2392 06-01-2021 20:00:00 2.75 C 5.38 g/m*3 1.44 C 5.225 km/h
2393 06-01-2021 21:00:00 2.5 C 5.28 g/m*3 2.5 C 4.55 km/h
2394 06-01-2021 22:00:00 2.35 C 5.16 g/m*3 0.98 C 5.23333 km/h
2395 06-01-2021 23:00:00 2.19167 C 5.07 g/m*3 2.19 C 3.475 km/h
2396 07-01-2021 00:00:00 2.09167 C 4.99 g/m*3 -0.05 C 7.24167 km/h
2397 07-01-2021 01:00:00 1.83333 C 4.98 g/m*3 1.83 C 1.33333 km/h
2398 07-01-2021 02:00:00 1.45833 C 4.94 g/m*3 1.46 C 0.66667 km/h
2399 07-01-2021 03:00:00 1.25833 C 4.91 g/m*3 1.26 C 0 km/h
2400 07-01-2021 04:00:00 1.21667 C 4.93 g/m*3 1.22 C 0 km/h
Sensor: Nr:Datum:Temp:Abs-Feuchte:Windchill:Wind:
Aussen-T/F 2401 07-01-2021 05:00:00 1.34167 C 4.98 g/m*3 1.34 C 1.06667 km/h
2402 07-01-2021 06:00:00 1.5 C 4.97 g/m*3 1.5 C 3.06667 km/h
2403 07-01-2021 07:00:00 1.73333 C 4.98 g/m*3 0.17 C 5.475 km/h
2404 07-01-2021 08:00:00 1.73333 C 4.94 g/m*3 -0.14 C 6.29167 km/h
2405 07-01-2021 09:00:00 1.9 C 4.95 g/m*3 0.3 C 5.625 km/h
2406 07-01-2021 10:00:00 2.18333 C 5.04 g/m*3 2.18 C 4.00833 km/h
2407 07-01-2021 11:00:00 2.7 C 5.13 g/m*3 0.79 C 6.83333 km/h
2408 07-01-2021 12:00:00 2.71667 C 5.17 g/m*3 0.07 C 9.41667 km/h
2409 07-01-2021 13:00:00 2.68333 C 5.38 g/m*3 0.51 C 7.65833 km/h
2410 07-01-2021 14:00:00 2.84167 C 5.42 g/m*3 0.83 C 7.24167 km/h
2411 07-01-2021 15:00:00 2.45 C 5.33 g/m*3 0.45 C 6.975 km/h
2412 07-01-2021 16:00:00 2.4 C 5.31 g/m*3 0.1 C 7.91667 km/h
2413 07-01-2021 17:00:00 2.36667 C 5.33 g/m*3 0.49 C 6.575 km/h
2414 07-01-2021 18:00:00 2.375 C 5.35 g/m*3 0.03 C 8.05833 km/h
2415 07-01-2021 19:00:00 2.2 C 5.33 g/m*3 0.08 C 7.23333 km/h
2416 07-01-2021 20:00:00 2.1 C 5.31 g/m*3 0.19 C 6.56667 km/h
2417 07-01-2021 21:00:00 1.89167 C 5.19 g/m*3 -0.58 C 8.2 km/h
2418 07-01-2021 22:00:00 1.9 C 5.16 g/m*3 -0.72 C 8.73333 km/h
2419 07-01-2021 23:00:00 1.93333 C 5.14 g/m*3 -0.75 C 9.00833 km/h
2420 08-01-2021 00:00:00 1.73333 C 5.12 g/m*3 -1.26 C 10.08333 km/h
2421 08-01-2021 01:00:00 1.63333 C 5.13 g/m*3 -0.72 C 7.65833 km/h
2422 08-01-2021 02:00:00 1.76667 C 5.15 g/m*3 -0.39 C 7.125 km/h
2423 08-01-2021 03:00:00 1.8 C 5.15 g/m*3 -1.02 C 9.425 km/h
2424 08-01-2021 04:00:00 1.84167 C 5.17 g/m*3 -0.93 C 9.28333 km/h
2425 08-01-2021 05:00:00 1.84167 C 5.21 g/m*3 -0.79 C 8.75833 km/h
Sensor: Nr:Datum:Temp:Abs-Feuchte:Windchill:Wind:
Aussen-T/F 2426 08-01-2021 06:00:00 1.79167 C 5.2 g/m*3 -0.22 C 6.69167 km/h
2427 08-01-2021 07:00:00 1.71667 C 5.19 g/m*3 1.72 C 4.54167 km/h
2428 08-01-2021 08:00:00 1.6 C 5.19 g/m*3 1.6 C 4.94167 km/h
2429 08-01-2021 09:00:00 1.63333 C 5.2 g/m*3 1.63 C 4.26667 km/h
2430 08-01-2021 10:00:00 1.89167 C 5.3 g/m*3 1.89 C 2.66667 km/h
2431 08-01-2021 11:00:00 2.2 C 5.4 g/m*3 2.2 C 2.66667 km/h
2432 08-01-2021 12:00:00 2.525 C 5.47 g/m*3 2.53 C 2.66667 km/h
2433 08-01-2021 13:00:00 2.50833 C 5.46 g/m*3 2.51 C 0.53333 km/h
2434 08-01-2021 14:00:00 2.54167 C 5.47 g/m*3 2.54 C 2.53333 km/h
2435 08-01-2021 15:00:00 2.475 C 5.41 g/m*3 2.48 C 2.26667 km/h
2436 08-01-2021 16:00:00 2.33333 C 5.36 g/m*3 2.33 C 1.86667 km/h
2437 08-01-2021 17:00:00 2.14167 C 5.33 g/m*3 2.14 C 0.8 km/h
2438 08-01-2021 18:00:00 2.1 C 5.34 g/m*3 2.1 C 1.06667 km/h
2439 08-01-2021 19:00:00 2.15833 C 5.39 g/m*3 2.16 C 0 km/h
2440 08-01-2021 20:00:00 2.15833 C 5.39 g/m*3 2.16 C 0 km/h
2441 08-01-2021 21:00:00 2.08333 C 5.36 g/m*3 2.08 C 1.73333 km/h
2442 08-01-2021 22:00:00 1.64167 C 5.18 g/m*3 1.64 C 1.86667 km/h
2443 08-01-2021 23:00:00 0.81667 C 4.89 g/m*3 0.82 C 0.66667 km/h
2444 09-01-2021 00:00:00 0.69167 C 4.88 g/m*3 0.69 C 1.86667 km/h
2445 09-01-2021 01:00:00 0.89167 C 4.95 g/m*3 0.89 C 0.8 km/h
2446 09-01-2021 02:00:00 1 C 4.98 g/m*3 1 C 0.13333 km/h
2447 09-01-2021 03:00:00 1.10833 C 5.02 g/m*3 1.11 C 0.66667 km/h
2448 09-01-2021 04:00:00 0.85 C 4.95 g/m*3 0.85 C 0.93333 km/h
2449 09-01-2021 05:00:00 0.9 C 5 g/m*3 0.9 C 0.26667 km/h
2450 09-01-2021 06:00:00 0.94167 C 5.01 g/m*3 0.94 C 0.66667 km/h
Sensor: Nr:Datum:Temp:Abs-Feuchte:Windchill:Wind:
Aussen-T/F 2451 09-01-2021 07:00:00 1.025 C 5.04 g/m*3 1.02 C 0.53333 km/h
2452 09-01-2021 08:00:00 1.06667 C 5.05 g/m*3 1.07 C 0.8 km/h
2453 09-01-2021 09:00:00 1.01667 C 4.99 g/m*3 1.02 C 0.26667 km/h
2454 09-01-2021 10:00:00 0.91667 C 4.98 g/m*3 0.92 C 0.4 km/h
2455 09-01-2021 11:00:00 1.10833 C 5.03 g/m*3 1.11 C 1.60833 km/h
2456 09-01-2021 12:00:00 1.34167 C 5.07 g/m*3 1.34 C 2.41667 km/h
2457 09-01-2021 13:00:00 2.15833 C 5.1 g/m*3 2.16 C 3.35 km/h
2458 09-01-2021 14:00:00 2.875 C 5.14 g/m*3 2.88 C 3.2 km/h
2459 09-01-2021 15:00:00 2.925 C 5.03 g/m*3 2.93 C 4.13333 km/h
2460 09-01-2021 16:00:00 2.5 C 5.05 g/m*3 2.5 C 1.33333 km/h
2461 09-01-2021 17:00:00 1.64167 C 4.93 g/m*3 1.64 C 0.4 km/h
2462 09-01-2021 18:00:00 1.3 C 4.91 g/m*3 1.3 C 0 km/h
2463 09-01-2021 19:00:00 1.26667 C 4.96 g/m*3 1.27 C 0 km/h
2464 09-01-2021 20:00:00 1.16667 C 4.93 g/m*3 1.17 C 0 km/h
2465 09-01-2021 21:00:00 1.09167 C 4.94 g/m*3 1.09 C 0 km/h
2466 09-01-2021 22:00:00 1.19167 C 5 g/m*3 1.19 C 0 km/h
2467 09-01-2021 23:00:00 1.25 C 5.02 g/m*3 1.25 C 0 km/h
2468 10-01-2021 00:00:00 0.96667 C 4.92 g/m*3 0.97 C 0 km/h
2469 10-01-2021 01:00:00 0.83333 C 4.9 g/m*3 0.83 C 0 km/h
2470 10-01-2021 02:00:00 0.9 C 4.95 g/m*3 0.9 C 0 km/h
2471 10-01-2021 03:00:00 0.95833 C 4.97 g/m*3 0.96 C 0 km/h
2472 10-01-2021 04:00:00 0.88333 C 4.94 g/m*3 0.88 C 0 km/h
2473 10-01-2021 05:00:00 0.7 C 4.88 g/m*3 0.7 C 0 km/h
2474 10-01-2021 06:00:00 0.71667 C 4.89 g/m*3 0.72 C 0 km/h
2475 10-01-2021 07:00:00 0.84167 C 4.93 g/m*3 0.84 C 0 km/h
Sensor: Nr:Datum:Temp:Abs-Feuchte:Windchill:Wind:
Aussen-T/F 2476 10-01-2021 08:00:00 0.70833 C 4.88 g/m*3 0.71 C 0 km/h
2477 10-01-2021 09:00:00 0.775 C 4.91 g/m*3 0.78 C 0 km/h
2478 10-01-2021 10:00:00 1.24167 C 5.08 g/m*3 1.24 C 0 km/h
2479 10-01-2021 11:00:00 1.775 C 5.22 g/m*3 1.78 C 0.8 km/h
2480 10-01-2021 12:00:00 2.325 C 5.21 g/m*3 2.33 C 1.86667 km/h
2481 10-01-2021 13:00:00 2.88333 C 5.12 g/m*3 2.88 C 1.33333 km/h
2482 10-01-2021 14:00:00 3.21667 C 4.99 g/m*3 3.22 C 1.46667 km/h
2483 10-01-2021 15:00:00 3.325 C 4.9 g/m*3 3.33 C 0.4 km/h
2484 10-01-2021 16:00:00 2.80833 C 5.01 g/m*3 2.81 C 0.93333 km/h
2485 10-01-2021 17:00:00 0.91667 C 4.55 g/m*3 0.92 C 4.26667 km/h
2486 10-01-2021 18:00:00 -0.45833 C 4.28 g/m*3 -0.46 C 1.2 km/h
2487 10-01-2021 19:00:00 -1.075 C 4.17 g/m*3 -1.08 C 0 km/h
2488 10-01-2021 20:00:00 -1.65833 C 4.04 g/m*3 -1.66 C 0 km/h
2489 10-01-2021 21:00:00 -2.08333 C 3.94 g/m*3 -2.08 C 0 km/h
2490 10-01-2021 22:00:00 -2.35833 C 3.9 g/m*3 -2.36 C 0 km/h
2491 10-01-2021 23:00:00 -2.70833 C 3.81 g/m*3 -2.71 C 0.13333 km/h
2492 11-01-2021 00:00:00 -2.975 C 3.74 g/m*3 -2.98 C 0.13333 km/h
2493 11-01-2021 01:00:00 -3.30833 C 3.65 g/m*3 -3.31 C 0.13333 km/h
2494 11-01-2021 02:00:00 -2.94167 C 3.77 g/m*3 -2.94 C 0.13333 km/h
2495 11-01-2021 03:00:00 -3.30833 C 3.65 g/m*3 -3.31 C 0 km/h
2496 11-01-2021 04:00:00 -3.59167 C 3.58 g/m*3 -3.59 C 0 km/h
2497 11-01-2021 05:00:00 -3.86667 C 3.51 g/m*3 -3.87 C 0 km/h
2498 11-01-2021 06:00:00 -4.125 C 3.46 g/m*3 -4.13 C 0 km/h
2499 11-01-2021 07:00:00 -3.925 C 3.53 g/m*3 -3.93 C 0.66667 km/h
2500 11-01-2021 08:00:00 -3.36667 C 3.67 g/m*3 -3.37 C 1.2 km/h
Sensor: Nr:Datum:Temp:Abs-Feuchte:Windchill:Wind:
Aussen-T/F 2501 11-01-2021 09:00:00 -2.6 C 3.88 g/m*3 -2.6 C 0.93333 km/h
2502 11-01-2021 10:00:00 -1.30833 C 4.18 g/m*3 -3.24 C 5.35 km/h
2503 11-01-2021 11:00:00 0.08333 C 4.32 g/m*3 -2.66 C 8.05 km/h
2504 11-01-2021 12:00:00 1.01667 C 4.35 g/m*3 -2.32 C 10.88333 km/h
2505 11-01-2021 13:00:00 1.825 C 4.43 g/m*3 -1.22 C 10.35 km/h
2506 11-01-2021 14:00:00 2.26667 C 4.55 g/m*3 0.07 C 7.525 km/h
2507 11-01-2021 15:00:00 2.375 C 4.68 g/m*3 2.38 C 3.74167 km/h
2508 11-01-2021 16:00:00 2.33333 C 4.86 g/m*3 2.33 C 0.53333 km/h
2509 11-01-2021 17:00:00 1.79167 C 4.85 g/m*3 1.79 C 2 km/h
2510 11-01-2021 18:00:00 1.66667 C 4.82 g/m*3 1.67 C 1.86667 km/h
2511 11-01-2021 19:00:00 1.76667 C 4.82 g/m*3 1.77 C 3.34167 km/h
2512 11-01-2021 20:00:00 2 C 4.88 g/m*3 2 C 4.14167 km/h
2513 11-01-2021 21:00:00 2.325 C 4.93 g/m*3 0.9 C 5.35833 km/h
2514 11-01-2021 22:00:00 2.49167 C 5.01 g/m*3 0.73 C 6.3 km/h
2515 11-01-2021 23:00:00 2.8 C 5.11 g/m*3 0.07 C 9.81667 km/h
2516 12-01-2021 00:00:00 3 C 5.24 g/m*3 -0.24 C 12.35833 km/h
2517 12-01-2021 01:00:00 3.26667 C 5.38 g/m*3 -0.65 C 16.63333 km/h
2518 12-01-2021 02:00:00 3.34167 C 5.42 g/m*3 -0.23 C 14.63333 km/h
2519 12-01-2021 03:00:00 3.51667 C 5.54 g/m*3 -0.02 C 14.63333 km/h
2520 12-01-2021 04:00:00 3.725 C 5.59 g/m*3 -0.47 C 19.45 km/h
2521 12-01-2021 05:00:00 3.875 C 5.63 g/m*3 -0.78 C 23.6 km/h
2522 12-01-2021 06:00:00 3.85833 C 5.67 g/m*3 -0.74 C 23.04167 km/h
2523 12-01-2021 07:00:00 3.79167 C 5.66 g/m*3 -0.78 C 22.64167 km/h
2524 12-01-2021 08:00:00 3.95833 C 5.66 g/m*3 -0.91 C 25.86667 km/h
2525 12-01-2021 09:00:00 4.14167 C 5.69 g/m*3 -0.76 C 26.69167 km/h
Sensor: Nr:Datum:Temp:Abs-Feuchte:Windchill:Wind:
Aussen-T/F 2526 12-01-2021 10:00:00 4.41667 C 5.8 g/m*3 -0.2 C 24.66667 km/h
2527 12-01-2021 11:00:00 4.68333 C 5.96 g/m*3 0.69 C 19.83333 km/h
2528 12-01-2021 12:00:00 5.05 C 6.15 g/m*3 1.35 C 18.23333 km/h
2529 12-01-2021 13:00:00 5.225 C 6.3 g/m*3 1.82 C 16.36667 km/h
2530 12-01-2021 14:00:00 5.18333 C 6.47 g/m*3 2.75 C 10.61667 km/h
2531 12-01-2021 15:00:00 5.40833 C 6.63 g/m*3 2.86 C 11.41667 km/h
2532 12-01-2021 16:00:00 5.45 C 6.58 g/m*3 3.42 C 9.00833 km/h
2533 12-01-2021 17:00:00 4.56667 C 6.12 g/m*3 2.88 C 7.10833 km/h
2534 12-01-2021 18:00:00 3.25833 C 5.65 g/m*3 3.26 C 4.95 km/h
2535 12-01-2021 19:00:00 2.45833 C 5.41 g/m*3 2.46 C 4.80833 km/h
2536 12-01-2021 20:00:00 2.75 C 5.47 g/m*3 1.5 C 5.075 km/h
2537 12-01-2021 21:00:00 3.05 C 5.45 g/m*3 1.61 C 5.64167 km/h
2538 12-01-2021 22:00:00 2.96667 C 5.38 g/m*3 2.97 C 3.46667 km/h
2539 12-01-2021 23:00:00 2.14167 C 5.21 g/m*3 2.14 C 2.8 km/h
2540 13-01-2021 00:00:00 1.93333 C 5.2 g/m*3 1.93 C 2.8 km/h
2541 13-01-2021 01:00:00 1.59167 C 5.1 g/m*3 1.59 C 4.275 km/h
2542 13-01-2021 02:00:00 1.7 C 5.1 g/m*3 -0.8 C 8.2 km/h
2543 13-01-2021 03:00:00 1.73333 C 5 g/m*3 -0.92 C 8.75833 km/h
2544 13-01-2021 04:00:00 1.63333 C 4.91 g/m*3 -0.96 C 8.475 km/h
2545 13-01-2021 05:00:00 1.66667 C 4.89 g/m*3 -1.07 C 9.01667 km/h
2546 13-01-2021 06:00:00 1.775 C 4.92 g/m*3 -1.04 C 9.39167 km/h
2547 13-01-2021 07:00:00 1.91667 C 4.92 g/m*3 -0.92 C 9.56667 km/h
2548 13-01-2021 08:00:00 1.75833 C 4.93 g/m*3 -0.61 C 7.78333 km/h
2549 13-01-2021 09:00:00 1.31667 C 4.9 g/m*3 -1.66 C 9.69167 km/h
2550 13-01-2021 10:00:00 1.94167 C 5.14 g/m*3 -0.63 C 8.61667 km/h
Sensor: Nr:Datum:Temp:Abs-Feuchte:Windchill:Wind:
Aussen-T/F 2551 13-01-2021 11:00:00 2.95 C 5.35 g/m*3 0.04 C 10.75833 km/h
2552 13-01-2021 12:00:00 3.74167 C 5.45 g/m*3 0.59 C 12.76667 km/h
2553 13-01-2021 13:00:00 4.15833 C 5.43 g/m*3 1.3 C 11.68333 km/h
2554 13-01-2021 14:00:00 4.63333 C 5.3 g/m*3 1.98 C 11.15833 km/h
2555 13-01-2021 15:00:00 4.05833 C 5.12 g/m*3 1.37 C 10.76667 km/h
2556 13-01-2021 16:00:00 2.99167 C 5.01 g/m*3 0.57 C 8.75833 km/h
2557 13-01-2021 17:00:00 2.39167 C 4.96 g/m*3 0.71 C 6.04167 km/h
2558 13-01-2021 18:00:00 1.91667 C 4.95 g/m*3 1.92 C 2.53333 km/h
2559 13-01-2021 19:00:00 1.8 C 5 g/m*3 1.8 C 4.26667 km/h
2560 13-01-2021 20:00:00 2.03333 C 5.12 g/m*3 2.03 C 4.4 km/h
2561 13-01-2021 21:00:00 2.49167 C 5.21 g/m*3 0.5 C 6.98333 km/h
2562 13-01-2021 22:00:00 3.39167 C 5.18 g/m*3 1.5 C 7.11667 km/h
2563 13-01-2021 23:00:00 3.725 C 5.2 g/m*3 1.69 C 7.8 km/h
2564 14-01-2021 00:00:00 4.10833 C 5.45 g/m*3 1.67 C 9.68333 km/h
2565 14-01-2021 01:00:00 4.05 C 5.8 g/m*3 1.79 C 8.86667 km/h
2566 14-01-2021 02:00:00 3.76667 C 5.77 g/m*3 1.71 C 7.925 km/h
2567 14-01-2021 03:00:00 3.56667 C 5.52 g/m*3 2.01 C 6.175 km/h
2568 14-01-2021 04:00:00 3.275 C 5.19 g/m*3 1.59 C 6.44167 km/h
2569 14-01-2021 05:00:00 2.61667 C 4.71 g/m*3 2.62 C 3.74167 km/h
2570 14-01-2021 06:00:00 2.05 C 4.72 g/m*3 2.05 C 0.66667 km/h
2571 14-01-2021 07:00:00 1.51667 C 4.63 g/m*3 1.52 C 0.66667 km/h
2572 14-01-2021 08:00:00 1.36667 C 4.61 g/m*3 1.37 C 0.93333 km/h
2573 14-01-2021 09:00:00 1.375 C 4.72 g/m*3 1.38 C 0.13333 km/h
2574 14-01-2021 10:00:00 1.90833 C 4.8 g/m*3 1.91 C 0.53333 km/h
2575 14-01-2021 11:00:00 2.425 C 4.72 g/m*3 1.02 C 5.34167 km/h
Sensor: Nr:Datum:Temp:Abs-Feuchte:Windchill:Wind:
Aussen-T/F 2576 14-01-2021 12:00:00 2.625 C 4.65 g/m*3 0.94 C 6.15 km/h
2577 14-01-2021 13:00:00 2.95 C 4.69 g/m*3 1.26 C 6.3 km/h
2578 14-01-2021 14:00:00 3.11667 C 4.67 g/m*3 3.12 C 3.33333 km/h
2579 14-01-2021 15:00:00 3.09167 C 4.7 g/m*3 3.09 C 2.13333 km/h
2580 14-01-2021 16:00:00 2.63333 C 4.77 g/m*3 2.63 C 0.13333 km/h
2581 14-01-2021 17:00:00 1.36667 C 4.6 g/m*3 1.37 C 1.06667 km/h
2582 14-01-2021 18:00:00 0.89167 C 4.53 g/m*3 0.89 C 1.73333 km/h
2583 14-01-2021 19:00:00 0.275 C 4.42 g/m*3 0.28 C 1.06667 km/h
2584 14-01-2021 20:00:00 0.15833 C 4.46 g/m*3 0.16 C 1.875 km/h
2585 14-01-2021 21:00:00 0.08333 C 4.39 g/m*3 0.08 C 1.06667 km/h
2586 14-01-2021 22:00:00 -0.375 C 4.25 g/m*3 -0.38 C 1.06667 km/h
2587 14-01-2021 23:00:00 -0.70833 C 4.15 g/m*3 -0.71 C 2 km/h
2588 15-01-2021 00:00:00 -1.05833 C 4.06 g/m*3 -1.06 C 0.8 km/h
2589 15-01-2021 01:00:00 -1.55 C 3.96 g/m*3 -1.55 C 0.8 km/h
2590 15-01-2021 02:00:00 -2.04167 C 3.82 g/m*3 -2.04 C 0.66667 km/h
2591 15-01-2021 03:00:00 -2.425 C 3.77 g/m*3 -2.42 C 0.13333 km/h
2592 15-01-2021 04:00:00 -2.26667 C 3.85 g/m*3 -2.27 C 0.4 km/h
2593 15-01-2021 05:00:00 -1.65833 C 4 g/m*3 -1.66 C 0 km/h
2594 15-01-2021 06:00:00 -1.16667 C 4.1 g/m*3 -1.17 C 0 km/h
2595 15-01-2021 07:00:00 -0.81667 C 4.17 g/m*3 -0.82 C 0 km/h
2596 15-01-2021 08:00:00 -0.66667 C 4.2 g/m*3 -0.67 C 0 km/h
2597 15-01-2021 09:00:00 -0.28333 C 4.29 g/m*3 -0.28 C 0 km/h
2598 15-01-2021 10:00:00 -0.18333 C 4.28 g/m*3 -0.18 C 0.4 km/h
2599 15-01-2021 11:00:00 0.10833 C 4.17 g/m*3 0.11 C 4.14167 km/h
2600 15-01-2021 12:00:00 2.05 C 4.29 g/m*3 -0.75 C 9.55 km/h
Sensor: Nr:Datum:Temp:Abs-Feuchte:Windchill:Wind:
Aussen-T/F 2601 15-01-2021 13:00:00 2.35 C 4.43 g/m*3 -0.26 C 9.00833 km/h
2602 15-01-2021 14:00:00 2.45 C 4.52 g/m*3 0.24 C 7.65 km/h
2603 15-01-2021 15:00:00 2.55833 C 4.63 g/m*3 0.62 C 6.84167 km/h
2604 15-01-2021 16:00:00 2.325 C 4.66 g/m*3 0.35 C 6.84167 km/h
2605 15-01-2021 17:00:00 2 C 4.58 g/m*3 2 C 2.13333 km/h
2606 15-01-2021 18:00:00 1.71667 C 4.58 g/m*3 1.72 C 3.34167 km/h
2607 15-01-2021 19:00:00 1.51667 C 4.66 g/m*3 1.52 C 3.73333 km/h
2608 15-01-2021 20:00:00 1.39167 C 4.62 g/m*3 1.39 C 4 km/h
2609 15-01-2021 21:00:00 1.24167 C 4.6 g/m*3 1.24 C 3.75 km/h
2610 15-01-2021 22:00:00 1.11667 C 4.55 g/m*3 1.12 C 3.74167 km/h
2611 15-01-2021 23:00:00 1.075 C 4.59 g/m*3 1.08 C 4 km/h
2612 16-01-2021 00:00:00 0.85833 C 4.49 g/m*3 0.86 C 2.40833 km/h
2613 16-01-2021 01:00:00 0.9 C 4.14 g/m*3 -1.21 C 6.59167 km/h
2614 16-01-2021 02:00:00 0.79167 C 4.05 g/m*3 0.79 C 4.4 km/h
2615 16-01-2021 03:00:00 0.625 C 4.07 g/m*3 0.63 C 2.4 km/h
2616 16-01-2021 04:00:00 0.28333 C 4.1 g/m*3 0.28 C 0.13333 km/h
2617 16-01-2021 05:00:00 0.09167 C 4.16 g/m*3 0.09 C 0.93333 km/h
2618 16-01-2021 06:00:00 0.14167 C 4.15 g/m*3 0.14 C 0.8 km/h
2619 16-01-2021 07:00:00 -0.05 C 4.16 g/m*3 -0.05 C 0.13333 km/h
2620 16-01-2021 08:00:00 -0.15 C 4.19 g/m*3 -0.15 C 0 km/h
2621 16-01-2021 09:00:00 0.04167 C 4.24 g/m*3 0.04 C 0.4 km/h
2622 16-01-2021 10:00:00 0.83333 C 4.19 g/m*3 0.83 C 2.53333 km/h
2623 16-01-2021 11:00:00 1.28333 C 4.21 g/m*3 1.28 C 4.675 km/h
2624 16-01-2021 12:00:00 1.55 C 4.13 g/m*3 -0.45 C 6.55833 km/h
2625 16-01-2021 13:00:00 1.6 C 4.05 g/m*3 0.19 C 5.09167 km/h
Sensor: Nr:Datum:Temp:Abs-Feuchte:Windchill:Wind:
Aussen-T/F 2626 16-01-2021 14:00:00 1.4 C 3.87 g/m*3 1.4 C 3.33333 km/h
2627 16-01-2021 15:00:00 1.25833 C 3.79 g/m*3 1.26 C 4.01667 km/h
2628 16-01-2021 16:00:00 0.84167 C 3.8 g/m*3 0.84 C 1.06667 km/h
2629 16-01-2021 17:00:00 -0.04167 C 3.92 g/m*3 -0.04 C 0 km/h
2630 16-01-2021 18:00:00 -0.38333 C 3.93 g/m*3 -0.38 C 0 km/h
2631 16-01-2021 19:00:00 -0.18333 C 4.02 g/m*3 -0.18 C 0.4 km/h
2632 16-01-2021 20:00:00 -0.00833 C 4.25 g/m*3 -0.01 C 0.93333 km/h
2633 16-01-2021 21:00:00 -0.28333 C 4.37 g/m*3 -0.28 C 0.4 km/h
2634 16-01-2021 22:00:00 -0.44167 C 4.39 g/m*3 -0.44 C 0.53333 km/h
2635 16-01-2021 23:00:00 -0.68333 C 4.34 g/m*3 -0.68 C 0.26667 km/h
2636 17-01-2021 00:00:00 -0.78333 C 4.31 g/m*3 -0.78 C 0 km/h
2637 17-01-2021 01:00:00 -0.975 C 4.26 g/m*3 -0.98 C 0 km/h
2638 17-01-2021 02:00:00 -1.16667 C 4.2 g/m*3 -1.17 C 0 km/h
2639 17-01-2021 03:00:00 -1.2 C 4.19 g/m*3 -1.2 C 0 km/h
2640 17-01-2021 04:00:00 -1.16667 C 4.24 g/m*3 -1.17 C 0 km/h
2641 17-01-2021 05:00:00 -1.03333 C 4.28 g/m*3 -1.03 C 0 km/h
2642 17-01-2021 06:00:00 -0.85833 C 4.34 g/m*3 -0.86 C 0.13333 km/h
2643 17-01-2021 07:00:00 -0.75 C 4.37 g/m*3 -0.75 C 0 km/h
2644 17-01-2021 08:00:00 -0.65833 C 4.4 g/m*3 -0.66 C 0 km/h
2645 17-01-2021 09:00:00 -0.25 C 4.53 g/m*3 -0.25 C 0.53333 km/h
2646 17-01-2021 10:00:00 0.23333 C 4.68 g/m*3 0.23 C 0.4 km/h
2647 17-01-2021 11:00:00 0.68333 C 4.82 g/m*3 0.68 C 0 km/h
2648 17-01-2021 12:00:00 1.075 C 4.94 g/m*3 1.08 C 0 km/h
2649 17-01-2021 13:00:00 1.34167 C 5 g/m*3 1.34 C 2.26667 km/h
2650 17-01-2021 14:00:00 1.39167 C 5.06 g/m*3 1.39 C 2.4 km/h
Sensor: Nr:Datum:Temp:Abs-Feuchte:Windchill:Wind:
Aussen-T/F 2651 17-01-2021 15:00:00 1.6 C 5.14 g/m*3 1.6 C 0.13333 km/h
2652 17-01-2021 16:00:00 1.50833 C 5.11 g/m*3 1.51 C 0.4 km/h
2653 17-01-2021 17:00:00 1.58333 C 5.18 g/m*3 1.58 C 1.46667 km/h
2654 17-01-2021 18:00:00 1.69167 C 5.22 g/m*3 1.69 C 2.4 km/h
2655 17-01-2021 19:00:00 1.8 C 5.26 g/m*3 1.8 C 2.13333 km/h
2656 17-01-2021 20:00:00 1.86667 C 5.29 g/m*3 1.87 C 2.66667 km/h
2657 17-01-2021 21:00:00 1.95833 C 5.32 g/m*3 1.96 C 2.13333 km/h
2658 17-01-2021 22:00:00 2.11667 C 5.41 g/m*3 2.12 C 1.06667 km/h
2659 17-01-2021 23:00:00 2.275 C 5.49 g/m*3 2.28 C 2 km/h
2660 18-01-2021 00:00:00 2.34167 C 5.52 g/m*3 2.34 C 3.06667 km/h
2661 18-01-2021 01:00:00 2.3 C 5.5 g/m*3 2.3 C 2.93333 km/h
2662 18-01-2021 02:00:00 2.43333 C 5.55 g/m*3 2.43 C 2.8 km/h
2663 18-01-2021 03:00:00 2.58333 C 5.61 g/m*3 2.58 C 2.53333 km/h
2664 18-01-2021 04:00:00 2.04167 C 5.41 g/m*3 2.04 C 2.53333 km/h
2665 18-01-2021 05:00:00 2.30833 C 5.5 g/m*3 2.31 C 4.00833 km/h
2666 18-01-2021 06:00:00 2.43333 C 5.55 g/m*3 0.18 C 7.79167 km/h
2667 18-01-2021 07:00:00 2.475 C 5.55 g/m*3 -0.21 C 9.41667 km/h
2668 18-01-2021 08:00:00 2.59167 C 5.53 g/m*3 -0.08 C 9.41667 km/h
2669 18-01-2021 09:00:00 2.83333 C 5.59 g/m*3 -0.02 C 10.36667 km/h
2670 18-01-2021 10:00:00 3.44167 C 5.73 g/m*3 0.66 C 10.625 km/h
2671 18-01-2021 11:00:00 4.13333 C 5.9 g/m*3 1.63 C 9.96667 km/h
2672 18-01-2021 12:00:00 4.75833 C 6.01 g/m*3 2 C 11.83333 km/h
2673 18-01-2021 13:00:00 5.51667 C 6.11 g/m*3 2.57 C 13.83333 km/h
2674 18-01-2021 14:00:00 5.68333 C 6.01 g/m*3 2.2 C 17.83333 km/h
2675 18-01-2021 15:00:00 5.41667 C 5.87 g/m*3 2.45 C 13.83333 km/h
Sensor: Nr:Datum:Temp:Abs-Feuchte:Windchill:Wind:
Aussen-T/F 2676 18-01-2021 16:00:00 5 C 5.74 g/m*3 2.42 C 11.15833 km/h
2677 18-01-2021 17:00:00 4.525 C 5.69 g/m*3 2.04 C 10.225 km/h
2678 18-01-2021 18:00:00 4.56667 C 5.73 g/m*3 1.27 C 14.63333 km/h
2679 18-01-2021 19:00:00 4.76667 C 5.83 g/m*3 1.16 C 17.03333 km/h
2680 18-01-2021 20:00:00 4.8 C 5.9 g/m*3 1.07 C 17.975 km/h
2681 18-01-2021 21:00:00 4.85833 C 5.93 g/m*3 1.59 C 14.9 km/h
2682 18-01-2021 22:00:00 4.80833 C 5.99 g/m*3 1.51 C 15.03333 km/h
2683 18-01-2021 23:00:00 4.99167 C 6.07 g/m*3 1.44 C 17.03333 km/h
2684 19-01-2021 00:00:00 5.14167 C 6.01 g/m*3 2.07 C 14.1 km/h
2685 19-01-2021 01:00:00 5.01667 C 5.83 g/m*3 1.59 C 16.23333 km/h
2686 19-01-2021 02:00:00 4.66667 C 5.64 g/m*3 1.53 C 13.83333 km/h
2687 19-01-2021 03:00:00 4.475 C 5.55 g/m*3 3.25 C 5.64167 km/h
2688 19-01-2021 04:00:00 4.21667 C 5.52 g/m*3 4.22 C 4.96667 km/h
2689 19-01-2021 05:00:00 4.475 C 5.37 g/m*3 1.68 C 11.675 km/h
2690 19-01-2021 06:00:00 5.19167 C 5.42 g/m*3 1.8 C 16.23333 km/h
2691 19-01-2021 07:00:00 5.43333 C 5.55 g/m*3 1.67 C 19.56667 km/h
2692 19-01-2021 08:00:00 5.43333 C 5.59 g/m*3 1.33 C 22.525 km/h
2693 19-01-2021 09:00:00 5.31667 C 5.53 g/m*3 1.08 C 23.45 km/h
2694 19-01-2021 10:00:00 5.175 C 5.59 g/m*3 0.54 C 27.08333 km/h
2695 19-01-2021 11:00:00 4.40833 C 5.75 g/m*3 -0.45 C 27.09167 km/h
2696 19-01-2021 12:00:00 4.79167 C 5.83 g/m*3 -0.25 C 30.325 km/h
2697 19-01-2021 13:00:00 5.15833 C 5.99 g/m*3 0.52 C 27.09167 km/h
2698 19-01-2021 14:00:00 5.58333 C 6.17 g/m*3 1.32 C 24.4 km/h
2699 19-01-2021 15:00:00 6.05833 C 6.31 g/m*3 2.06 C 23.19167 km/h
2700 19-01-2021 16:00:00 5.625 C 6.29 g/m*3 1.54 C 22.8 km/h
Sensor: Nr:Datum:Temp:Abs-Feuchte:Windchill:Wind:
Aussen-T/F 2701 19-01-2021 17:00:00 5.38333 C 6.27 g/m*3 1.52 C 20.23333 km/h
2702 19-01-2021 18:00:00 5.29167 C 6.21 g/m*3 1.52 C 19.30833 km/h
2703 19-01-2021 19:00:00 5.55833 C 6.3 g/m*3 1.97 C 18.36667 km/h
2704 19-01-2021 20:00:00 5.65 C 6.15 g/m*3 2.04 C 18.76667 km/h
2705 19-01-2021 21:00:00 5.20833 C 5.8 g/m*3 2.64 C 11.3 km/h
2706 19-01-2021 22:00:00 4.83333 C 5.53 g/m*3 2.99 C 7.79167 km/h
2707 19-01-2021 23:00:00 5.175 C 5.24 g/m*3 3.15 C 8.74167 km/h
2708 20-01-2021 00:00:00 4.66667 C 5.19 g/m*3 4.67 C 3.075 km/h
2709 20-01-2021 01:00:00 4.38333 C 5.21 g/m*3 4.38 C 0.66667 km/h
2710 20-01-2021 02:00:00 3.61667 C 5.19 g/m*3 3.62 C 2.13333 km/h
2711 20-01-2021 03:00:00 3.74167 C 5.33 g/m*3 2.46 C 5.49167 km/h
2712 20-01-2021 04:00:00 4.875 C 5.36 g/m*3 4.88 C 2.4 km/h
2713 20-01-2021 05:00:00 5.08333 C 5.43 g/m*3 5.08 C 4 km/h
2714 20-01-2021 06:00:00 4.875 C 5.62 g/m*3 4.88 C 3.6 km/h
2715 20-01-2021 07:00:00 4.66667 C 5.61 g/m*3 4.67 C 3.34167 km/h
2716 20-01-2021 08:00:00 4.34167 C 5.55 g/m*3 4.34 C 1.73333 km/h
2717 20-01-2021 09:00:00 4.49167 C 5.58 g/m*3 4.49 C 1.46667 km/h
2718 20-01-2021 10:00:00 5.175 C 5.81 g/m*3 5.18 C 0.13333 km/h
2719 20-01-2021 11:00:00 6.25833 C 5.83 g/m*3 6.26 C 0.26667 km/h
2720 20-01-2021 12:00:00 7.40833 C 6.11 g/m*3 7.41 C 1.33333 km/h
2721 20-01-2021 13:00:00 8.38333 C 6.45 g/m*3 8.38 C 0.93333 km/h
2722 20-01-2021 14:00:00 9.1 C 6.67 g/m*3 9.1 C 2.26667 km/h
2723 20-01-2021 15:00:00 9.29167 C 6.87 g/m*3 9.29 C 3.21667 km/h
2724 20-01-2021 16:00:00 8.63333 C 6.92 g/m*3 8.63 C 1.33333 km/h
2725 20-01-2021 17:00:00 7.06667 C 6.66 g/m*3 7.07 C 3.33333 km/h
Sensor: Nr:Datum:Temp:Abs-Feuchte:Windchill:Wind:
Aussen-T/F 2726 20-01-2021 18:00:00 6.74167 C 6.74 g/m*3 6.74 C 3.86667 km/h
2727 20-01-2021 19:00:00 7.15833 C 6.8 g/m*3 7.16 C 4.26667 km/h
2728 20-01-2021 20:00:00 7.30833 C 6.81 g/m*3 7.31 C 3.2 km/h
2729 20-01-2021 21:00:00 7.275 C 6.76 g/m*3 7.28 C 3.875 km/h
2730 20-01-2021 22:00:00 8.225 C 6.75 g/m*3 8.23 C 3.73333 km/h
2731 20-01-2021 23:00:00 9.16667 C 6.73 g/m*3 8.4 C 6.43333 km/h
2732 21-01-2021 00:00:00 9.10833 C 6.64 g/m*3 8.4 C 6.16667 km/h
2733 21-01-2021 01:00:00 8.825 C 6.64 g/m*3 8.11 C 6.025 km/h
2734 21-01-2021 02:00:00 9.94167 C 6.78 g/m*3 9.54 C 5.50833 km/h
2735 21-01-2021 03:00:00 10.125 C 6.66 g/m*3 9.01 C 8.725 km/h
2736 21-01-2021 04:00:00 11.25 C 6.64 g/m*3 11.25 C 13.28333 km/h
2737 21-01-2021 05:00:00 11.38333 C 6.93 g/m*3 11.38 C 11.01667 km/h
2738 21-01-2021 06:00:00 11.19167 C 7.09 g/m*3 11.19 C 9.39167 km/h
2739 21-01-2021 07:00:00 11.21667 C 7.47 g/m*3 11.22 C 8.725 km/h
2740 21-01-2021 08:00:00 9.81667 C 8.04 g/m*3 8.99 C 7.10833 km/h
2741 21-01-2021 09:00:00 8.05833 C 7.43 g/m*3 6.2 C 10.60833 km/h
2742 21-01-2021 10:00:00 6.74167 C 6.9 g/m*3 4.45 C 11.53333 km/h
2743 21-01-2021 11:00:00 6.9 C 6.86 g/m*3 4.86 C 10.34167 km/h
2744 21-01-2021 12:00:00 7.275 C 6.72 g/m*3 4.37 C 16.36667 km/h
2745 21-01-2021 13:00:00 7.825 C 6.68 g/m*3 6.5 C 7.8 km/h
2746 21-01-2021 14:00:00 8.35 C 6.69 g/m*3 6.72 C 9.66667 km/h
2747 21-01-2021 15:00:00 8.7 C 6.52 g/m*3 7.22 C 9.25833 km/h
2748 21-01-2021 16:00:00 8.45 C 6.56 g/m*3 8.45 C 2.80833 km/h
2749 21-01-2021 17:00:00 7.96667 C 6.64 g/m*3 7.97 C 2.13333 km/h
2750 21-01-2021 18:00:00 7.98333 C 6.89 g/m*3 7.98 C 2 km/h
Sensor: Nr:Datum:Temp:Abs-Feuchte:Windchill:Wind:
Aussen-T/F 2751 21-01-2021 19:00:00 7.75 C 7.21 g/m*3 7.75 C 2.275 km/h
2752 21-01-2021 20:00:00 7.53333 C 7.49 g/m*3 7.53 C 3.46667 km/h
2753 21-01-2021 21:00:00 8.43333 C 8.09 g/m*3 7.22 C 7.78333 km/h
2754 21-01-2021 22:00:00 9.69167 C 8.38 g/m*3 7.63 C 14.23333 km/h
2755 21-01-2021 23:00:00 9.89167 C 8.33 g/m*3 7.66 C 15.975 km/h
2756 22-01-2021 00:00:00 10.19167 C 8.21 g/m*3 7.95 C 16.775 km/h
2757 22-01-2021 01:00:00 10.125 C 8.14 g/m*3 8.43 C 12.21667 km/h
2758 22-01-2021 02:00:00 9.64167 C 8.03 g/m*3 8.26 C 9.675 km/h
2759 22-01-2021 03:00:00 9.86667 C 8.08 g/m*3 7.67 C 15.7 km/h
2760 22-01-2021 04:00:00 10.075 C 8.18 g/m*3 8.08 C 14.36667 km/h
2761 22-01-2021 05:00:00 8.275 C 7.4 g/m*3 6.24 C 11.925 km/h
2762 22-01-2021 06:00:00 6.05 C 6.73 g/m*3 6.05 C 2.13333 km/h
2763 22-01-2021 07:00:00 5.09167 C 6.37 g/m*3 5.09 C 2.53333 km/h
2764 22-01-2021 08:00:00 4.575 C 6.23 g/m*3 4.58 C 1.86667 km/h
2765 22-01-2021 09:00:00 4.44167 C 6.22 g/m*3 4.44 C 2.8 km/h
2766 22-01-2021 10:00:00 4.68333 C 6.32 g/m*3 4.68 C 1.86667 km/h
2767 22-01-2021 11:00:00 5.06667 C 6.49 g/m*3 5.07 C 2.53333 km/h
2768 22-01-2021 12:00:00 5.53333 C 6.63 g/m*3 5.53 C 2.53333 km/h
2769 22-01-2021 13:00:00 5.96667 C 6.61 g/m*3 5.1 C 5.21667 km/h
2770 22-01-2021 14:00:00 6.05 C 6.56 g/m*3 5.06 C 5.60833 km/h
2771 22-01-2021 15:00:00 6.24167 C 6.55 g/m*3 6.24 C 2.13333 km/h
2772 22-01-2021 16:00:00 5.76667 C 6.46 g/m*3 5.77 C 2.26667 km/h
2773 22-01-2021 17:00:00 3.85 C 5.78 g/m*3 3.85 C 4.8 km/h
2774 22-01-2021 18:00:00 2.825 C 5.5 g/m*3 2.83 C 0.26667 km/h
2775 22-01-2021 19:00:00 2.71667 C 5.52 g/m*3 2.72 C 0 km/h
Sensor: Nr:Datum:Temp:Abs-Feuchte:Windchill:Wind:
Aussen-T/F 2776 22-01-2021 20:00:00 2.55 C 5.48 g/m*3 2.55 C 0 km/h
2777 22-01-2021 21:00:00 2.59167 C 5.54 g/m*3 2.59 C 0.66667 km/h
2778 22-01-2021 22:00:00 2.64167 C 5.57 g/m*3 2.64 C 0.13333 km/h
2779 22-01-2021 23:00:00 2.55833 C 5.54 g/m*3 2.56 C 0.53333 km/h
2780 23-01-2021 00:00:00 2.5 C 5.52 g/m*3 2.5 C 1.46667 km/h
2781 23-01-2021 01:00:00 2.49167 C 5.52 g/m*3 2.49 C 1.46667 km/h
2782 23-01-2021 02:00:00 2.31667 C 5.45 g/m*3 2.32 C 1.6 km/h
2783 23-01-2021 03:00:00 2.35 C 5.47 g/m*3 0.98 C 5.21667 km/h
2784 23-01-2021 04:00:00 2.60833 C 5.56 g/m*3 0.42 C 7.66667 km/h
2785 23-01-2021 05:00:00 3.00833 C 5.7 g/m*3 1.37 C 6.16667 km/h
2786 23-01-2021 06:00:00 2.90833 C 5.63 g/m*3 2.91 C 2 km/h
2787 23-01-2021 07:00:00 3.2 C 5.72 g/m*3 3.2 C 0.13333 km/h
2788 23-01-2021 08:00:00 3.28333 C 5.78 g/m*3 3.28 C 1.46667 km/h
2789 23-01-2021 09:00:00 3.73333 C 5.93 g/m*3 3.73 C 0.66667 km/h
2790 23-01-2021 10:00:00 4 C 6.03 g/m*3 4 C 0.4 km/h
2791 23-01-2021 11:00:00 4.85833 C 6.28 g/m*3 4.86 C 3.75 km/h
2792 23-01-2021 12:00:00 5.35 C 6.21 g/m*3 4.03 C 6.29167 km/h
2793 23-01-2021 13:00:00 5.96667 C 6.22 g/m*3 5.97 C 3.60833 km/h
2794 23-01-2021 14:00:00 6.275 C 6.33 g/m*3 6.28 C 0.93333 km/h
2795 23-01-2021 15:00:00 6.475 C 6.33 g/m*3 6.48 C 0.8 km/h
2796 23-01-2021 16:00:00 6.09167 C 6.24 g/m*3 6.09 C 2.13333 km/h
2797 23-01-2021 17:00:00 5.40833 C 6.13 g/m*3 5.41 C 0.8 km/h
2798 23-01-2021 18:00:00 4.88333 C 6 g/m*3 4.88 C 1.73333 km/h
2799 23-01-2021 19:00:00 4.59167 C 6.06 g/m*3 4.59 C 1.2 km/h
2800 23-01-2021 20:00:00 4.2 C 6.01 g/m*3 4.2 C 0.4 km/h
Sensor: Nr:Datum:Temp:Abs-Feuchte:Windchill:Wind:
Aussen-T/F 2801 23-01-2021 21:00:00 3.875 C 5.93 g/m*3 3.88 C 0.53333 km/h
2802 23-01-2021 22:00:00 3.61667 C 5.89 g/m*3 3.62 C 1.73333 km/h
2803 23-01-2021 23:00:00 3.56667 C 5.87 g/m*3 3.57 C 0.13333 km/h
2804 24-01-2021 00:00:00 3.6 C 5.91 g/m*3 3.6 C 0 km/h
2805 24-01-2021 01:00:00 3.39167 C 5.84 g/m*3 3.39 C 1.34167 km/h
2806 24-01-2021 02:00:00 2.28333 C 5.39 g/m*3 2.28 C 3.86667 km/h
2807 24-01-2021 03:00:00 2.16667 C 5.39 g/m*3 -0.36 C 8.59167 km/h
2808 24-01-2021 04:00:00 2.09167 C 5.23 g/m*3 -1.58 C 13.56667 km/h
2809 24-01-2021 05:00:00 2.21667 C 5.19 g/m*3 -1.3 C 12.9 km/h
2810 24-01-2021 06:00:00 2.29167 C 5.2 g/m*3 -1.69 C 15.56667 km/h
2811 24-01-2021 07:00:00 2.075 C 5.17 g/m*3 -1.28 C 11.96667 km/h
2812 24-01-2021 08:00:00 1.84167 C 5.16 g/m*3 -1.17 C 10.23333 km/h
2813 24-01-2021 09:00:00 1.83333 C 5.21 g/m*3 -1.08 C 9.825 km/h
2814 24-01-2021 10:00:00 2.33333 C 5.4 g/m*3 0.14 C 7.525 km/h
2815 24-01-2021 11:00:00 2.68333 C 5.51 g/m*3 1.1 C 5.9 km/h
2816 24-01-2021 12:00:00 2.95833 C 5.53 g/m*3 0.02 C 10.89167 km/h
2817 24-01-2021 13:00:00 3.65833 C 5.51 g/m*3 0.67 C 11.825 km/h
2818 24-01-2021 14:00:00 3.85 C 5.41 g/m*3 0.62 C 13.29167 km/h
2819 24-01-2021 15:00:00 3.78333 C 5.23 g/m*3 1.25 C 9.81667 km/h
2820 24-01-2021 16:00:00 3.29167 C 5.06 g/m*3 1.11 C 8.05833 km/h
2821 24-01-2021 17:00:00 2.06667 C 4.74 g/m*3 -0.37 C 8.19167 km/h
2822 24-01-2021 18:00:00 0.875 C 4.55 g/m*3 -0.81 C 5.49167 km/h
2823 24-01-2021 19:00:00 0.075 C 4.47 g/m*3 0.08 C 0.93333 km/h
2824 24-01-2021 20:00:00 -0.125 C 4.48 g/m*3 -0.13 C 0.13333 km/h
2825 24-01-2021 21:00:00 0.03333 C 4.56 g/m*3 0.03 C 0.8 km/h
Sensor: Nr:Datum:Temp:Abs-Feuchte:Windchill:Wind:
Aussen-T/F 2826 24-01-2021 22:00:00 0.5 C 4.64 g/m*3 0.5 C 3.2 km/h
2827 24-01-2021 23:00:00 1.275 C 4.67 g/m*3 1.27 C 3.86667 km/h
2828 25-01-2021 00:00:00 1.225 C 4.7 g/m*3 1.23 C 2.40833 km/h
2829 25-01-2021 01:00:00 0.85 C 4.75 g/m*3 0.85 C 1.33333 km/h
2830 25-01-2021 02:00:00 0.88333 C 4.79 g/m*3 0.88 C 2.4 km/h
2831 25-01-2021 03:00:00 0.86667 C 4.76 g/m*3 0.87 C 4.28333 km/h
2832 25-01-2021 04:00:00 1.03333 C 4.81 g/m*3 -1.2 C 6.98333 km/h
2833 25-01-2021 05:00:00 1.2 C 4.85 g/m*3 1.2 C 2 km/h
2834 25-01-2021 06:00:00 1.05833 C 4.84 g/m*3 1.06 C 0 km/h
2835 25-01-2021 07:00:00 0.9 C 4.83 g/m*3 0.9 C 0 km/h
2836 25-01-2021 08:00:00 0.94167 C 4.86 g/m*3 0.94 C 0 km/h
2837 25-01-2021 09:00:00 1.15 C 4.95 g/m*3 1.15 C 0 km/h
2838 25-01-2021 10:00:00 1.53333 C 5.11 g/m*3 1.53 C 0 km/h
2839 25-01-2021 11:00:00 1.9 C 5.24 g/m*3 1.9 C 0.13333 km/h
2840 25-01-2021 12:00:00 2.25833 C 5.37 g/m*3 2.26 C 0.66667 km/h
2841 25-01-2021 13:00:00 2.20833 C 5.34 g/m*3 2.21 C 4.41667 km/h
2842 25-01-2021 14:00:00 2.16667 C 5.24 g/m*3 0.35 C 6.30833 km/h
2843 25-01-2021 15:00:00 2.13333 C 5.23 g/m*3 0.79 C 5.09167 km/h
2844 25-01-2021 16:00:00 2.1 C 5.2 g/m*3 0.7 C 5.21667 km/h
2845 25-01-2021 17:00:00 2.09167 C 5.2 g/m*3 2.09 C 2.13333 km/h
2846 25-01-2021 18:00:00 1.45 C 5 g/m*3 1.45 C 1.46667 km/h
2847 25-01-2021 19:00:00 1.175 C 4.94 g/m*3 1.18 C 1.86667 km/h
2848 25-01-2021 20:00:00 0.54167 C 4.73 g/m*3 0.54 C 4.8 km/h
2849 25-01-2021 21:00:00 0.43333 C 4.68 g/m*3 -1.43 C 5.75 km/h
2850 25-01-2021 22:00:00 0.63333 C 4.63 g/m*3 -1.75 C 7.25 km/h
Sensor: Nr:Datum:Temp:Abs-Feuchte:Windchill:Wind:
Aussen-T/F 2851 25-01-2021 23:00:00 1.33333 C 4.73 g/m*3 -1.74 C 10.08333 km/h
2852 26-01-2021 00:00:00 1.7 C 4.8 g/m*3 -1.79 C 12.23333 km/h
2853 26-01-2021 01:00:00 1.75 C 4.83 g/m*3 -1.89 C 13.03333 km/h
2854 26-01-2021 02:00:00 1.86667 C 4.89 g/m*3 -2.03 C 14.5 km/h
2855 26-01-2021 03:00:00 2.06667 C 4.94 g/m*3 -1.35 C 12.23333 km/h
2856 26-01-2021 04:00:00 2.35833 C 5.03 g/m*3 -1.3 C 13.83333 km/h
2857 26-01-2021 05:00:00 2.85 C 5.16 g/m*3 -1 C 15.56667 km/h
2858 26-01-2021 06:00:00 3.175 C 5.24 g/m*3 -0.53 C 15.16667 km/h
2859 26-01-2021 07:00:00 3.39167 C 5.25 g/m*3 -0.28 C 15.3 km/h
2860 26-01-2021 08:00:00 3.8 C 5.21 g/m*3 0.24 C 15.16667 km/h
2861 26-01-2021 09:00:00 3.80833 C 5.26 g/m*3 0.43 C 14.1 km/h
2862 26-01-2021 10:00:00 4.23333 C 5.33 g/m*3 1.14 C 13.03333 km/h
2863 26-01-2021 11:00:00 4.58333 C 5.35 g/m*3 1.21 C 15.16667 km/h
2864 26-01-2021 12:00:00 4.88333 C 5.44 g/m*3 2.02 C 12.5 km/h
2865 26-01-2021 13:00:00 5.15 C 5.46 g/m*3 2.19 C 13.43333 km/h
2866 26-01-2021 14:00:00 5.00833 C 5.42 g/m*3 1.86 C 14.36667 km/h
2867 26-01-2021 15:00:00 4.71667 C 5.32 g/m*3 1.75 C 12.9 km/h
2868 26-01-2021 16:00:00 4.55833 C 5.26 g/m*3 1.65 C 12.36667 km/h
2869 26-01-2021 17:00:00 4.10833 C 5.03 g/m*3 0.78 C 14.23333 km/h
2870 26-01-2021 18:00:00 3.275 C 4.85 g/m*3 1.09 C 8.075 km/h
2871 26-01-2021 19:00:00 2.08333 C 4.77 g/m*3 0.41 C 5.9 km/h
2872 26-01-2021 20:00:00 1.83333 C 4.86 g/m*3 -0.43 C 7.5 km/h
2873 26-01-2021 21:00:00 2.65833 C 5.07 g/m*3 -0.16 C 10.09167 km/h
2874 26-01-2021 22:00:00 2.75 C 5.08 g/m*3 -0.35 C 11.43333 km/h
2875 26-01-2021 23:00:00 2.31667 C 4.94 g/m*3 -0.03 C 8.05 km/h
Sensor: Nr:Datum:Temp:Abs-Feuchte:Windchill:Wind:
Aussen-T/F 2876 27-01-2021 00:00:00 2.03333 C 4.85 g/m*3 2.03 C 2.40833 km/h
2877 27-01-2021 01:00:00 1.38333 C 4.71 g/m*3 1.38 C 2.4 km/h
2878 27-01-2021 02:00:00 1.01667 C 4.65 g/m*3 1.02 C 1.46667 km/h
2879 27-01-2021 03:00:00 1.05 C 4.72 g/m*3 1.05 C 0.8 km/h
2880 27-01-2021 04:00:00 1.41667 C 4.78 g/m*3 -0.03 C 5.1 km/h
2881 27-01-2021 05:00:00 1.79167 C 4.83 g/m*3 1.79 C 4.95833 km/h
2882 27-01-2021 06:00:00 1.61667 C 4.9 g/m*3 1.62 C 2.13333 km/h
2883 27-01-2021 07:00:00 1.3 C 4.9 g/m*3 1.3 C 0 km/h
2884 27-01-2021 08:00:00 1.3 C 4.98 g/m*3 1.3 C 1.86667 km/h
2885 27-01-2021 09:00:00 1.55 C 5.07 g/m*3 1.55 C 2.53333 km/h
2886 27-01-2021 10:00:00 1.68333 C 5.14 g/m*3 1.68 C 0.26667 km/h
2887 27-01-2021 11:00:00 2.2 C 5.35 g/m*3 0.64 C 5.64167 km/h
2888 27-01-2021 12:00:00 2.59167 C 5.44 g/m*3 -0.11 C 9.55 km/h
2889 27-01-2021 13:00:00 2.78333 C 5.51 g/m*3 0.37 C 8.59167 km/h
2890 27-01-2021 14:00:00 2.75833 C 5.5 g/m*3 0.19 C 9.15 km/h
2891 27-01-2021 15:00:00 2.80833 C 5.56 g/m*3 -0.58 C 12.9 km/h
2892 27-01-2021 16:00:00 2.86667 C 5.6 g/m*3 -0.56 C 13.16667 km/h
2893 27-01-2021 17:00:00 2.89167 C 5.61 g/m*3 -0.24 C 11.7 km/h
2894 27-01-2021 18:00:00 2.925 C 5.62 g/m*3 -0.11 C 11.29167 km/h
2895 27-01-2021 19:00:00 3.06667 C 5.67 g/m*3 -0.05 C 11.83333 km/h
2896 27-01-2021 20:00:00 3.225 C 5.72 g/m*3 0.17 C 11.7 km/h
2897 27-01-2021 21:00:00 3.375 C 5.73 g/m*3 0.4 C 11.43333 km/h
2898 27-01-2021 22:00:00 3.6 C 5.82 g/m*3 0.79 C 10.9 km/h
2899 27-01-2021 23:00:00 3.775 C 5.89 g/m*3 0.89 C 11.425 km/h
2900 28-01-2021 00:00:00 3.89167 C 5.93 g/m*3 1.03 C 11.43333 km/h
Sensor: Nr:Datum:Temp:Abs-Feuchte:Windchill:Wind:
Aussen-T/F 2901 28-01-2021 01:00:00 4.11667 C 6.02 g/m*3 1.22 C 11.825 km/h
2902 28-01-2021 02:00:00 4.35 C 6.12 g/m*3 2.47 C 7.64167 km/h
2903 28-01-2021 03:00:00 4.66667 C 6.25 g/m*3 2.66 C 8.33333 km/h
2904 28-01-2021 04:00:00 4.56667 C 6.27 g/m*3 4.57 C 2.4 km/h
2905 28-01-2021 05:00:00 4.5 C 6.24 g/m*3 4.5 C 0 km/h
2906 28-01-2021 06:00:00 4.4 C 6.24 g/m*3 4.4 C 0 km/h
2907 28-01-2021 07:00:00 4.3 C 6.23 g/m*3 4.3 C 0 km/h
2908 28-01-2021 08:00:00 4.2 C 6.19 g/m*3 4.2 C 0 km/h
2909 28-01-2021 09:00:00 4.33333 C 6.24 g/m*3 4.33 C 0 km/h
2910 28-01-2021 10:00:00 4.61667 C 6.38 g/m*3 4.62 C 1.2 km/h
2911 28-01-2021 11:00:00 5.03333 C 6.61 g/m*3 5.03 C 1.6 km/h
2912 28-01-2021 12:00:00 6.30833 C 7.18 g/m*3 4.8 C 7.50833 km/h
2913 28-01-2021 13:00:00 7.825 C 7.93 g/m*3 5.64 C 12.23333 km/h
2914 28-01-2021 14:00:00 9.34167 C 8.67 g/m*3 6.98 C 15.975 km/h
2915 28-01-2021 15:00:00 10.31667 C 9.12 g/m*3 8.18 C 16.10833 km/h
2916 28-01-2021 16:00:00 10.65 C 9.37 g/m*3 8.86 C 13.83333 km/h
2917 28-01-2021 17:00:00 11.03333 C 9.19 g/m*3 11.03 C 16.36667 km/h
2918 28-01-2021 18:00:00 11.16667 C 8.96 g/m*3 11.17 C 14.76667 km/h
2919 28-01-2021 19:00:00 11.15 C 8.82 g/m*3 11.15 C 14.76667 km/h
2920 28-01-2021 20:00:00 10.70833 C 8.78 g/m*3 9.05 C 12.9 km/h
2921 28-01-2021 21:00:00 10.25833 C 8.6 g/m*3 8.63 C 11.96667 km/h
2922 28-01-2021 22:00:00 10.10833 C 8.39 g/m*3 9.21 C 7.65 km/h
2923 28-01-2021 23:00:00 9.04167 C 7.99 g/m*3 7.96 C 7.64167 km/h
2924 29-01-2021 00:00:00 8.88333 C 7.96 g/m*3 7.86 C 7.25833 km/h
2925 29-01-2021 01:00:00 8.625 C 7.9 g/m*3 8.63 C 2 km/h
Sensor: Nr:Datum:Temp:Abs-Feuchte:Windchill:Wind:
Aussen-T/F 2926 29-01-2021 02:00:00 8.21667 C 7.82 g/m*3 8.22 C 0 km/h
2927 29-01-2021 03:00:00 8.3 C 8.01 g/m*3 8.3 C 0 km/h
2928 29-01-2021 04:00:00 8.3 C 8.04 g/m*3 8.3 C 0.4 km/h
2929 29-01-2021 05:00:00 8.51667 C 8.21 g/m*3 8.52 C 0 km/h
2930 29-01-2021 06:00:00 8.775 C 8.39 g/m*3 8.78 C 1.2 km/h
2931 29-01-2021 07:00:00 8.85833 C 8.41 g/m*3 6.5 C 15.03333 km/h
2932 29-01-2021 08:00:00 8.80833 C 8.16 g/m*3 6.37 C 15.56667 km/h
2933 29-01-2021 09:00:00 9.24167 C 8.18 g/m*3 7.06 C 14.36667 km/h
2934 29-01-2021 10:00:00 10.05833 C 8.02 g/m*3 7.64 C 18.1 km/h
2935 29-01-2021 11:00:00 10.3 C 7.7 g/m*3 7.98 C 17.7 km/h
2936 29-01-2021 12:00:00 10.40833 C 7.98 g/m*3 8.09 C 17.96667 km/h
2937 29-01-2021 13:00:00 9.525 C 7.89 g/m*3 6.77 C 20.10833 km/h
2938 29-01-2021 14:00:00 9.075 C 7.94 g/m*3 7.88 C 8.19167 km/h
2939 29-01-2021 15:00:00 9.65 C 7.96 g/m*3 7.96 C 11.55833 km/h
2940 29-01-2021 16:00:00 9.26667 C 7.56 g/m*3 8.41 C 6.83333 km/h
2941 29-01-2021 17:00:00 9.29167 C 7.63 g/m*3 7.57 C 11.28333 km/h
2942 29-01-2021 18:00:00 8.74167 C 7.41 g/m*3 6.61 C 13.16667 km/h
2943 29-01-2021 19:00:00 8.15833 C 7.31 g/m*3 6.71 C 8.6 km/h
2944 29-01-2021 20:00:00 7.85 C 7.42 g/m*3 6.18 C 9.41667 km/h
2945 29-01-2021 21:00:00 7.6 C 7.47 g/m*3 6.62 C 6.30833 km/h
2946 29-01-2021 22:00:00 7.70833 C 7.46 g/m*3 6.15 C 8.75 km/h
2947 29-01-2021 23:00:00 8.20833 C 7.28 g/m*3 6.26 C 11.28333 km/h
2948 30-01-2021 00:00:00 8.41667 C 7.28 g/m*3 5.89 C 15.56667 km/h
2949 30-01-2021 01:00:00 8.24167 C 7.11 g/m*3 6.02 C 13.03333 km/h
2950 30-01-2021 02:00:00 7.73333 C 7.01 g/m*3 6.18 C 8.75 km/h
Sensor: Nr:Datum:Temp:Abs-Feuchte:Windchill:Wind:
Aussen-T/F 2951 30-01-2021 03:00:00 7.38333 C 7.08 g/m*3 6.05 C 7.525 km/h
2952 30-01-2021 04:00:00 7.25 C 7.04 g/m*3 5.35 C 9.96667 km/h
2953 30-01-2021 05:00:00 7.59167 C 7.21 g/m*3 5.52 C 11.29167 km/h
2954 30-01-2021 06:00:00 7.325 C 7.3 g/m*3 7.33 C 4.025 km/h
2955 30-01-2021 07:00:00 6.84167 C 7.17 g/m*3 6.84 C 2.40833 km/h
2956 30-01-2021 08:00:00 5.63333 C 6.66 g/m*3 5.63 C 2.95 km/h
2957 30-01-2021 09:00:00 4.78333 C 6.36 g/m*3 4.78 C 1.06667 km/h
2958 30-01-2021 10:00:00 4.58333 C 6.3 g/m*3 4.58 C 1.2 km/h
2959 30-01-2021 11:00:00 4.2 C 6.15 g/m*3 4.2 C 4.14167 km/h
2960 30-01-2021 12:00:00 2.88333 C 5.57 g/m*3 0.21 C 9.675 km/h
2961 30-01-2021 13:00:00 2.53333 C 5.41 g/m*3 -0.4 C 10.49167 km/h
2962 30-01-2021 14:00:00 2.00833 C 5.2 g/m*3 -0.94 C 10.08333 km/h
2963 30-01-2021 15:00:00 1.60833 C 5.09 g/m*3 -0.57 C 7.10833 km/h
2964 30-01-2021 16:00:00 1.24167 C 5 g/m*3 1.24 C 3.20833 km/h
2965 30-01-2021 17:00:00 1.16667 C 4.99 g/m*3 1.17 C 3.74167 km/h
2966 30-01-2021 18:00:00 1.2 C 5 g/m*3 -0.77 C 6.31667 km/h
2967 30-01-2021 19:00:00 1.18333 C 4.99 g/m*3 1.18 C 4.00833 km/h
2968 30-01-2021 20:00:00 1.1 C 4.96 g/m*3 1.1 C 0.93333 km/h
2969 30-01-2021 21:00:00 1.1 C 5 g/m*3 1.1 C 0.8 km/h
2970 30-01-2021 22:00:00 1.1 C 5.02 g/m*3 1.1 C 1.33333 km/h
2971 30-01-2021 23:00:00 0.98333 C 4.98 g/m*3 0.98 C 1.74167 km/h
2972 31-01-2021 00:00:00 0.84167 C 4.88 g/m*3 0.84 C 2.275 km/h
2973 31-01-2021 01:00:00 0.78333 C 4.86 g/m*3 0.78 C 2.94167 km/h
2974 31-01-2021 02:00:00 0.7 C 4.82 g/m*3 0.7 C 1.46667 km/h
2975 31-01-2021 03:00:00 0.61667 C 4.74 g/m*3 0.62 C 2.28333 km/h
Sensor: Nr:Datum:Temp:Abs-Feuchte:Windchill:Wind:
Aussen-T/F 2976 31-01-2021 04:00:00 0.48333 C 4.67 g/m*3 0.48 C 1.6 km/h
2977 31-01-2021 05:00:00 0.35 C 4.56 g/m*3 -1.89 C 6.71667 km/h
2978 31-01-2021 06:00:00 0.24167 C 4.45 g/m*3 -1.71 C 5.9 km/h
2979 31-01-2021 07:00:00 0.2 C 4.38 g/m*3 -1.64 C 5.61667 km/h
2980 31-01-2021 08:00:00 0.175 C 4.36 g/m*3 0.18 C 4.55 km/h
2981 31-01-2021 09:00:00 0.25833 C 4.41 g/m*3 0.26 C 2.13333 km/h
2982 31-01-2021 10:00:00 0.525 C 4.42 g/m*3 -1.32 C 5.75 km/h
2983 31-01-2021 11:00:00 0.88333 C 4.49 g/m*3 -1.41 C 7.10833 km/h
2984 31-01-2021 12:00:00 1.3 C 4.6 g/m*3 -0.33 C 5.49167 km/h
2985 31-01-2021 13:00:00 1.48333 C 4.67 g/m*3 -0.76 C 7.24167 km/h
2986 31-01-2021 14:00:00 1.54167 C 4.73 g/m*3 -0.74 C 7.38333 km/h
2987 31-01-2021 15:00:00 1.68333 C 4.8 g/m*3 1.68 C 2.4 km/h
2988 31-01-2021 16:00:00 1.66667 C 4.87 g/m*3 1.67 C 2.4 km/h
2989 31-01-2021 17:00:00 1.625 C 4.96 g/m*3 1.63 C 0.13333 km/h
2990 31-01-2021 18:00:00 1.425 C 4.96 g/m*3 1.43 C 0 km/h
2991 31-01-2021 19:00:00 1.4 C 4.99 g/m*3 1.4 C 0 km/h
2992 31-01-2021 20:00:00 1.45 C 5.03 g/m*3 1.45 C 0 km/h
2993 31-01-2021 21:00:00 1.54167 C 5.12 g/m*3 1.54 C 0.26667 km/h
2994 31-01-2021 22:00:00 1.6 C 5.14 g/m*3 1.6 C 0 km/h
2995 31-01-2021 23:00:00 1.6 C 5.18 g/m*3 1.6 C 0 km/h
2996 01-02-2021 00:00:00 1.7 C 5.23 g/m*3 1.7 C 0.26667 km/h
2997 01-02-2021 01:00:00 1.7 C 5.23 g/m*3 1.7 C 0.93333 km/h
2998 01-02-2021 02:00:00 1.775 C 5.25 g/m*3 1.78 C 0.13333 km/h
2999 01-02-2021 03:00:00 1.85833 C 5.28 g/m*3 1.86 C 0.4 km/h
3000 01-02-2021 04:00:00 1.9 C 5.3 g/m*3 1.9 C 0.26667 km/h
Sensor: Nr:Datum:Temp:Abs-Feuchte:Windchill:Wind:
Aussen-T/F 3001 01-02-2021 05:00:00 1.95833 C 5.32 g/m*3 1.96 C 0.4 km/h
3002 01-02-2021 06:00:00 2.09167 C 5.37 g/m*3 2.09 C 0.4 km/h
3003 01-02-2021 07:00:00 2.15833 C 5.45 g/m*3 2.16 C 0.26667 km/h
3004 01-02-2021 08:00:00 2.23333 C 5.48 g/m*3 2.23 C 0.13333 km/h
3005 01-02-2021 09:00:00 2.75833 C 5.67 g/m*3 2.76 C 0 km/h
3006 01-02-2021 10:00:00 3.49167 C 5.96 g/m*3 3.49 C 0.26667 km/h
3007 01-02-2021 11:00:00 3.98333 C 6.16 g/m*3 3.98 C 0 km/h
3008 01-02-2021 12:00:00 4.45 C 6.35 g/m*3 4.45 C 1.46667 km/h
3009 01-02-2021 13:00:00 4.975 C 6.57 g/m*3 4.97 C 0.53333 km/h
3010 01-02-2021 14:00:00 5.40833 C 6.71 g/m*3 5.41 C 0.13333 km/h
3011 01-02-2021 15:00:00 5.76667 C 6.86 g/m*3 5.77 C 0.26667 km/h
3012 01-02-2021 16:00:00 5.94167 C 6.94 g/m*3 5.94 C 0 km/h
3013 01-02-2021 17:00:00 5.94167 C 6.94 g/m*3 5.94 C 0 km/h
3014 01-02-2021 18:00:00 5.71667 C 6.84 g/m*3 5.72 C 0 km/h
3015 01-02-2021 19:00:00 5.475 C 6.73 g/m*3 5.48 C 1.2 km/h
3016 01-02-2021 20:00:00 5.55833 C 6.83 g/m*3 5.56 C 1.06667 km/h
3017 01-02-2021 21:00:00 5.70833 C 6.91 g/m*3 5.71 C 1.46667 km/h
3018 01-02-2021 22:00:00 5.53333 C 6.8 g/m*3 5.53 C 2.13333 km/h
3019 01-02-2021 23:00:00 5.30833 C 6.68 g/m*3 5.31 C 0.4 km/h
3020 02-02-2021 00:00:00 5.18333 C 6.63 g/m*3 5.18 C 0 km/h
3021 02-02-2021 01:00:00 5.06667 C 6.62 g/m*3 5.07 C 1.6 km/h
3022 02-02-2021 02:00:00 4.95 C 6.57 g/m*3 4.95 C 2.26667 km/h
3023 02-02-2021 03:00:00 4.81667 C 6.51 g/m*3 4.82 C 1.73333 km/h
3024 02-02-2021 04:00:00 4.6 C 6.35 g/m*3 4.6 C 4.80833 km/h
3025 02-02-2021 05:00:00 4.6 C 6.29 g/m*3 4.6 C 1.86667 km/h
Sensor: Nr:Datum:Temp:Abs-Feuchte:Windchill:Wind:
Aussen-T/F 3026 02-02-2021 06:00:00 4.65 C 6.31 g/m*3 4.65 C 1.33333 km/h
3027 02-02-2021 07:00:00 4.85 C 6.43 g/m*3 4.85 C 0.8 km/h
3028 02-02-2021 08:00:00 5.14167 C 6.55 g/m*3 5.14 C 0.53333 km/h
3029 02-02-2021 09:00:00 5.48333 C 6.73 g/m*3 5.48 C 0 km/h
3030 02-02-2021 10:00:00 5.93333 C 6.95 g/m*3 5.93 C 0 km/h
3031 02-02-2021 11:00:00 6.55 C 7.29 g/m*3 6.55 C 0 km/h
3032 02-02-2021 12:00:00 7.50833 C 7.77 g/m*3 7.51 C 1.06667 km/h
3033 02-02-2021 13:00:00 9.35 C 8.69 g/m*3 7.27 C 13.81667 km/h
3034 02-02-2021 14:00:00 10.65 C 9.04 g/m*3 8.67 C 15.43333 km/h
3035 02-02-2021 15:00:00 11.125 C 9.19 g/m*3 11.13 C 9.68333 km/h
3036 02-02-2021 16:00:00 11.19167 C 9.23 g/m*3 11.19 C 7.25 km/h
3037 02-02-2021 17:00:00 10.84167 C 9.07 g/m*3 10.06 C 7.65833 km/h
3038 02-02-2021 18:00:00 10.79167 C 8.9 g/m*3 9.65 C 9.55833 km/h
3039 02-02-2021 19:00:00 10.175 C 8.64 g/m*3 10.18 C 4.28333 km/h
3040 02-02-2021 20:00:00 10.075 C 8.84 g/m*3 9.41 C 6.56667 km/h
3041 02-02-2021 21:00:00 10.00833 C 8.92 g/m*3 9.3 C 6.70833 km/h
3042 02-02-2021 22:00:00 10.29167 C 9.09 g/m*3 8.86 C 10.75 km/h
3043 02-02-2021 23:00:00 10.08333 C 8.97 g/m*3 9.78 C 5.225 km/h
3044 03-02-2021 00:00:00 10.26667 C 9.08 g/m*3 9.25 C 8.33333 km/h
3045 03-02-2021 01:00:00 9.65833 C 8.7 g/m*3 9.66 C 4.4 km/h
3046 03-02-2021 02:00:00 9.06667 C 8.47 g/m*3 9.07 C 2.66667 km/h
3047 03-02-2021 03:00:00 8.95 C 8.44 g/m*3 8.95 C 2.13333 km/h
3048 03-02-2021 04:00:00 8.33333 C 8.11 g/m*3 8.33 C 0 km/h
3049 03-02-2021 05:00:00 8 C 7.94 g/m*3 8 C 0 km/h
3050 03-02-2021 06:00:00 7.825 C 7.9 g/m*3 7.83 C 0 km/h
Sensor: Nr:Datum:Temp:Abs-Feuchte:Windchill:Wind:
Aussen-T/F 3051 03-02-2021 07:00:00 8 C 8.02 g/m*3 8 C 0 km/h
3052 03-02-2021 08:00:00 8.225 C 8.14 g/m*3 8.23 C 0 km/h
3053 03-02-2021 09:00:00 9.05833 C 8.64 g/m*3 9.06 C 0 km/h
3054 03-02-2021 10:00:00 9.83333 C 9.1 g/m*3 9.83 C 0 km/h
3055 03-02-2021 11:00:00 10.2 C 9.27 g/m*3 10.2 C 1.2 km/h
3056 03-02-2021 12:00:00 10.56667 C 9.5 g/m*3 10.57 C 2.54167 km/h
3057 03-02-2021 13:00:00 11.55833 C 9.76 g/m*3 11.56 C 18.9 km/h
3058 03-02-2021 14:00:00 12.11667 C 9.7 g/m*3 12.12 C 15.3 km/h
3059 03-02-2021 15:00:00 10.89167 C 9.28 g/m*3 8.87 C 16.25 km/h
3060 03-02-2021 16:00:00 11.26667 C 8.79 g/m*3 11.27 C 18.65 km/h
3061 03-02-2021 17:00:00 10.45 C 8.66 g/m*3 8.81 C 12.33333 km/h
3062 03-02-2021 18:00:00 9.81667 C 8.65 g/m*3 9.25 C 6.025 km/h
3063 03-02-2021 19:00:00 9.75833 C 8.69 g/m*3 8.22 C 10.75 km/h
3064 03-02-2021 20:00:00 10.175 C 8.84 g/m*3 8.83 C 10.09167 km/h
3065 03-02-2021 21:00:00 9.95 C 8.69 g/m*3 7.98 C 13.96667 km/h
3066 03-02-2021 22:00:00 9.6 C 8.44 g/m*3 7.26 C 16.36667 km/h
3067 03-02-2021 23:00:00 9.7 C 8.01 g/m*3 7.31 C 17.03333 km/h
3068 04-02-2021 00:00:00 9.36667 C 7.69 g/m*3 6.98 C 16.23333 km/h
3069 04-02-2021 01:00:00 8.76667 C 7.53 g/m*3 6.96 C 11.15833 km/h
3070 04-02-2021 02:00:00 8.03333 C 7.3 g/m*3 6.42 C 9.275 km/h
3071 04-02-2021 03:00:00 7.51667 C 7 g/m*3 5.57 C 10.5 km/h
3072 04-02-2021 04:00:00 7.175 C 6.75 g/m*3 4.56 C 14.09167 km/h
3073 04-02-2021 05:00:00 6.58333 C 6.57 g/m*3 4.7 C 9.28333 km/h
3074 04-02-2021 06:00:00 6.23333 C 6.63 g/m*3 4.44 C 8.58333 km/h
3075 04-02-2021 07:00:00 6.4 C 6.65 g/m*3 4.61 C 8.71667 km/h
Sensor: Nr:Datum:Temp:Abs-Feuchte:Windchill:Wind:
Aussen-T/F 3076 04-02-2021 08:00:00 5.775 C 6.45 g/m*3 4.32 C 6.98333 km/h
3077 04-02-2021 09:00:00 5.15 C 6.33 g/m*3 5.15 C 3.33333 km/h
3078 04-02-2021 10:00:00 5.25 C 6.46 g/m*3 5.25 C 3.6 km/h
3079 04-02-2021 11:00:00 6.6 C 6.82 g/m*3 4.84 C 8.725 km/h
3080 04-02-2021 12:00:00 7.76667 C 6.91 g/m*3 5.97 C 9.94167 km/h
3081 04-02-2021 13:00:00 8.01667 C 6.84 g/m*3 6.89 C 7.10833 km/h
3082 04-02-2021 14:00:00 8.89167 C 6.91 g/m*3 7.94 C 6.975 km/h
3083 04-02-2021 15:00:00 8.41667 C 6.94 g/m*3 8.42 C 4.13333 km/h
3084 04-02-2021 16:00:00 6.84167 C 6.77 g/m*3 5.97 C 5.6 km/h
3085 04-02-2021 17:00:00 6.08333 C 6.67 g/m*3 6.08 C 4.66667 km/h
3086 04-02-2021 18:00:00 5.66667 C 6.56 g/m*3 5.67 C 2.66667 km/h
3087 04-02-2021 19:00:00 5.25833 C 6.43 g/m*3 5.26 C 0.26667 km/h
3088 04-02-2021 20:00:00 4.7 C 6.26 g/m*3 4.7 C 0.26667 km/h
3089 04-02-2021 21:00:00 4.78333 C 6.36 g/m*3 4.78 C 0.4 km/h
3090 04-02-2021 22:00:00 4.825 C 6.38 g/m*3 4.83 C 0.13333 km/h
3091 04-02-2021 23:00:00 5.075 C 6.52 g/m*3 5.08 C 0 km/h
3092 05-02-2021 00:00:00 5.25 C 6.63 g/m*3 5.25 C 0 km/h
3093 05-02-2021 01:00:00 5.3 C 6.64 g/m*3 5.3 C 0 km/h
3094 05-02-2021 02:00:00 5.26667 C 6.64 g/m*3 5.27 C 0 km/h
3095 05-02-2021 03:00:00 5.15 C 6.57 g/m*3 5.15 C 0 km/h
3096 05-02-2021 04:00:00 4.86667 C 6.43 g/m*3 4.87 C 0 km/h
3097 05-02-2021 05:00:00 4.625 C 6.34 g/m*3 4.63 C 1.06667 km/h
3098 05-02-2021 06:00:00 4.95 C 6.5 g/m*3 4.95 C 0 km/h
3099 05-02-2021 07:00:00 5.2 C 6.61 g/m*3 5.2 C 0 km/h
3100 05-02-2021 08:00:00 5.575 C 6.78 g/m*3 5.58 C 0 km/h
Sensor: Nr:Datum:Temp:Abs-Feuchte:Windchill:Wind:
Aussen-T/F 3101 05-02-2021 09:00:00 6.025 C 7.02 g/m*3 6.03 C 0 km/h
3102 05-02-2021 10:00:00 6.625 C 7.31 g/m*3 6.63 C 0 km/h
3103 05-02-2021 11:00:00 7.16667 C 7.54 g/m*3 7.17 C 0 km/h
3104 05-02-2021 12:00:00 7.6 C 7.73 g/m*3 7.6 C 0 km/h
3105 05-02-2021 13:00:00 7.96667 C 7.92 g/m*3 7.97 C 0 km/h
3106 05-02-2021 14:00:00 8.50833 C 8.25 g/m*3 8.51 C 0 km/h
3107 05-02-2021 15:00:00 9.13333 C 8.6 g/m*3 9.13 C 2 km/h
3108 05-02-2021 16:00:00 9.25833 C 8.6 g/m*3 9.26 C 0 km/h
3109 05-02-2021 17:00:00 8.25833 C 8 g/m*3 8.26 C 2.26667 km/h
3110 05-02-2021 18:00:00 6.98333 C 7.39 g/m*3 6.98 C 3.33333 km/h
3111 05-02-2021 19:00:00 7.10833 C 7.49 g/m*3 7.11 C 0.66667 km/h
3112 05-02-2021 20:00:00 6.125 C 7.03 g/m*3 6.13 C 0.13333 km/h
3113 05-02-2021 21:00:00 5.3 C 6.67 g/m*3 5.3 C 0 km/h
3114 05-02-2021 22:00:00 5.825 C 6.96 g/m*3 5.83 C 0 km/h
3115 05-02-2021 23:00:00 6.18333 C 7.13 g/m*3 6.18 C 0 km/h
3116 06-02-2021 00:00:00 6.15 C 7.11 g/m*3 6.15 C 0 km/h
3117 06-02-2021 01:00:00 6.025 C 7.05 g/m*3 6.03 C 0.8 km/h
3118 06-02-2021 02:00:00 6.325 C 7.19 g/m*3 6.33 C 0.8 km/h
3119 06-02-2021 03:00:00 6.20833 C 7.14 g/m*3 6.21 C 0 km/h
3120 06-02-2021 04:00:00 6.10833 C 7.09 g/m*3 6.11 C 0 km/h
3121 06-02-2021 05:00:00 6.13333 C 7.1 g/m*3 6.13 C 0.13333 km/h
3122 06-02-2021 06:00:00 6.2 C 7.13 g/m*3 6.2 C 0.13333 km/h
3123 06-02-2021 07:00:00 6.2 C 7.13 g/m*3 6.2 C 0 km/h
3124 06-02-2021 08:00:00 6.14167 C 7.11 g/m*3 6.14 C 1.46667 km/h
3125 06-02-2021 09:00:00 6.04167 C 7.06 g/m*3 6.04 C 4.29167 km/h
Sensor: Nr:Datum:Temp:Abs-Feuchte:Windchill:Wind:
Aussen-T/F 3126 06-02-2021 10:00:00 6.20833 C 7.14 g/m*3 6.21 C 1.86667 km/h
3127 06-02-2021 11:00:00 6.21667 C 7.14 g/m*3 6.22 C 3.20833 km/h
3128 06-02-2021 12:00:00 6.04167 C 7.05 g/m*3 6.04 C 4.83333 km/h
3129 06-02-2021 13:00:00 5.78333 C 6.85 g/m*3 4.04 C 8.05 km/h
3130 06-02-2021 14:00:00 5.45833 C 6.65 g/m*3 5.46 C 4.825 km/h
3131 06-02-2021 15:00:00 5.11667 C 6.49 g/m*3 3.63 C 6.71667 km/h
3132 06-02-2021 16:00:00 4.66667 C 6.25 g/m*3 3.16 C 6.56667 km/h
3133 06-02-2021 17:00:00 4.16667 C 6.06 g/m*3 2.37 C 7.25 km/h
3134 06-02-2021 18:00:00 3.675 C 5.91 g/m*3 1.12 C 9.80833 km/h
3135 06-02-2021 19:00:00 3.28333 C 5.74 g/m*3 -0.14 C 13.7 km/h
3136 06-02-2021 20:00:00 3.05833 C 5.67 g/m*3 1.39 C 6.3 km/h
3137 06-02-2021 21:00:00 2.69167 C 5.53 g/m*3 1.06 C 6.03333 km/h
3138 06-02-2021 22:00:00 2.39167 C 5.42 g/m*3 -0.75 C 11.28333 km/h
3139 06-02-2021 23:00:00 2.3 C 5.39 g/m*3 -0.74 C 10.74167 km/h
3140 07-02-2021 00:00:00 2.325 C 5.4 g/m*3 -1.71 C 15.96667 km/h
3141 07-02-2021 01:00:00 2.4 C 5.42 g/m*3 -1.05 C 12.75833 km/h
3142 07-02-2021 02:00:00 2.325 C 5.4 g/m*3 -0.1 C 8.30833 km/h
3143 07-02-2021 03:00:00 2.13333 C 5.33 g/m*3 -0.65 C 9.55 km/h
3144 07-02-2021 04:00:00 1.96667 C 5.31 g/m*3 -1.14 C 10.75 km/h
3145 07-02-2021 05:00:00 2.025 C 5.34 g/m*3 0.3 C 6.01667 km/h
3146 07-02-2021 06:00:00 2 C 5.33 g/m*3 0.32 C 5.89167 km/h
3147 07-02-2021 07:00:00 1.94167 C 5.31 g/m*3 0.58 C 5.08333 km/h
3148 07-02-2021 08:00:00 1.75833 C 5.25 g/m*3 -1.06 C 9.4 km/h
3149 07-02-2021 09:00:00 1.7 C 5.23 g/m*3 0.13 C 5.5 km/h
3150 07-02-2021 10:00:00 1.73333 C 5.24 g/m*3 0.29 C 5.20833 km/h
Sensor: Nr:Datum:Temp: